[[{"header":{"parameterUnit":"m.s-1","parameterCategory":1,"la1":31.0,"la2":29.5877,"lo1":-88.7671,"lo2":-86.6584,"dy":0.0162,"dx":0.0185,"nx":115,"ny":88,"refTime":"2023-06-23T00:00:00:Z","depth":0,"parameterNumber":2,"parameterNumberName":"U-component_of_WINDS"},"data":[0.0,0.0,0.0,0.0,0.0,0.0,0.0,0.0,0.0,0.0,0.0,0.0,0.0,0.0,0.0,0.0,0.0,0.0,0.0,0.0,0.0,0.0,0.0,0.0,0.0,0.0,0.0,0.0,0.0,0.0,0.0,0.0,0.0,0.0,0.0,0.0,0.0,0.0,0.0,0.0,0.0,0.0,0.0,0.0,0.0,0.0,0.0,0.0,0.0,0.0,0.0,0.0,0.0,0.0,0.0,0.0,0.0,0.0,0.0,0.0,0.0,0.0,0.0,0.0,0.0,0.0,0.0,0.0,0.0,0.0,0.0,0.0,0.0,0.0,0.0,0.0,0.0,0.0,0.0,0.0,0.0,0.0,0.0,0.0,0.0,0.0,0.0,0.0,0.0,0.0,0.0,0.0,0.0,0.0,0.0,0.0,0.0,0.0,0.0,0.0,0.0,0.0,0.0,0.0,0.0,0.0,0.0,0.0,0.0,0.0,0.0,0.0,0.0,0.0,0.0,0.0,0.0,0.0,0.0,0.0,0.0,0.0,0.0,0.0,0.0,0.0,0.0,0.0,0.0,0.0,0.0,0.0,0.0,0.0,0.0,0.0,0.0,0.0,0.0,0.0,0.0,0.0,0.0,0.0,0.0,0.0,0.0,0.0,0.0,0.0,0.0,0.0,0.0,0.0,0.0,0.0,0.0,0.0,0.0,0.0,0.0,0.0,0.0,0.0,0.0,0.0,0.0,0.0,0.0,0.0,0.0,0.0,0.0,0.0,0.0,0.0,0.0,0.0,0.0,0.0,0.0,0.0,0.0,0.0,0.0,0.0,0.0,0.0,0.0,0.0,0.0,0.0,0.0,0.0,0.0,0.0,0.0,0.0,0.0,0.0,0.0,0.0,0.0,0.0,0.0,0.0,0.0,0.0,0.0,0.0,0.0,0.0,0.0,0.0,0.0,0.0,0.0,0.0,0.0,0.0,0.0,0.0,0.0,0.0,0.0,0.0,0.0,0.0,0.0,0.0,0.0,0.0,0.0,0.0,0.0,0.0,0.0,0.0,0.0,0.0,0.0,0.0,0.0,0.0,0.0,0.0,0.0,0.0,0.0,0.0,0.0,0.0,0.0,0.0,0.0,0.0,0.0,0.0,0.0,0.0,0.0,0.0,0.0,0.0,0.0,0.0,0.0,0.0,0.0,0.0,0.0,0.0,0.0,0.0,0.0,0.0,0.0,0.0,0.0,0.0,0.0,0.0,0.0,0.0,0.0,0.0,0.0,0.0,0.0,0.0,0.0,0.0,0.0,0.0,0.0,0.0,0.0,0.0,0.0,0.0,0.0,0.0,0.0,0.0,0.0,0.0,0.0,0.0,0.0,0.0,0.0,0.0,0.0,0.0,0.0,0.0,0.0,0.0,0.0,0.0,0.0,0.0,0.0,0.0,0.0,0.0,0.0,0.0,0.0,0.0,0.0,0.0,0.0,0.0,0.0,0.0,0.0,0.0,0.0,0.0,0.0,0.0,0.0,0.0,0.0,0.0,0.0,0.0,0.0,0.0,0.0,0.0,0.0,0.0,0.0,0.0,0.0,0.0,0.0,0.0,0.0,0.0,0.0,0.0,0.0,0.0,0.0,0.0,0.0,0.0,0.0,0.0,0.0,0.0,0.0,0.0,0.0,0.0,0.0,0.0,0.0,0.0,0.0,0.0,0.0,0.0,0.0,0.0,0.0,0.0,0.0,0.0,0.0,0.0,0.0,0.0,0.0,0.0,0.0,0.0,0.0,0.0,0.0,0.0,0.0,0.0,0.0,0.0,0.0,0.0,0.0,0.0,0.0,0.0,0.0,0.0,0.0,0.0,0.0,0.0,0.0,0.0,0.0,0.0,0.0,0.0,0.0,0.0,0.0,0.0,0.0,0.0,0.0,0.0,0.0,0.0,0.0,0.0,0.0,0.0,0.0,0.0,0.0,0.0,0.0,0.0,0.0,0.0,0.0,0.0,0.0,0.0,0.0,0.0,0.0,0.0,0.0,0.0,0.0,0.0,0.0,0.0,0.0,0.0,0.0,0.0,0.0,0.0,0.0,0.0,0.0,0.0,0.0,0.0,0.0,0.0,0.0,0.0,0.0,0.0,0.0,0.0,0.0,0.0,0.0,0.0,0.0,0.0,0.0,0.0,0.0,0.0,0.0,0.0,0.0,0.0,0.0,0.0,0.0,0.0,0.0,0.0,0.0,0.0,0.0,0.0,0.0,0.0,0.0,0.0,0.0,0.0,0.0,0.0,0.0,0.0,0.0,0.0,0.0,0.0,0.0,0.0,0.0,0.0,0.0,0.0,0.0,0.0,0.0,0.0,0.0,0.0,0.0,0.0,0.0,0.0,0.0,0.0,0.0,0.0,0.0,0.0,0.0,0.0,0.0,0.0,0.0,0.0,0.0,0.0,0.0,0.0,0.0,0.0,0.0,0.0,0.0,0.0,0.0,0.0,0.0,0.0,0.0,0.0,0.0,0.0,0.0,0.0,0.0,0.0,0.0,0.0,0.0,0.0,0.0,0.0,0.0,0.0,0.0,0.0,0.0,0.0,0.0,0.0,0.0,0.0,0.0,0.0,0.0,0.0,0.0,0.0,0.0,0.0,0.0,0.0,0.0,0.0,0.0,0.0,0.0,0.0,0.0,0.0,0.0,0.0,0.0,0.0,0.0,0.0,0.0,0.0,0.0,0.0,0.0,0.0,0.0,0.0,0.0,0.0,0.0,0.0,0.0,0.0,0.0,0.0,0.0,0.0,0.0,0.0,0.0,0.0,0.0,0.0,0.0,0.0,0.0,0.0,0.0,0.0,0.0,0.0,0.0,0.0,0.0,0.0,0.0,0.0,0.0,0.0,0.0,0.0,0.0,0.0,0.0,0.0,0.0,0.0,0.0,0.0,0.0,0.0,0.0,0.0,0.0,0.0,0.0,0.0,0.0,0.0,0.0,0.0,0.0,0.0,0.0,0.0,0.0,0.0,0.0,0.0,0.0,0.0,0.0,0.0,0.0,0.0,0.0,0.0,0.0,0.0,0.0,0.0,0.0,0.0,0.0,0.0,0.0,0.0,0.0,0.0,0.0,0.0,0.0,0.0,0.0,0.0,0.0,0.0,0.0,0.0,0.0,0.0,0.0,0.0,0.0,0.0,0.0,0.0,0.0,0.0,0.0,0.0,0.0,0.0,0.0,0.0,0.0,0.0,0.0,0.0,0.0,0.0,0.0,0.0,0.0,0.0,0.0,0.0,0.0,0.0,0.0,0.0,0.0,0.0,0.0,0.0,0.0,0.0,0.0,0.0,0.0,0.0,0.0,0.0,0.0,0.0,0.0,0.0,0.0,0.0,0.0,0.0,0.0,0.0,0.0,0.0,0.0,0.0,0.0,0.0,0.0,0.0,0.0,0.0,0.0,0.0,0.0,0.0,0.0,0.0,0.0,0.0,0.0,0.0,0.0,0.0,0.0,0.0,0.0,0.0,0.0,0.0,0.0,0.0,0.0,0.0,0.0,0.0,0.0,0.0,0.0,0.0,0.0,0.0,0.0,0.0,0.0,0.0,0.0,0.0,0.0,0.0,0.0,0.0,0.0,0.0,0.0,0.0,0.0,0.0,0.0,0.0,0.0,0.0,0.0,0.0,0.0,0.0,0.0,0.0,0.0,0.0,0.0,0.0,0.0,0.0,0.0,0.0,0.0,0.0,0.0,0.0,0.0,0.0,0.0,0.0,0.0,0.0,0.0,0.0,0.0,0.0,0.0,0.0,0.0,0.0,0.0,0.0,0.0,0.0,0.0,0.0,0.0,0.0,0.0,0.0,0.0,0.0,0.0,0.0,0.0,0.0,0.0,0.0,0.0,0.0,0.0,0.0,0.0,0.0,0.0,0.0,0.0,0.0,0.0,0.0,0.0,0.0,0.0,0.0,0.0,0.0,0.0,0.0,0.0,0.0,0.0,0.0,0.0,0.0,0.0,0.0,0.0,0.0,0.0,0.0,0.0,0.0,0.0,0.0,0.0,0.0,0.0,0.0,0.0,0.0,0.0,0.0,0.0,0.0,0.0,0.0,0.0,0.0,0.0,0.0,0.0,0.0,0.0,0.0,0.0,0.0,0.0,0.0,0.0,0.0,0.0,0.0,0.0,0.0,0.0,0.0,0.0,0.0,0.0,0.0,0.0,0.0,0.0,0.0,0.0,0.0,0.0,0.0,0.0,0.0,0.0,0.0,0.0,0.0,0.0,0.0,0.0,0.0,0.0,0.0,-2.0787,0.0,0.0,0.0,0.0,0.0,0.0,0.0,0.0,0.0,0.0,0.0,0.0,0.0,0.0,0.0,0.0,0.0,0.0,0.0,0.0,0.0,0.0,0.0,0.0,0.0,0.0,0.0,0.0,0.0,0.0,0.0,0.0,0.0,0.0,0.0,0.0,0.0,0.0,0.0,0.0,0.0,0.0,0.0,0.0,0.0,0.0,0.0,0.0,0.0,0.0,0.0,0.0,0.0,0.0,0.0,0.0,0.0,0.0,0.0,0.0,0.0,0.0,0.0,0.0,0.0,0.0,0.0,0.0,0.0,0.0,0.0,0.0,0.0,0.0,0.0,0.0,0.0,0.0,0.0,0.0,0.0,0.0,0.0,0.0,0.0,0.0,0.0,0.0,0.0,0.0,0.0,0.0,0.0,0.0,0.0,0.0,0.0,0.0,0.0,0.0,0.0,0.0,0.0,0.0,0.0,0.0,0.0,0.0,0.0,0.0,-2.1665,-2.1675,-2.1382,-2.1334,-2.1334,0.0,0.0,0.0,0.0,0.0,0.0,0.0,0.0,0.0,0.0,0.0,0.0,0.0,0.0,0.0,0.0,0.0,0.0,0.0,0.0,0.0,0.0,0.0,0.0,0.0,0.0,0.0,0.0,0.0,0.0,0.0,0.0,0.0,0.0,0.0,0.0,0.0,0.0,0.0,0.0,0.0,0.0,0.0,0.0,0.0,0.0,0.0,0.0,0.0,0.0,0.0,0.0,0.0,0.0,0.0,0.0,0.0,0.0,0.0,0.0,0.0,0.0,0.0,0.0,0.0,0.0,0.0,0.0,0.0,0.0,0.0,0.0,0.0,0.0,0.0,0.0,0.0,0.0,0.0,0.0,0.0,0.0,0.0,0.0,0.0,0.0,0.0,0.0,0.0,0.0,0.0,0.0,0.0,0.0,0.0,0.0,0.0,0.0,0.0,0.0,0.0,0.0,0.0,0.0,0.0,0.0,0.0,0.0,0.0,0.0,0.0,0.0,-2.2015,-2.1737,-2.1591,0.0,0.0,0.0,0.0,0.0,0.0,0.0,0.0,0.0,0.0,0.0,0.0,0.0,0.0,0.0,0.0,0.0,0.0,0.0,0.0,0.0,0.0,0.0,0.0,0.0,0.0,0.0,0.0,0.0,0.0,0.0,0.0,0.0,0.0,0.0,0.0,0.0,0.0,0.0,0.0,0.0,0.0,0.0,0.0,0.0,0.0,0.0,0.0,0.0,0.0,0.0,0.0,0.0,0.0,0.0,0.0,0.0,0.0,0.0,0.0,0.0,0.0,0.0,0.0,0.0,0.0,0.0,0.0,0.0,0.0,0.0,0.0,0.0,0.0,0.0,0.0,0.0,0.0,0.0,0.0,0.0,0.0,0.0,0.0,0.0,0.0,0.0,0.0,0.0,0.0,0.0,0.0,0.0,0.0,0.0,0.0,0.0,0.0,0.0,0.0,0.0,0.0,0.0,0.0,0.0,0.0,0.0,0.0,0.0,0.0,-2.2725,-2.301,-2.244,0.0,-2.1298,0.0,0.0,0.0,0.0,0.0,0.0,0.0,0.0,0.0,0.0,0.0,0.0,0.0,0.0,0.0,0.0,0.0,0.0,0.0,0.0,0.0,0.0,0.0,0.0,0.0,0.0,0.0,0.0,0.0,0.0,0.0,0.0,0.0,0.0,0.0,0.0,0.0,0.0,0.0,0.0,0.0,0.0,0.0,0.0,0.0,0.0,0.0,0.0,0.0,0.0,0.0,0.0,0.0,0.0,0.0,0.0,0.0,0.0,0.0,0.0,0.0,0.0,0.0,0.0,0.0,0.0,0.0,0.0,0.0,0.0,0.0,0.0,0.0,0.0,0.0,0.0,0.0,0.0,0.0,0.0,0.0,0.0,0.0,0.0,0.0,0.0,0.0,0.0,0.0,0.0,0.0,0.0,0.0,0.0,0.0,0.0,0.0,0.0,0.0,0.0,0.0,0.0,0.0,0.0,0.0,0.0,0.0,0.0,0.0,0.0,-2.2689,-2.282,-2.222,-2.1679,0.0,0.0,0.0,0.0,0.0,0.0,0.0,0.0,0.0,0.0,0.0,0.0,0.0,0.0,0.0,0.0,0.0,0.0,0.0,0.0,0.0,0.0,0.0,0.0,0.0,0.0,0.0,0.0,0.0,0.0,0.0,0.0,0.0,0.0,0.0,0.0,0.0,0.0,0.0,0.0,0.0,0.0,0.0,0.0,0.0,0.0,0.0,0.0,0.0,0.0,0.0,0.0,0.0,0.0,0.0,0.0,0.0,0.0,0.0,0.0,0.0,0.0,0.0,0.0,0.0,0.0,0.0,0.0,0.0,0.0,0.0,0.0,0.0,0.0,0.0,0.0,0.0,0.0,0.0,0.0,0.0,0.0,0.0,0.0,0.0,0.0,0.0,0.0,0.0,0.0,0.0,0.0,0.0,0.0,0.0,0.0,0.0,0.0,0.0,0.0,0.0,0.0,0.0,0.0,0.0,0.0,0.0,0.0,0.0,0.0,-2.2623,-2.2535,-2.2359,-2.1935,-2.1547,-2.1218,0.0,0.0,0.0,0.0,0.0,0.0,0.0,0.0,0.0,0.0,0.0,0.0,0.0,0.0,0.0,0.0,0.0,0.0,0.0,0.0,0.0,0.0,0.0,0.0,0.0,0.0,0.0,0.0,0.0,0.0,0.0,0.0,0.0,0.0,0.0,0.0,0.0,0.0,0.0,0.0,0.0,0.0,0.0,0.0,0.0,0.0,0.0,0.0,0.0,0.0,0.0,0.0,0.0,0.0,0.0,0.0,0.0,0.0,0.0,0.0,0.0,0.0,0.0,0.0,0.0,0.0,0.0,0.0,0.0,0.0,0.0,0.0,0.0,0.0,0.0,0.0,0.0,0.0,0.0,0.0,0.0,0.0,0.0,0.0,0.0,0.0,0.0,0.0,0.0,0.0,0.0,0.0,0.0,0.0,0.0,0.0,0.0,0.0,0.0,0.0,0.0,0.0,0.0,0.0,0.0,0.0,0.0,0.0,-2.2608,-2.2615,-2.233,-2.1759,-2.1715,-2.1547,0.0,0.0,0.0,0.0,0.0,0.0,0.0,0.0,0.0,0.0,0.0,0.0,0.0,0.0,0.0,0.0,0.0,0.0,0.0,0.0,0.0,0.0,0.0,0.0,0.0,0.0,0.0,0.0,0.0,0.0,0.0,0.0,0.0,0.0,0.0,0.0,0.0,0.0,0.0,0.0,0.0,0.0,0.0,0.0,0.0,0.0,0.0,0.0,0.0,0.0,0.0,0.0,0.0,0.0,0.0,0.0,0.0,0.0,0.0,0.0,0.0,0.0,0.0,0.0,0.0,0.0,0.0,0.0,0.0,0.0,0.0,0.0,0.0,0.0,0.0,0.0,0.0,0.0,0.0,0.0,0.0,0.0,0.0,0.0,0.0,0.0,0.0,0.0,0.0,0.0,0.0,0.0,0.0,0.0,0.0,0.0,0.0,0.0,0.0,0.0,0.0,0.0,0.0,0.0,0.0,0.0,0.0,0.0,0.0,-2.2579,-2.2235,-2.1825,-2.1408,-2.1379,-2.1328,0.0,0.0,0.0,0.0,0.0,0.0,0.0,0.0,0.0,0.0,0.0,0.0,0.0,0.0,0.0,0.0,0.0,0.0,0.0,0.0,0.0,0.0,0.0,0.0,0.0,0.0,0.0,0.0,0.0,0.0,0.0,0.0,0.0,0.0,0.0,0.0,0.0,0.0,0.0,0.0,0.0,0.0,0.0,0.0,0.0,0.0,0.0,0.0,0.0,0.0,0.0,0.0,0.0,0.0,0.0,0.0,0.0,0.0,0.0,0.0,0.0,0.0,0.0,0.0,0.0,0.0,0.0,0.0,0.0,0.0,0.0,0.0,0.0,0.0,0.0,0.0,0.0,0.0,0.0,0.0,0.0,0.0,0.0,0.0,0.0,0.0,0.0,0.0,0.0,0.0,0.0,0.0,0.0,0.0,0.0,0.0,0.0,0.0,0.0,0.0,0.0,0.0,0.0,0.0,0.0,0.0,0.0,0.0,0.0,-2.2286,0.0,-2.143,-2.1225,-2.1211,-2.1211,0.0,0.0,0.0,0.0,0.0,0.0,0.0,0.0,0.0,0.0,0.0,0.0,0.0,0.0,0.0,0.0,0.0,0.0,0.0,0.0,0.0,0.0,0.0,0.0,0.0,0.0,0.0,0.0,0.0,0.0,0.0,0.0,0.0,0.0,0.0,0.0,0.0,0.0,0.0,0.0,0.0,0.0,0.0,0.0,0.0,0.0,0.0,0.0,0.0,0.0,0.0,0.0,0.0,0.0,0.0,0.0,0.0,0.0,0.0,0.0,0.0,0.0,0.0,0.0,0.0,0.0,0.0,0.0,0.0,0.0,0.0,0.0,0.0,0.0,0.0,0.0,0.0,0.0,0.0,0.0,0.0,0.0,0.0,0.0,0.0,0.0,0.0,0.0,0.0,0.0,0.0,0.0,0.0,0.0,0.0,0.0,0.0,0.0,0.0,0.0,0.0,0.0,0.0,0.0,0.0,0.0,0.0,0.0,-2.1686,-2.1679,-2.1386,-2.1218,-2.1203,-2.1196,-2.1211,0.0,0.0,0.0,0.0,0.0,0.0,0.0,0.0,0.0,0.0,0.0,0.0,0.0,0.0,0.0,0.0,0.0,0.0,0.0,0.0,0.0,0.0,0.0,0.0,0.0,0.0,0.0,0.0,0.0,0.0,0.0,0.0,0.0,0.0,0.0,0.0,0.0,0.0,0.0,0.0,0.0,0.0,0.0,0.0,0.0,0.0,0.0,0.0,0.0,0.0,0.0,0.0,0.0,0.0,0.0,0.0,0.0,0.0,0.0,0.0,0.0,0.0,0.0,0.0,0.0,0.0,0.0,0.0,0.0,0.0,0.0,0.0,0.0,0.0,0.0,0.0,0.0,0.0,0.0,0.0,0.0,0.0,0.0,0.0,0.0,0.0,0.0,0.0,0.0,0.0,0.0,0.0,0.0,0.0,0.0,0.0,0.0,0.0,0.0,0.0,0.0,0.0,0.0,0.0,0.0,0.0,0.0,0.0,0.0,-2.1035,-2.1145,-2.1101,-2.0896,-2.1086,-2.1211,0.0,0.0,0.0,0.0,0.0,0.0,0.0,0.0,0.0,0.0,0.0,0.0,0.0,0.0,0.0,0.0,0.0,0.0,0.0,0.0,0.0,0.0,0.0,0.0,0.0,0.0,0.0,0.0,0.0,0.0,0.0,0.0,0.0,0.0,0.0,0.0,0.0,0.0,0.0,0.0,0.0,0.0,0.0,0.0,0.0,0.0,0.0,0.0,0.0,0.0,0.0,0.0,0.0,0.0,0.0,0.0,0.0,0.0,0.0,0.0,0.0,0.0,0.0,0.0,0.0,0.0,0.0,0.0,0.0,0.0,0.0,0.0,0.0,0.0,0.0,0.0,0.0,0.0,0.0,0.0,0.0,0.0,0.0,0.0,0.0,0.0,0.0,0.0,0.0,0.0,0.0,0.0,0.0,0.0,0.0,0.0,0.0,0.0,0.0,0.0,0.0,0.0,0.0,0.0,0.0,0.0,0.0,0.0,0.0,-2.067,-2.0859,-2.0933,-2.0728,-2.0918,-2.1086,-2.1203,0.0,0.0,0.0,0.0,0.0,0.0,0.0,0.0,0.0,0.0,0.0,0.0,0.0,0.0,0.0,0.0,0.0,0.0,0.0,0.0,0.0,0.0,0.0,0.0,0.0,0.0,0.0,0.0,0.0,0.0,0.0,0.0,0.0,0.0,0.0,0.0,0.0,0.0,0.0,0.0,0.0,0.0,0.0,0.0,0.0,0.0,0.0,0.0,0.0,0.0,0.0,0.0,0.0,0.0,0.0,0.0,0.0,0.0,0.0,0.0,0.0,0.0,0.0,0.0,0.0,0.0,0.0,0.0,0.0,0.0,0.0,0.0,0.0,0.0,0.0,0.0,0.0,0.0,0.0,0.0,0.0,0.0,0.0,0.0,0.0,0.0,0.0,0.0,0.0,0.0,0.0,0.0,0.0,0.0,0.0,0.0,0.0,0.0,0.0,0.0,0.0,0.0,0.0,0.0,0.0,0.0,0.0,0.0,-2.0666,-2.0626,-2.0662,-2.0655,-2.0698,-2.0867,0.0,0.0,0.0,0.0,0.0,0.0,0.0,0.0,0.0,0.0,0.0,0.0,0.0,0.0,0.0,0.0,0.0,0.0,0.0,0.0,0.0,0.0,0.0,0.0,0.0,0.0,0.0,0.0,0.0,0.0,0.0,0.0,0.0,0.0,0.0,0.0,0.0,0.0,0.0,0.0,0.0,0.0,0.0,0.0,0.0,0.0,0.0,0.0,0.0,0.0,0.0,0.0,0.0,0.0,0.0,0.0,0.0,0.0,0.0,0.0,0.0,0.0,0.0,0.0,0.0,0.0,0.0,0.0,0.0,0.0,0.0,0.0,0.0,0.0,0.0,0.0,0.0,0.0,0.0,0.0,0.0,0.0,0.0,0.0,0.0,0.0,0.0,0.0,0.0,0.0,0.0,0.0,0.0,0.0,0.0,0.0,0.0,0.0,0.0,0.0,0.0,0.0,0.0,0.0,0.0,0.0,0.0,0.0,0.0,-2.1,-2.0725,-2.0535,-2.0342,-2.0795,-2.0981,0.0,0.0,0.0,0.0,0.0,0.0,0.0,0.0,0.0,0.0,0.0,0.0,0.0,0.0,0.0,0.0,0.0,0.0,0.0,0.0,0.0,0.0,0.0,0.0,0.0,0.0,0.0,0.0,0.0,0.0,0.0,0.0,0.0,0.0,0.0,0.0,0.0,0.0,0.0,0.0,0.0,0.0,0.0,0.0,0.0,0.0,0.0,0.0,0.0,0.0,0.0,0.0,0.0,0.0,0.0,0.0,0.0,0.0,0.0,0.0,0.0,0.0,0.0,0.0,0.0,0.0,0.0,0.0,0.0,0.0,0.0,0.0,0.0,0.0,0.0,0.0,0.0,0.0,0.0,0.0,0.0,0.0,0.0,0.0,0.0,0.0,0.0,0.0,0.0,0.0,0.0,0.0,0.0,0.0,0.0,0.0,0.0,0.0,0.0,0.0,0.0,0.0,0.0,0.0,0.0,0.0,0.0,0.0,-2.1182,-2.1202,-2.084,-2.0488,-2.0286,-2.0715,-2.0907,0.0,0.0,0.0,0.0,0.0,0.0,0.0,0.0,0.0,0.0,0.0,0.0,0.0,0.0,0.0,0.0,0.0,0.0,0.0,0.0,0.0,0.0,0.0,0.0,0.0,0.0,0.0,0.0,0.0,0.0,0.0,0.0,0.0,0.0,0.0,0.0,0.0,0.0,0.0,0.0,0.0,0.0,0.0,0.0,0.0,0.0,0.0,0.0,0.0,0.0,0.0,0.0,0.0,0.0,0.0,0.0,0.0,0.0,0.0,0.0,0.0,0.0,0.0,0.0,0.0,0.0,0.0,0.0,0.0,0.0,0.0,0.0,0.0,0.0,0.0,0.0,0.0,0.0,0.0,0.0,0.0,0.0,0.0,0.0,0.0,0.0,0.0,0.0,0.0,0.0,0.0,0.0,0.0,0.0,0.0,0.0,0.0,0.0,0.0,0.0,0.0,0.0,0.0,0.0,0.0,0.0,0.0,0.0,-2.1295,-2.1464,-2.0849,-2.0522,-2.0537,-2.0643,-2.0801,0.0,0.0,0.0,0.0,0.0,0.0,0.0,0.0,0.0,0.0,0.0,0.0,0.0,0.0,0.0,0.0,0.0,0.0,0.0,0.0,0.0,0.0,0.0,0.0,0.0,0.0,0.0,0.0,0.0,0.0,0.0,0.0,0.0,0.0,0.0,0.0,0.0,0.0,0.0,0.0,0.0,0.0,0.0,0.0,0.0,0.0,0.0,0.0,0.0,0.0,0.0,0.0,0.0,0.0,0.0,0.0,0.0,0.0,0.0,0.0,0.0,0.0,0.0,0.0,0.0,0.0,0.0,0.0,0.0,0.0,0.0,0.0,0.0,0.0,0.0,0.0,0.0,0.0,0.0,0.0,0.0,0.0,0.0,0.0,0.0,0.0,0.0,0.0,0.0,0.0,0.0,0.0,0.0,0.0,0.0,0.0,0.0,0.0,0.0,0.0,0.0,0.0,0.0,0.0,0.0,0.0,0.0,0.0,-2.1394,-2.1447,-2.1035,-2.0822,-2.083,-2.0963,-2.0914,0.0,0.0,0.0,0.0,0.0,0.0,0.0,0.0,0.0,0.0,0.0,0.0,0.0,0.0,0.0,0.0,0.0,0.0,0.0,0.0,0.0,0.0,0.0,0.0,0.0,0.0,0.0,0.0,0.0,0.0,0.0,0.0,0.0,0.0,0.0,0.0,0.0,0.0,0.0,0.0,0.0,0.0,0.0,0.0,0.0,0.0,0.0,0.0,-2.2892,0.0,0.0,0.0,0.0,0.0,0.0,0.0,0.0,0.0,0.0,0.0,0.0,0.0,0.0,0.0,0.0,0.0,0.0,0.0,0.0,0.0,0.0,0.0,0.0,0.0,0.0,0.0,0.0,0.0,0.0,0.0,0.0,0.0,0.0,0.0,0.0,0.0,0.0,0.0,0.0,0.0,0.0,0.0,0.0,0.0,0.0,0.0,0.0,0.0,0.0,0.0,0.0,0.0,0.0,0.0,0.0,0.0,0.0,0.0,-2.1577,-2.1449,-2.1107,-2.0822,-2.0743,-2.0963,-2.0992,0.0,0.0,0.0,0.0,0.0,0.0,0.0,0.0,0.0,0.0,0.0,0.0,0.0,0.0,0.0,0.0,0.0,0.0,0.0,0.0,0.0,0.0,0.0,0.0,0.0,0.0,0.0,0.0,0.0,0.0,0.0,0.0,0.0,0.0,0.0,0.0,0.0,0.0,0.0,0.0,0.0,0.0,0.0,0.0,0.0,0.0,0.0,0.0,0.0,0.0,0.0,0.0,0.0,0.0,0.0,0.0,0.0,0.0,0.0,0.0,0.0,0.0,0.0,0.0,0.0,0.0,0.0,0.0,0.0,0.0,0.0,0.0,0.0,0.0,0.0,0.0,0.0,0.0,0.0,0.0,0.0,0.0,0.0,0.0,0.0,0.0,0.0,0.0,0.0,0.0,0.0,0.0,0.0,0.0,0.0,0.0,0.0,0.0,0.0,0.0,0.0,0.0,0.0,0.0,0.0,0.0,0.0,-2.2,-2.1767,-2.1377,-2.1076,-2.0846,-2.0607,-2.088,-2.1116,-2.1076,0.0,0.0,0.0,0.0,0.0,0.0,0.0,0.0,0.0,0.0,0.0,0.0,0.0,0.0,0.0,0.0,0.0,0.0,0.0,0.0,0.0,0.0,0.0,0.0,0.0,0.0,0.0,0.0,0.0,0.0,0.0,0.0,0.0,0.0,0.0,0.0,0.0,0.0,-1.7265,-1.9054,0.0,0.0,0.0,0.0,0.0,0.0,0.0,0.0,-2.3106,0.0,0.0,0.0,0.0,0.0,0.0,0.0,0.0,0.0,0.0,0.0,0.0,0.0,0.0,0.0,0.0,0.0,0.0,0.0,0.0,0.0,0.0,0.0,0.0,0.0,0.0,0.0,0.0,0.0,0.0,0.0,0.0,0.0,0.0,0.0,0.0,0.0,0.0,0.0,0.0,0.0,0.0,0.0,0.0,0.0,0.0,0.0,0.0,0.0,0.0,0.0,0.0,0.0,0.0,0.0,0.0,-2.1612,-2.1873,-2.1655,-2.1028,-2.0948,-2.0964,-2.095,-2.1002,-2.1122,-2.1085,0.0,0.0,0.0,0.0,0.0,0.0,0.0,0.0,0.0,0.0,0.0,0.0,0.0,0.0,0.0,0.0,0.0,0.0,0.0,0.0,0.0,0.0,0.0,0.0,0.0,0.0,0.0,0.0,0.0,0.0,0.0,0.0,0.0,0.0,0.0,0.0,0.0,0.0,0.0,-1.996,-2.0856,0.0,0.0,0.0,0.0,0.0,0.0,0.0,0.0,-2.3341,0.0,0.0,0.0,0.0,0.0,0.0,0.0,0.0,0.0,0.0,0.0,0.0,0.0,0.0,0.0,0.0,0.0,0.0,0.0,0.0,0.0,0.0,0.0,0.0,0.0,0.0,0.0,0.0,0.0,0.0,0.0,0.0,0.0,0.0,0.0,0.0,0.0,0.0,0.0,0.0,0.0,0.0,0.0,0.0,0.0,0.0,0.0,0.0,0.0,0.0,0.0,0.0,0.0,0.0,0.0,-2.1349,-2.1634,-2.1298,-2.0537,-2.0789,-2.0864,-2.0613,-2.0876,-2.0988,0.0,0.0,0.0,0.0,0.0,0.0,0.0,0.0,0.0,0.0,0.0,0.0,0.0,0.0,0.0,0.0,0.0,0.0,0.0,0.0,0.0,0.0,0.0,0.0,0.0,0.0,0.0,0.0,0.0,0.0,0.0,0.0,0.0,0.0,0.0,0.0,0.0,0.0,0.0,0.0,-2.0843,-2.1614,-2.2237,0.0,0.0,0.0,0.0,0.0,0.0,-2.3106,-2.3223,0.0,0.0,0.0,0.0,0.0,0.0,0.0,0.0,0.0,0.0,0.0,0.0,0.0,0.0,0.0,0.0,0.0,0.0,0.0,0.0,0.0,0.0,0.0,0.0,0.0,0.0,0.0,0.0,0.0,0.0,0.0,0.0,0.0,0.0,0.0,0.0,0.0,0.0,0.0,0.0,0.0,0.0,0.0,0.0,0.0,0.0,0.0,0.0,0.0,0.0,0.0,0.0,0.0,0.0,0.0,-2.1114,-2.1341,-2.104,-2.0323,-2.0709,-2.078,-2.0382,-2.0883,-2.0966,0.0,0.0,0.0,0.0,0.0,0.0,0.0,0.0,0.0,0.0,0.0,0.0,0.0,0.0,0.0,0.0,0.0,0.0,0.0,0.0,0.0,0.0,0.0,0.0,0.0,0.0,0.0,0.0,0.0,0.0,0.0,0.0,0.0,0.0,0.0,0.0,0.0,0.0,0.0,0.0,0.0,-2.2362,-2.2606,-2.3206,0.0,0.0,0.0,0.0,-2.3193,-2.3018,0.0,0.0,0.0,0.0,0.0,0.0,0.0,0.0,0.0,0.0,0.0,0.0,0.0,0.0,0.0,0.0,0.0,0.0,0.0,0.0,0.0,0.0,0.0,0.0,0.0,0.0,0.0,0.0,0.0,0.0,0.0,0.0,0.0,0.0,0.0,0.0,0.0,0.0,0.0,0.0,0.0,0.0,0.0,0.0,0.0,0.0,0.0,0.0,0.0,0.0,0.0,0.0,0.0,0.0,0.0,0.0,-2.1107,-2.1137,-2.1063,-2.0971,-2.0727,-2.0765,-2.1025,-2.1011,-2.1077,0.0,0.0,0.0,0.0,0.0,0.0,0.0,0.0,0.0,0.0,0.0,0.0,0.0,0.0,0.0,0.0,0.0,0.0,0.0,0.0,0.0,0.0,0.0,0.0,0.0,0.0,0.0,0.0,0.0,0.0,0.0,0.0,0.0,0.0,0.0,0.0,0.0,0.0,0.0,0.0,0.0,-2.2613,-2.2988,-2.3142,-2.3149,0.0,0.0,-2.2862,-2.31,-2.2826,0.0,0.0,0.0,0.0,0.0,0.0,0.0,0.0,0.0,0.0,0.0,0.0,0.0,0.0,0.0,0.0,0.0,0.0,0.0,0.0,0.0,0.0,0.0,0.0,0.0,0.0,0.0,0.0,0.0,0.0,0.0,0.0,0.0,0.0,0.0,0.0,0.0,0.0,0.0,0.0,0.0,0.0,0.0,0.0,0.0,0.0,0.0,0.0,0.0,0.0,0.0,0.0,0.0,0.0,0.0,-2.1269,-2.0951,-2.1018,-2.0963,-2.0565,-2.0813,-2.0861,-2.0929,-2.1009,-2.1171,0.0,0.0,0.0,0.0,0.0,0.0,0.0,0.0,0.0,0.0,0.0,0.0,0.0,0.0,0.0,0.0,0.0,0.0,0.0,0.0,0.0,0.0,0.0,0.0,0.0,0.0,0.0,0.0,0.0,0.0,0.0,0.0,0.0,0.0,0.0,0.0,0.0,0.0,0.0,0.0,0.0,0.0,-2.2864,-2.2835,0.0,0.0,0.0,-2.2374,-2.2517,0.0,0.0,0.0,0.0,0.0,0.0,0.0,0.0,0.0,0.0,0.0,0.0,0.0,0.0,0.0,0.0,0.0,0.0,0.0,0.0,0.0,0.0,0.0,0.0,0.0,0.0,0.0,0.0,0.0,0.0,0.0,0.0,0.0,0.0,0.0,0.0,0.0,0.0,0.0,0.0,0.0,0.0,0.0,0.0,0.0,0.0,0.0,0.0,0.0,0.0,0.0,0.0,0.0,0.0,0.0,0.0,0.0,-2.0852,-2.0988,-2.0863,-2.0486,-2.0744,-2.0981,-2.0845,-2.1086,0.0,0.0,0.0,0.0,0.0,0.0,0.0,0.0,0.0,0.0,0.0,0.0,0.0,0.0,0.0,0.0,0.0,0.0,0.0,0.0,0.0,0.0,0.0,0.0,0.0,0.0,0.0,-1.4441,0.0,0.0,0.0,0.0,0.0,0.0,0.0,0.0,0.0,0.0,0.0,0.0,0.0,0.0,-2.2893,-2.2652,-2.2564,-2.2432,0.0,0.0,-2.2074,-2.22,-2.2315,-2.252,0.0,0.0,0.0,0.0,0.0,0.0,0.0,0.0,0.0,0.0,0.0,0.0,0.0,0.0,0.0,0.0,0.0,0.0,0.0,0.0,0.0,0.0,0.0,0.0,0.0,0.0,0.0,0.0,0.0,0.0,0.0,0.0,0.0,0.0,0.0,0.0,0.0,0.0,0.0,0.0,0.0,0.0,0.0,0.0,0.0,0.0,0.0,0.0,0.0,0.0,0.0,0.0,0.0,0.0,0.0,-2.1181,-2.0874,-2.0859,-2.1115,-2.0867,-2.0867,-2.1167,-2.1196,-2.1211,0.0,0.0,0.0,0.0,0.0,0.0,0.0,0.0,0.0,0.0,0.0,0.0,0.0,0.0,0.0,0.0,0.0,0.0,0.0,0.0,0.0,0.0,0.0,0.0,0.0,0.0,0.0,0.0,0.0,0.0,0.0,0.0,0.0,0.0,0.0,0.0,0.0,0.0,0.0,0.0,0.0,-2.2645,-2.2623,-2.2389,-2.2206,0.0,0.0,-2.1869,-2.2141,-2.2001,-2.2198,-2.2924,0.0,0.0,0.0,0.0,0.0,0.0,0.0,0.0,0.0,0.0,0.0,0.0,0.0,0.0,0.0,0.0,0.0,0.0,0.0,0.0,0.0,0.0,0.0,0.0,0.0,0.0,0.0,0.0,0.0,0.0,0.0,0.0,0.0,0.0,0.0,0.0,0.0,0.0,0.0,0.0,0.0,0.0,0.0,0.0,0.0,0.0,0.0,0.0,0.0,0.0,0.0,0.0,0.0,-2.154,-2.1218,-2.1094,-2.1086,-2.1203,-2.1086,-2.1086,-2.1203,-2.1211,-2.1211,0.0,0.0,0.0,0.0,0.0,0.0,0.0,0.0,0.0,0.0,0.0,0.0,0.0,0.0,0.0,0.0,0.0,0.0,0.0,0.0,0.0,0.0,0.0,0.0,0.0,0.0,0.0,0.0,-1.5791,-1.615,-1.72,0.0,0.0,0.0,0.0,0.0,0.0,0.0,0.0,0.0,0.0,-2.2484,-2.2103,-2.195,0.0,0.0,-2.1481,-2.1524,-2.1538,-2.184,-2.2184,-2.2609,-2.2978,0.0,0.0,0.0,0.0,0.0,0.0,0.0,0.0,0.0,0.0,0.0,0.0,0.0,0.0,0.0,0.0,0.0,0.0,0.0,0.0,0.0,0.0,0.0,0.0,0.0,0.0,0.0,0.0,0.0,0.0,0.0,0.0,0.0,0.0,0.0,0.0,0.0,0.0,0.0,0.0,0.0,0.0,0.0,0.0,0.0,0.0,0.0,0.0,0.0,0.0,0.0,0.0,-2.1635,-2.1211,-2.1211,-2.1211,-2.1211,-2.1211,-2.1211,-2.1211,-2.1211,-2.1211,0.0,0.0,0.0,0.0,0.0,0.0,0.0,0.0,0.0,0.0,0.0,0.0,0.0,0.0,0.0,0.0,0.0,0.0,0.0,0.0,0.0,0.0,0.0,0.0,0.0,0.0,0.0,0.0,-1.7182,-1.7734,-1.876,0.0,0.0,0.0,0.0,0.0,0.0,0.0,0.0,0.0,0.0,-2.2184,-2.1759,-2.1613,-2.1467,-2.1247,-2.1211,-2.1247,-2.1342,-2.1818,-2.234,-2.2586,0.0,0.0,0.0,0.0,0.0,0.0,0.0,0.0,0.0,0.0,0.0,0.0,0.0,0.0,0.0,0.0,0.0,0.0,0.0,0.0,0.0,0.0,0.0,0.0,0.0,0.0,0.0,0.0,0.0,0.0,-2.2074,0.0,0.0,0.0,0.0,0.0,0.0,0.0,0.0,0.0,0.0,0.0,0.0,0.0,0.0,0.0,0.0,0.0,0.0,0.0,0.0,0.0,0.0,-2.1854,-2.1225,-2.1211,-2.1211,-2.1211,-2.1211,-2.1211,-2.1211,-2.1211,-2.1211,-2.1211,0.0,0.0,0.0,0.0,0.0,0.0,0.0,0.0,0.0,0.0,0.0,0.0,0.0,0.0,0.0,0.0,0.0,0.0,0.0,0.0,0.0,0.0,0.0,0.0,0.0,0.0,-1.7405,-1.8279,-1.9149,0.0,0.0,0.0,0.0,0.0,0.0,0.0,0.0,0.0,0.0,-2.2096,-2.1715,-2.1693,-2.1423,-2.1225,-2.1211,-2.1211,-2.132,-2.1744,-2.1957,-2.2414,0.0,0.0,0.0,0.0,0.0,0.0,0.0,0.0,0.0,0.0,0.0,0.0,0.0,0.0,0.0,0.0,0.0,0.0,0.0,0.0,0.0,0.0,0.0,0.0,0.0,0.0,0.0,-2.166,-2.1561,0.0,0.0,0.0,0.0,0.0,0.0,0.0,0.0,0.0,0.0,0.0,-2.0651,-2.0651,0.0,0.0,0.0,0.0,0.0,0.0,0.0,0.0,0.0,0.0,0.0,0.0,-2.1972,-2.154,-2.1313,-2.1211,-2.1211,-2.1211,-2.1211,-2.1211,-2.1211,-2.1211,-2.1211,0.0,0.0,0.0,0.0,0.0,0.0,0.0,0.0,0.0,0.0,0.0,0.0,0.0,0.0,0.0,0.0,0.0,0.0,0.0,0.0,0.0,0.0,0.0,0.0,0.0,-1.9418,0.0,0.0,0.0,0.0,0.0,0.0,0.0,0.0,0.0,0.0,0.0,-2.24,-2.2367,-2.1964,-2.1613,-2.1401,-2.1284,-2.1211,0.0,0.0,0.0,0.0,0.0,0.0,0.0,0.0,0.0,0.0,0.0,0.0,0.0,0.0,-2.2952,-2.3362,-2.3442,-2.3362,-2.2584,0.0,0.0,0.0,0.0,0.0,0.0,0.0,0.0,0.0,0.0,0.0,0.0,0.0,0.0,-2.0967,0.0,-2.132,0.0,0.0,0.0,0.0,0.0,0.0,0.0,0.0,-2.0937,-2.0666,-2.0234,-2.0234,-2.0234,0.0,-2.0428,-2.0745,0.0,0.0,0.0,0.0,0.0,0.0,0.0,0.0,-2.1846,-2.154,-2.132,-2.1211,-2.1211,-2.1211,-2.1211,-2.1211,-2.1211,-2.1211,-2.1211,-2.1211,-2.1357,0.0,0.0,0.0,0.0,0.0,0.0,0.0,0.0,0.0,0.0,0.0,0.0,0.0,0.0,0.0,0.0,0.0,0.0,0.0,0.0,0.0,0.0,0.0,-2.0048,0.0,0.0,0.0,0.0,0.0,0.0,0.0,0.0,0.0,-2.237,-2.2298,-2.2096,-2.2052,-2.173,-2.1452,-2.124,0.0,0.0,0.0,0.0,0.0,0.0,0.0,-2.1613,-2.1847,-2.203,-2.2049,-2.2184,-2.2184,-2.2184,-2.2184,0.0,0.0,-2.2992,-2.3074,-2.2877,-2.2362,-2.204,-2.1982,-2.2213,-2.2184,-2.2147,0.0,0.0,0.0,0.0,0.0,0.0,0.0,0.0,-1.9421,-1.9876,0.0,-2.0879,0.0,0.0,0.0,0.0,0.0,-2.1403,0.0,0.0,-2.0469,-2.0214,-2.0194,-2.0187,-2.0201,-2.0207,-2.0207,-2.0221,-2.0254,-2.1169,0.0,0.0,0.0,0.0,0.0,0.0,-2.1486,-2.1147,-2.1218,-2.1211,-2.1203,-2.1203,-2.1211,-2.1203,-2.1211,-2.1211,-2.1211,-2.1211,-2.135,-2.1664,-2.1608,0.0,0.0,0.0,0.0,0.0,0.0,0.0,0.0,0.0,0.0,0.0,0.0,0.0,0.0,0.0,0.0,0.0,0.0,0.0,0.0,-2.0246,0.0,0.0,0.0,0.0,0.0,0.0,0.0,0.0,0.0,0.0,-2.1982,-2.2118,-2.2074,-2.1745,0.0,0.0,0.0,0.0,-2.1211,-2.1211,-2.1211,-2.132,-2.162,-2.1401,-2.137,-2.2074,0.0,0.0,-2.2013,-2.2147,-2.2132,-2.2147,-2.2118,-2.2296,-2.2849,-2.3029,-2.2886,-2.2303,-2.1611,-2.147,-2.2006,-2.2081,-2.2023,-1.5951,0.0,0.0,0.0,0.0,-1.6804,-1.7025,-1.7353,-1.8036,-1.8605,-1.9074,-1.9594,0.0,0.0,0.0,0.0,0.0,0.0,-2.0369,-2.0174,-1.996,-1.9813,-1.9619,-1.9619,-1.9613,-1.9619,-1.9826,-1.992,-1.9947,-2.0416,-2.0711,-2.092,0.0,0.0,0.0,0.0,-2.1237,-2.0971,-2.0845,-2.0838,-2.0845,-2.1089,-2.1089,-2.0838,-2.0615,-2.05,-2.0507,-2.0507,-2.0665,-2.0758,-2.0939,0.0,0.0,0.0,0.0,0.0,0.0,0.0,0.0,0.0,0.0,0.0,0.0,0.0,0.0,0.0,0.0,0.0,0.0,0.0,-2.0994,-2.1087,-2.1239,0.0,0.0,0.0,0.0,0.0,0.0,0.0,0.0,0.0,-2.0821,-2.0788,-2.0927,0.0,0.0,-2.096,-2.1203,-2.1211,-2.1211,-2.1211,-2.1211,0.0,-2.1335,-2.122,-2.1256,-2.1474,-2.1351,-2.1227,-2.1481,-2.1489,-2.1489,-2.1496,-2.1489,-2.1496,-2.1772,-2.2149,-2.2208,-2.1633,-2.1289,-2.1217,-2.1416,-2.1489,-2.1474,-1.5021,-1.5061,-1.5479,-1.5558,-1.5445,-1.5789,-1.6014,-1.6003,-1.69,-1.7569,-1.804,-1.8897,-1.9521,-1.9945,-2.0371,0.0,0.0,0.0,-1.9967,-1.9793,-1.9679,-1.9539,-1.9372,-1.9366,-1.9366,-1.9372,-1.9546,-1.9626,-1.9639,-1.992,-2.0154,-2.0334,0.0,0.0,-2.0814,-2.087,-2.0739,-2.0557,-2.0592,-2.0493,-2.0608,-2.0737,-2.0737,-2.05,-2.0385,-2.027,-2.027,-2.027,-2.027,-2.0277,-2.0447,-2.0503,0.0,0.0,0.0,0.0,0.0,0.0,0.0,0.0,0.0,0.0,0.0,-2.1975,-2.2251,0.0,0.0,0.0,-2.155,-2.1309,-2.1129,-2.1269,0.0,0.0,0.0,0.0,0.0,0.0,0.0,-2.0715,-2.0711,-2.0632,-2.026,-2.0298,-2.044,-2.0805,-2.0614,-2.0615,-2.0967,0.0,-2.1132,-2.1379,-2.1401,-2.1452,-2.1576,-2.1329,-2.1162,-2.1162,-2.1271,-2.1342,-2.1225,-2.1211,-2.1211,-2.1211,-2.1211,-2.1211,-2.1211,-2.154,-2.1745,-2.1278,-2.1235,-2.1169,-2.124,-2.1211,-2.1211,-1.418,-1.3785,-1.4765,-1.5057,-1.4826,-1.5175,-1.5057,-1.4944,-1.6051,-1.6733,-1.7123,-1.8294,-1.9038,-1.9366,-1.9794,0.0,-2.0033,-1.988,-1.9766,-1.9746,-1.9486,-1.9366,-1.9366,-1.9366,-1.9366,-1.9366,-1.9392,-1.9399,-1.9426,-1.9706,-1.9826,-1.9813,-2.0067,-2.0187,-2.0287,-2.0274,-2.0234,-2.0162,-2.027,-2.0277,-2.027,-2.027,-2.0277,-2.027,-2.0277,-2.027,-2.027,-2.027,-2.0277,-2.0162,-2.0199,-2.0233,-2.0253,0.0,0.0,0.0,0.0,0.0,0.0,0.0,0.0,0.0,0.0,0.0,0.0,0.0,0.0,0.0,-2.1269,0.0,-2.1102,-2.1102,0.0,0.0,0.0,-2.1223,-2.149,-2.1042,-2.0702,-2.0681,0.0,0.0,-2.0234,-2.0241,-2.0273,-2.0308,-2.0347,-2.0456,-2.0679,-2.0816,-2.1025,-2.1569,-2.1737,-2.184,-2.2059,-2.1709,-2.1475,-2.1502,-2.1598,-2.1635,-2.1393,-2.132,-2.1298,-2.1328,-2.1291,-2.1298,-2.1169,-2.1205,-2.1247,-2.1161,-2.1247,-2.1218,-2.1211,-2.1211,-2.1211,-1.3856,-1.365,-1.3759,-1.3811,-1.3926,-1.3811,-1.4019,-1.4336,-1.4663,-1.5315,-1.6184,-1.6875,-1.7717,-1.8655,-1.879,-1.8854,-1.8854,-1.9018,-1.9096,-1.9096,-1.9276,-1.9366,-1.9366,-1.9366,-1.9366,-1.9379,-1.9586,-1.97,-1.9713,-1.9987,-2.0013,-1.9813,-1.9867,-1.9867,-1.9918,-1.9918,-1.9771,-1.9597,-1.9815,-2.004,-2.027,-2.004,-1.9931,-1.9924,-1.9707,-1.9597,-1.9597,-1.9597,-1.9591,-1.9597,-1.9665,-1.9582,-1.9589,-2.002,0.0,0.0,0.0,0.0,0.0,0.0,0.0,0.0,0.0,-2.173,-2.1657,0.0,-2.1296,0.0,-2.1149,-2.1102,-2.1102,-2.1102,0.0,0.0,-2.1149,-2.1136,-2.1203,-2.1089,-2.0922,-2.0702,-2.0465,-2.0202,-2.0254,-2.0645,-2.0732,-2.0287,-2.0499,-2.0732,-2.097,-2.1327,-2.1467,-2.1658,-2.1933,-2.2081,-2.1915,-2.2049,-2.2311,-2.2625,-2.2342,-2.2037,-2.1957,-2.195,-2.195,-2.195,-2.195,-2.1809,-2.1256,-2.121,-2.119,-2.1169,-2.1249,-2.1211,-2.1211,-2.1211,-2.1211,-1.3532,-1.3325,-1.3312,-1.3132,-1.3128,-1.3252,-1.3474,-1.366,-1.3998,-1.4576,-1.5367,-1.6286,-1.7201,-1.7941,-1.8181,-1.825,-1.8363,-1.8717,-1.8899,-1.9022,-1.9391,-1.9516,-1.9523,-1.9635,-1.9753,-1.976,-1.9913,-1.9993,-2.0007,-2.0154,-2.0154,-1.9993,-1.9993,-1.9993,-1.9987,-1.9867,-1.9659,-1.9372,-1.9597,-1.97,-1.9938,-1.9707,-1.9652,-1.9773,-1.9549,-1.9426,-1.9553,-1.9439,-1.9366,-1.9366,-1.9366,-1.9426,-1.9559,-1.9987,-2.0294,0.0,0.0,0.0,0.0,0.0,0.0,0.0,0.0,0.0,0.0,0.0,-2.1102,-2.1102,-2.1102,-2.1102,-2.1102,-2.1102,-2.1102,-2.1102,-2.1102,-2.1102,-2.1102,-2.0995,-2.0855,-2.0695,-2.0394,-2.0321,-2.0454,-2.0828,-2.1039,-2.0621,-2.0745,-2.089,-2.1001,-2.1194,-2.135,-2.1605,-2.1761,-2.2076,-2.232,-2.2486,-2.2708,-2.2983,-2.2667,-2.2337,-2.2213,-2.2184,-2.2184,-2.2184,-2.2184,-2.2049,-2.1752,-2.1637,-2.164,-2.1618,-2.1635,-2.1547,-2.1269,-2.1211,-2.1211,-1.3406,-1.2979,-1.316,-1.2903,-1.2548,-1.3037,-1.3057,-1.299,-1.3679,-1.426,-1.4826,-1.5977,-1.6675,-1.7244,-1.7626,-1.7885,-1.8123,-1.8514,-1.8898,-1.912,-1.9498,-1.9626,-1.9633,-1.9991,-2.0106,-2.0113,-2.0152,-2.0172,-2.0166,-2.0321,-2.0321,-2.0294,-2.0294,-2.0274,-2.0227,-2.002,-1.9773,-1.9486,-1.9446,-1.9439,-1.9479,-1.9439,-1.9559,-1.9826,-1.9606,-1.9599,-1.9833,-1.9613,-1.9479,-1.9479,-1.9472,-1.9593,-1.9846,-2.0127,-2.0408,0.0,-2.0949,0.0,0.0,0.0,0.0,0.0,0.0,0.0,0.0,-2.1102,-2.1102,-2.1102,-2.1102,-2.1102,-2.1102,-2.1102,-2.1102,-2.1102,-2.1102,-2.1102,-2.1096,-2.0882,-2.0735,-2.0735,-2.0453,-2.0447,-2.0735,-2.0955,-2.1102,-2.1069,-2.1056,-2.102,-2.0835,-2.0869,-2.108,-2.1547,-2.1575,-2.1913,-2.2652,-2.2598,-2.2623,-2.2791,-2.2718,-2.2471,-2.226,-2.2209,-2.2195,-2.2202,-2.2345,-2.233,-2.2301,-2.2286,-2.2242,-2.2235,-2.2303,-2.2083,-2.1459,-2.1298,-2.1262,-1.3512,-1.3409,-1.3216,-1.3013,-1.2908,-1.2857,-1.2847,-1.3098,-1.3458,-1.4043,-1.4845,-1.5184,-1.5548,-1.5968,-1.6515,-1.6748,-1.681,-1.7863,-1.8356,-1.8404,-1.901,-1.9248,-1.9248,-1.937,-1.9363,-1.9383,-1.9983,-2.023,-2.023,-2.0704,-2.0822,-2.0601,-2.0595,-2.0474,-2.0254,0.0,0.0,0.0,-1.984,-1.9826,-2.0047,-1.984,-1.9853,-2.014,-2.01,0.0,-2.0147,-2.01,-2.0067,-2.0067,-2.0067,0.0,0.0,0.0,0.0,0.0,0.0,0.0,0.0,0.0,0.0,0.0,-2.1189,-2.1169,-2.1109,-2.1102,-2.1102,-2.1102,-2.1102,-2.1102,-2.1102,-2.1102,-2.1102,-2.1102,-2.1102,-2.1102,-2.1102,-2.1049,-2.1029,-2.1029,-2.1022,-2.0889,-2.1015,-2.1082,-2.1102,-2.1102,-2.1102,-2.1069,-2.1074,-2.1152,-2.145,-2.1644,-2.161,-2.1888,-2.223,-2.2097,-2.2076,-2.2277,-2.2277,-2.2235,-2.2171,-2.2288,-2.2551,-2.2536,-2.2813,-2.2923,-2.2923,-2.2877,-2.2822,-2.2542,-2.2645,-2.2625,-2.1818,-2.1606,-2.1525,-1.3407,0.0,-1.3063,-1.2994,0.0,-1.2745,-1.2655,-1.2759,-1.291,-1.3339,-1.4006,-1.4351,-1.47,-1.5052,-1.5529,-1.5958,-1.6555,-1.7292,-1.7792,-1.8166,-1.8793,-1.9162,-1.9168,-1.9543,-1.9668,-1.9674,-1.9946,-2.0274,-2.0407,-2.0663,-2.0916,-2.0889,-2.0889,-2.0815,-2.0675,-2.0815,-2.0742,-2.0454,-2.016,-2.0087,-2.0221,-2.0087,-2.0154,-2.0434,-2.0307,0.0,0.0,0.0,0.0,0.0,0.0,0.0,0.0,0.0,0.0,-2.0882,-2.1029,-2.1102,-2.1102,-2.1102,-2.1102,-2.1102,-2.1102,-2.1102,-2.1102,-2.1102,-2.1102,-2.1102,-2.1102,-2.1102,-2.1102,-2.1102,-2.1102,-2.1102,-2.1102,-2.1102,-2.1102,-2.1102,-2.1102,-2.1102,-2.1102,-2.1102,-2.1102,-2.1102,-2.1102,-2.1102,-2.1102,-2.1116,-2.1102,-2.1229,-2.1362,-2.1355,-2.1348,-2.1461,-2.158,-2.1713,-2.1699,-2.1685,-2.1825,-2.2104,-2.2104,-2.2237,-2.2355,-2.2362,-2.248,-2.2613,-2.2745,-2.2915,-2.2937,-2.2617,-2.2784,-2.2852,-2.2242,-2.2045,-2.184,-1.3289,-1.3077,-1.2894,-1.2727,-1.2613,-1.2653,-1.2479,-1.2341,0.0,0.0,0.0,-1.3444,-1.3802,-1.4236,-1.4524,-1.5251,-1.6271,-1.6694,-1.7196,-1.7905,-1.8553,-1.8822,-1.8944,-1.9596,-1.9851,-1.9851,-1.9973,-2.01,-2.0475,-2.0482,-2.0736,-2.0982,-2.1109,-2.1102,-2.1102,-2.1102,-2.0989,-2.0748,-2.0461,-2.0334,-2.0388,-2.0334,-2.0454,-2.0742,-2.0514,-2.0501,-2.0742,-2.0521,-2.0388,-2.0388,-2.0388,-2.0501,-2.0735,-2.0755,-2.0855,-2.1082,-2.1102,-2.1102,-2.1102,-2.1102,-2.1102,-2.1102,-2.1102,-2.1102,-2.1102,-2.1102,-2.1102,-2.1102,-2.1102,-2.1102,-2.1102,-2.1102,-2.1102,-2.1102,-2.1102,-2.1102,-2.1102,-2.1102,-2.1102,-2.1109,-2.1022,-2.1055,-2.1203,-2.1256,-2.1263,-2.1269,-2.1309,-2.1263,-2.1249,-2.1189,-2.1102,-2.1102,-2.1102,-2.1096,-2.1202,-2.1335,-2.1328,-2.1288,-2.1573,-2.1853,-2.1985,-2.1985,-2.1985,-2.1978,-2.2111,-2.2244,-2.2397,-2.2663,-2.2817,-2.2487,-2.2634,-2.2827,-2.253,-2.2399,-2.2122,-1.3237,-1.3127,-1.291,-1.2564,-1.2444,-1.2346,-1.2118,-1.1889,-1.2453,-1.2697,-1.2719,-1.2844,-1.295,-1.3273,-1.3688,-1.4262,-1.5003,-1.5703,-1.6457,-1.713,-1.7529,-1.7916,-1.8162,-1.8565,-1.8828,-1.8834,-1.9456,-1.9705,-1.9833,-2.0348,-2.0609,-2.0736,-2.0982,-2.1102,-2.1102,-2.1102,-2.1089,-2.1042,-2.0762,-2.0728,-2.0975,-2.0742,-2.0755,-2.1029,-2.1002,-2.1002,-2.1042,-2.0995,-2.0989,-2.0982,-2.0989,-2.1009,-2.1042,-2.1042,-2.1069,-2.1102,-2.1102,-2.1102,-2.1102,-2.1102,-2.1102,-2.1102,-2.1102,-2.1102,-2.1102,-2.1102,-2.1102,-2.1102,-2.1102,-2.1102,-2.1102,-2.1102,-2.1102,-2.1102,-2.1102,-2.1102,-2.1122,-2.1122,-2.1129,-2.1149,-2.1054,-2.1199,-2.1503,-2.1683,-2.181,-2.1837,-2.177,-2.183,-2.1737,-2.1423,-2.1136,-2.1102,-2.1102,-2.1102,-2.1096,-2.1096,-2.1229,-2.1089,-2.1222,-2.1355,-2.1355,-2.1481,-2.1607,-2.1607,-2.1859,-2.2111,-2.2118,-2.2244,-2.2251,-2.2104,-2.2244,-2.2201,-2.2131,-2.2206,-2.2146,-1.2964,-1.2844,-1.2599,-1.2359,-1.2238,-1.1872,-1.1639,-1.1522,-1.1635,-1.1752,-1.1885,-1.1857,-1.2123,-1.2678,-1.2995,-1.3691,-1.4526,-1.5144,-1.5704,-1.6224,-1.6872,-1.7271,-1.7518,-1.8045,-1.8437,-1.8577,-1.895,-1.92,-1.9577,-1.996,-2.0221,-2.0609,-2.0982,-2.1102,-2.1102,-2.1102,-2.1102,-2.1102,-2.0975,-2.0975,-2.1102,-2.0975,-2.0975,-2.1102,-2.1102,-2.1102,-2.1102,-2.1102,-2.1102,-2.1102,-2.1102,-2.1102,-2.1102,-2.1102,-2.1102,-2.1102,-2.1102,-2.1102,-2.1102,-2.1102,-2.1102,-2.1102,-2.1102,-2.1102,-2.1102,-2.1102,-2.1102,-2.1102,-2.1102,-2.1102,-2.1102,-2.1102,-2.1102,-2.1102,-2.1102,-2.1176,-2.1316,-2.1349,-2.141,-2.1557,-2.154,-2.1489,-2.1777,-2.2049,-2.2129,-2.1991,-2.1991,-2.1991,-2.1997,-2.1777,-2.1523,-2.139,-2.1349,-2.1269,-2.1149,-2.1102,-2.1102,-2.1102,-2.1102,-2.1102,-2.1102,-2.1235,-2.1355,-2.1362,-2.1488,-2.1481,-2.1607,-2.1607,-2.1607,-2.1734,-2.1713,-2.1706,-2.1971,-2.2104,-2.2068,-1.2599,-1.2599,-1.2242,-1.2118,-1.1997,-1.1394,-1.1148,-1.1148,-1.0789,-1.0789,-1.1054,-1.0964,-1.1378,-1.2047,-1.2355,-1.3047,-1.3997,-1.4408,-1.4796,-1.5448,-1.6224,-1.6618,-1.6877,-1.7518,-1.791,-1.8308,-1.8442,-1.8822,-1.9328,-1.9577,-1.9966,-2.0615,-2.0922,-2.1049,-2.1102,-2.1102,-2.1102,-2.1102,-2.1102,-2.1102,-2.1102,-2.1102,-2.1102,-2.1102,-2.1102,-2.1102,-2.1102,-2.1102,-2.1102,-2.1102,-2.1102,-2.1102,-2.1102,-2.1102,-2.1102,-2.1102,-2.1102,-2.1102,-2.1102,-2.1102,-2.1102,-2.1102,-2.1102,-2.1102,-2.1102,-2.1102,-2.1102,-2.1102,-2.1102,-2.1102,-2.1102,-2.1102,-2.1129,-2.1189,-2.1209,-2.1343,-2.1597,-2.165,-2.1724,-2.1944,-2.1885,-2.1932,-2.2091,-2.2291,-2.2358,-2.2225,-2.2184,-2.2184,-2.2184,-2.2184,-2.2064,-2.181,-2.165,-2.1463,-2.1102,-2.1136,-2.1109,-2.1102,-2.1102,-2.1102,-2.1102,-2.1102,-2.1102,-2.1109,-2.1109,-2.1102,-2.1102,-2.1102,-2.1229,-2.1481,-2.1335,-2.1321,-2.1727,-2.1859,-2.2041,-1.2238,-1.2238,-1.1889,-1.1897,-1.1772,-1.1156,-1.0785,-1.0539,-1.0422,-1.0304,-1.0443,-1.0845,-1.1132,-1.1426,-1.1845,-1.2409,-1.296,-1.3367,-1.4019,-1.48,-1.5062,-1.5448,-1.6099,-1.6748,-1.713,-1.7265,-1.805,-1.8583,-1.8723,-1.9352,-1.9979,-2.0514,-2.0863,-2.0998,-2.1156,-2.1122,-2.1116,-2.1109,-2.1102,-2.1102,-2.1102,-2.1102,-2.1102,-2.1102,-2.1102,-2.1102,-2.1102,-2.1102,-2.1102,-2.1102,-2.1102,-2.1102,-2.1102,-2.1102,-2.1102,-2.1102,-2.1102,-2.1102,-2.1102,-2.1102,-2.1102,-2.1102,-2.1102,-2.1102,-2.1102,-2.1102,-2.1102,-2.1116,-2.1109,-2.1102,-2.1102,-2.1122,-2.1243,-2.1483,-2.151,-2.1623,-2.1884,-2.1951,-2.1957,-2.1977,-2.2231,-2.2231,-2.2398,-2.2565,-2.2732,-2.2692,-2.2672,-2.2672,-2.2686,-2.2686,-2.2605,-2.2305,-2.1924,-2.1461,-2.1199,-2.1129,-2.1169,-2.1129,-2.1109,-2.1109,-2.1102,-2.1102,-2.1102,-2.1102,-2.1102,-2.1102,-2.1102,-2.1102,-2.1102,-2.1229,-2.1096,-2.1096,-2.1229,-2.1488,-2.1699,-1.1885,-1.1635,-1.1518,-1.1405,-1.1285,-1.0793,-1.055,-1.0425,-1.0186,-1.0065,-1.0082,-1.0352,-1.0635,-1.1053,-1.1301,-1.1845,-1.2309,-1.284,-1.3235,-1.3757,-1.4539,-1.5062,-1.5453,-1.6099,-1.6618,-1.7001,-1.74,-1.7995,-1.854,-1.934,-1.9942,-2.0472,-2.0973,-2.1215,-2.1371,-2.1494,-2.1543,-2.1376,-2.137,-2.1289,-2.1129,-2.1102,-2.1102,-2.1102,-2.1102,-2.1102,-2.1102,-2.1102,-2.1102,-2.1102,-2.1102,-2.1102,-2.1102,-2.1102,-2.1102,-2.1102,-2.1102,-2.1102,-2.1102,-2.1102,-2.1102,-2.1102,-2.1102,-2.1102,-2.1102,-2.1102,-2.1036,-2.1034,-2.1075,-2.1169,-2.1349,-2.1376,-2.149,-2.1737,-2.1804,-2.1924,-2.2205,-2.2245,-2.2298,-2.2472,-2.2599,-2.2672,-2.2692,-2.2786,-2.2859,-2.2866,-2.2866,-2.2866,-2.2866,-2.2866,-2.2819,-2.2665,-2.2325,-2.1866,-2.1378,-2.1272,-2.1261,-2.1188,-2.1075,-2.1109,-2.1109,-2.1102,-2.1102,-2.1102,-2.1102,-2.1102,-2.1102,-2.1102,-2.1102,-2.1102,-2.1102,-2.1102,-2.1102,-2.1229,-2.1355,-1.1522,-1.1152,-1.1031,-1.1035,-1.0921,-1.0429,-1.0186,-1.0311,-0.9943,-0.9819,-0.9836,-0.9981,-1.0232,-1.0626,-1.0914,-1.1336,-1.1644,-1.2309,-1.2572,-1.2836,-1.3884,-1.4412,-1.467,-1.5318,-1.5969,-1.6359,-1.6872,-1.7521,-1.8444,-1.9299,-1.9953,-2.0293,-2.087,-2.1269,-2.1456,-2.172,-2.1753,-2.1697,-2.167,-2.1563,-2.1376,-2.1276,-2.1196,-2.1116,-2.1102,-2.1102,-2.1102,-2.1102,-2.1102,-2.1102,-2.1102,-2.1102,-2.1102,-2.1102,-2.1102,-2.1102,-2.1102,-2.1102,-2.1102,-2.1102,-2.1102,-2.1102,-2.1102,-2.1102,-2.1122,-2.1182,-2.1182,-2.1064,-2.1281,-2.147,-2.176,-2.1807,-2.1797,-2.2058,-2.2104,-2.2225,-2.2492,-2.2545,-2.2619,-2.2826,-2.2819,-2.2866,-2.2859,-2.2859,-2.2866,-2.2866,-2.2866,-2.2866,-2.2866,-2.2866,-2.2859,-2.2859,-2.2665,-2.2284,-2.17,-2.1569,-2.154,-2.1232,-2.1202,-2.1229,-2.1149,-2.1109,-2.1102,-2.1102,-2.1102,-2.1102,-2.1102,-2.1102,-2.1102,-2.1102,-2.1102,-2.1102,-2.1102,-2.1102,-2.1102,-1.1152,-1.0789,-1.0425,-1.0554,-1.0808,-1.0068,-0.9822,-0.9825,-0.9822,-0.9819,-0.9842,-0.9848,-1.0053,-1.009,-1.076,-1.1105,-1.123,-1.1644,-1.2177,-1.2704,-1.2832,-1.3358,-1.401,-1.467,-1.4931,-1.5323,-1.6229,-1.7402,-1.833,-1.92,-1.9722,-1.9911,-2.0539,-2.1066,-2.1275,-2.1515,-2.1588,-2.1977,-2.1971,-2.1944,-2.1891,-2.1657,-2.1403,-2.1182,-2.1109,-2.1102,-2.1102,-2.1102,-2.1102,-2.1102,-2.1102,-2.1102,-2.1102,-2.1102,-2.1102,-2.1102,-2.1102,-2.1102,-2.1102,-2.1102,-2.1102,-2.1109,-2.1129,-2.1116,-2.1169,-2.139,-2.1414,-2.1129,-2.1653,-2.1937,-2.1991,-2.1984,-2.2091,-2.2352,-2.2398,-2.2532,-2.2792,-2.2799,-2.2839,-2.2859,-2.2866,-2.2866,-2.2866,-2.2866,-2.2866,-2.2866,-2.2866,-2.2866,-2.2866,-2.2866,-2.2866,-2.2866,-2.2819,-2.2875,-2.2748,-2.2304,-2.1726,-2.1384,-2.1401,-2.141,-2.1236,-2.1102,-2.1102,-2.1102,-2.1102,-2.1102,-2.1102,-2.1102,-2.1102,-2.1102,-2.1102,-2.1102,-2.1102,-2.1102,-2.1102,-1.0789,-1.0429,-1.0065,-1.0068,-1.0079,-0.9704,-0.9335,-0.9217,-0.922,-0.9339,-0.9464,-0.9513,-0.9711,-1.0059,-1.039,-1.0565,-1.0836,-1.1197,-1.1516,-1.1912,-1.2441,-1.2968,-1.3227,-1.3879,-1.4539,-1.4931,-1.5453,-1.6555,-1.7888,-1.8627,-1.9093,-1.972,-2.0335,-2.0878,-2.1071,-2.1597,-2.1919,-2.2017,-2.2131,-2.2171,-2.2011,-2.1884,-2.1777,-2.1663,-2.1303,-2.1102,-2.1102,-2.1102,-2.1102,-2.1102,-2.1102,-2.1102,-2.1102,-2.1102,-2.1102,-2.1102,-2.1102,-2.1102,-2.1102,-2.1102,-2.1102,-2.1116,-2.1296,-2.139,-2.1443,-2.1663,-2.1759,-2.1767,-2.2025,-2.2325,-2.2465,-2.2378,-2.2378,-2.2639,-2.2706,-2.2732,-2.2826,-2.2866,-2.2866,-2.2866,-2.2866,-2.2866,-2.2866,-2.2866,-2.2866,-2.2866,-2.2866,-2.2866,-2.2866,-2.2866,-2.2866,-2.2866,-2.2859,-2.2832,-2.2895,-2.26,-2.2164,-2.1884,-2.1683,-2.143,-2.1229,-2.1122,-2.1102,-2.1102,-2.1102,-2.1102,-2.1102,-2.1102,-2.1102,-2.1102,-2.1102,-2.1102,-2.1102,-2.1102,-2.1102,-1.0304,-0.994,-0.97,-0.9585,-0.9589,-0.9342,-0.8973,-0.8854,-0.8854,-0.8976,-0.9095,-0.9217,-0.9394,-0.962,-0.9886,-1.0032,-1.0303,-1.0754,-1.1115,-1.1247,-1.1909,-1.2309,-1.2572,-1.3227,-1.3748,-1.4291,-1.4871,-1.5879,-1.7177,-1.7845,-1.8487,-1.9256,-1.9825,-2.0388,-2.0804,-2.149,-2.1795,-2.192,-2.2159,-2.2324,-2.2144,-2.2178,-2.2124,-2.2058,-2.1643,-2.1343,-2.1256,-2.1162,-2.1102,-2.1102,-2.1102,-2.1102,-2.1102,-2.1102,-2.1102,-2.1102,-2.1102,-2.1102,-2.1122,-2.1203,-2.1256,-2.1263,-2.1523,-2.1697,-2.171,-2.1951,-2.2058,-2.2083,-2.237,-2.2659,-2.2759,-2.2536,-2.251,-2.2826,-2.2866,-2.2866,-2.2866,-2.2866,-2.2866,-2.2866,-2.2866,-2.2866,-2.2866,-2.2866,-2.2866,-2.2866,-2.2866,-2.2866,-2.2866,-2.2866,-2.2866,-2.2866,-2.2866,-2.2859,-2.2826,-2.2652,-2.2311,-2.2031,-2.185,-2.1557,-2.1236,-2.1142,-2.1102,-2.1102,-2.1102,-2.1102,-2.1102,-2.1102,-2.1102,-2.1102,-2.1102,-2.1102,-2.1102,-2.1102,-2.1102,-0.9579,-0.9335,-0.9335,-0.922,-0.9105,-0.8976,-0.8729,-0.8482,-0.861,-0.8732,-0.8732,-0.8851,-0.8861,-0.9014,-0.9147,-0.939,-0.9787,-1.0431,-1.084,-1.1111,-1.1247,-1.1516,-1.1912,-1.2437,-1.2836,-1.3112,-1.4471,-1.5457,-1.6064,-1.7011,-1.7796,-1.8379,-1.8843,-1.9547,-2.0527,-2.0665,-2.1075,-2.159,-2.199,-2.2271,-2.2271,-2.2281,-2.2284,-2.2257,-2.1978,-2.1706,-2.1583,-2.1296,-2.1136,-2.1109,-2.1102,-2.1102,-2.1102,-2.1102,-2.1102,-2.1109,-2.1116,-2.1122,-2.1162,-2.1403,-2.1557,-2.159,-2.1817,-2.1984,-2.2024,-2.2251,-2.2291,-2.2202,-2.2523,-2.2853,-2.2702,-2.2415,-2.2415,-2.2859,-2.2859,-2.2729,-2.2866,-2.2866,-2.2866,-2.2866,-2.2729,-2.2859,-2.2859,-2.2722,-2.2722,-2.2722,-2.2729,-2.2729,-2.2729,-2.2729,-2.2866,-2.2866,-2.2722,-2.2722,-2.2859,-2.2819,-2.2465,-2.2144,-2.2004,-2.1777,-2.1309,-2.1102,-2.1102,-2.1102,-2.1102,-2.1102,-2.1102,-2.1102,-2.1102,-2.1102,-2.1102,-2.1102,-2.1102,-2.1102,-2.1102,-0.9339,-0.8973,-0.8973,-0.8729,-0.8363,-0.8241,-0.7872,-0.7261,-0.7388,-0.763,-0.7875,-0.8116,-0.8358,-0.8634,-0.8871,-0.9202,-0.9384,-0.9906,-1.0488,-1.0833,-1.1115,-1.1251,-1.1512,-1.1909,-1.2309,-1.2865,-1.3948,-1.4732,-1.525,-1.6094,-1.6604,-1.723,-1.8073,-1.8708,-1.9273,-2.011,-2.0804,-2.1081,-2.1628,-2.1897,-2.1897,-2.1951,-2.2043,-2.2017,-2.1629,-2.1436,-2.134,-2.1417,-2.1329,-2.1129,-2.1102,-2.1102,-2.1102,-2.1102,-2.1102,-2.1129,-2.1309,-2.1416,-2.145,-2.1677,-2.185,-2.1904,-2.2118,-2.2265,-2.2311,-2.2545,-2.2699,-2.2569,-2.2532,-2.2441,-2.2147,-2.2022,-2.2035,-2.2454,-2.231,-2.2179,-2.2179,-2.2179,-2.2173,-2.2179,-2.2179,-2.2179,-2.2173,-2.2179,-2.2173,-2.2173,-2.2179,-2.2179,-2.2179,-2.2179,-2.2317,-2.2454,-2.2448,-2.2585,-2.2742,-2.2676,-2.241,-2.2071,-2.1892,-2.1777,-2.1349,-2.1102,-2.1102,-2.1102,-2.1102,-2.1102,-2.1102,-2.1102,-2.1102,-2.1102,-2.1102,-2.1102,-2.1102,-2.1102,-2.1102,-0.8848,-0.8488,-0.8485,-0.8119,-0.7505,-0.7508,-0.7261,-0.6775,-0.69,-0.7023,-0.7263,-0.7385,-0.7627,-0.7888,-0.8329,-0.8508,-0.8815,-0.9233,-0.9764,-1.03,-1.0819,-1.0979,-1.1115,-1.138,-1.1912,-1.2456,-1.3348,-1.3837,-1.4174,-1.495,-1.5569,-1.6283,-1.7116,-1.7788,-1.8417,-1.9273,-1.997,-2.0527,-2.1081,-2.149,-2.1628,-2.1766,-2.1766,-2.1741,-2.1588,-2.1454,-2.1327,-2.1304,-2.1188,-2.0932,-2.0928,-2.0989,-2.1116,-2.1209,-2.1276,-2.1329,-2.1537,-2.1717,-2.1744,-2.1984,-2.2144,-2.2191,-2.2418,-2.2579,-2.2612,-2.2779,-2.2853,-2.2866,-2.2585,-2.2003,-2.1546,-2.1452,-2.1622,-2.1904,-2.1897,-2.1766,-2.1766,-2.1766,-2.1766,-2.1904,-2.1766,-2.1766,-2.1766,-2.1766,-2.1766,-2.1766,-2.1766,-2.1766,-2.1766,-2.1766,-2.1904,-2.2042,-2.2035,-2.2323,-2.2762,-2.2642,-2.2198,-2.2031,-2.1866,-2.1534,-2.1269,-2.1142,-2.1102,-2.1102,-2.1102,-2.1102,-2.1102,-2.1102,-2.1102,-2.1102,-2.0976,-2.1109,-2.1109,-2.1102,-2.1102,-0.8485,-0.7872,-0.7872,-0.7385,-0.69,-0.6778,-0.6653,-0.6653,-0.6655,-0.6653,-0.6655,-0.6775,-0.6778,-0.69,-0.7278,-0.7573,-0.8032,-0.8443,-0.8899,-0.9429,-1.0127,-1.0663,-1.0843,-1.1115,-1.1512,-1.1916,-1.2452,-1.2793,-1.3047,-1.3797,-1.462,-1.5473,-1.5953,-1.6644,-1.7772,-1.8261,-1.896,-1.9831,-2.0388,-2.0798,-2.1075,-2.1484,-2.1628,-2.1628,-2.1603,-2.1489,-2.1268,-2.0939,-2.0768,-2.0501,-2.0592,-2.0749,-2.1062,-2.141,-2.1516,-2.157,-2.185,-2.1984,-2.2064,-2.2285,-2.2438,-2.2465,-2.2665,-2.2859,-2.2832,-2.2839,-2.2866,-2.2873,-2.2448,-2.1853,-2.1108,-2.1014,-2.1201,-2.1207,-2.149,-2.1628,-2.1766,-2.1628,-2.1628,-2.1628,-2.1766,-2.1766,-2.1628,-2.1628,-2.1628,-2.1628,-2.1628,-2.1628,-2.1628,-2.149,-2.1628,-2.1766,-2.1622,-2.1897,-2.2192,-2.216,-2.1823,-2.1411,-2.1279,-2.1254,-2.1034,-2.0909,-2.0856,-2.0856,-2.0982,-2.0976,-2.0989,-2.0996,-2.0862,-2.0856,-2.0856,-2.0989,-2.0982,-2.0856,-2.0843,-0.7752,-0.7143,-0.6893,-0.6528,-0.6162,-0.5914,-0.5669,-0.5425,-0.5425,-0.5548,-0.5548,-0.5669,-0.5914,-0.6162,-0.6528,-0.6912,-0.7323,-0.7889,-0.8312,-0.862,-0.9525,-1.0257,-1.068,-1.0982,-1.1247,-1.138,-1.178,-1.2064,-1.225,-1.3027,-1.3549,-1.3908,-1.5033,-1.5877,-1.6609,-1.7616,-1.8405,-1.8832,-1.9552,-2.0104,-2.0388,-2.0527,-2.0665,-2.0943,-2.0943,-2.09,-2.079,-2.0392,-2.0185,-2.0259,-2.0151,-2.0336,-2.0631,-2.1,-2.1267,-2.1483,-2.1998,-2.2305,-2.2358,-2.2565,-2.2726,-2.2746,-2.2806,-2.2859,-2.2866,-2.2866,-2.2879,-2.2762,-2.2336,-2.1603,-2.0876,-2.0768,-2.0798,-2.0804,-2.0943,-2.1081,-2.1081,-2.0943,-2.0943,-2.0949,-2.0943,-2.1081,-2.0943,-2.0943,-2.0943,-2.0937,-2.0937,-2.0943,-2.0937,-2.0937,-2.0937,-2.1207,-2.1201,-2.1333,-2.1471,-2.1603,-2.1264,-2.0806,-2.068,-2.0778,-2.0599,-2.038,-2.0361,-2.0361,-2.0482,-2.0609,-2.0775,-2.0801,-2.0648,-2.0482,-2.0488,-2.0615,-2.0488,-2.0361,-2.0335,-0.6896,-0.641,-0.6158,-0.5792,-0.5425,-0.53,-0.5056,-0.4935,-0.4935,-0.4935,-0.4933,-0.5056,-0.53,-0.5548,-0.5792,-0.616,-0.6539,-0.7081,-0.7477,-0.7997,-0.8983,-0.9825,-1.0568,-1.0941,-1.0982,-1.0982,-1.1383,-1.1516,-1.1663,-1.2277,-1.2747,-1.3243,-1.4009,-1.4982,-1.5872,-1.6658,-1.7436,-1.7999,-1.8787,-1.9273,-1.9552,-1.9825,-1.9965,-2.0243,-2.0237,-2.0184,-1.9923,-1.9628,-1.9627,-1.9848,-1.9858,-2.0099,-2.0494,-2.0765,-2.1069,-2.1353,-2.2034,-2.2328,-2.2496,-2.2636,-2.2853,-2.2859,-2.2866,-2.2866,-2.2866,-2.2866,-2.2879,-2.2782,-2.2199,-2.1471,-2.0894,-2.0641,-2.0665,-2.0533,-2.0394,-2.0527,-2.0665,-2.0665,-2.0665,-2.0533,-2.0539,-2.0545,-2.0388,-2.0249,-2.0249,-2.0249,-2.0243,-2.0243,-2.0243,-2.0243,-2.0243,-2.037,-2.0509,-2.0509,-2.0635,-2.0629,-2.0215,-1.9789,-1.9555,-1.9825,-1.9961,-1.9851,-1.9979,-1.9979,-2.0113,-2.0119,-2.0278,-2.0412,-2.0246,-2.0094,-2.0113,-2.0113,-1.9985,-1.9795,-1.9782,-0.6037,-0.5794,-0.5421,-0.5054,-0.481,-0.481,-0.4687,-0.4687,-0.4564,-0.4564,-0.4566,-0.4687,-0.4687,-0.481,-0.5177,-0.5421,-0.5796,-0.6293,-0.6905,-0.7678,-0.8511,-0.9444,-1.0283,-1.0599,-1.0683,-1.0843,-1.0986,-1.1118,-1.1254,-1.1655,-1.2121,-1.2743,-1.3059,-1.3975,-1.5096,-1.5682,-1.6343,-1.7241,-1.7775,-1.8299,-1.8754,-1.9183,-1.9339,-1.9535,-1.9606,-1.9398,-1.9099,-1.8875,-1.8915,-1.934,-1.945,-1.9745,-2.0266,-2.068,-2.0939,-2.134,-2.1861,-2.2271,-2.2291,-2.2565,-2.2859,-2.2859,-2.2866,-2.2866,-2.2866,-2.2866,-2.2742,-2.2782,-2.2199,-2.1339,-2.0768,-2.0653,-2.0388,-2.011,-2.011,-2.0249,-2.0527,-2.0527,-2.0388,-2.0116,-2.0418,-2.0133,-1.9837,-1.9686,-1.9692,-1.9965,-1.9825,-1.9825,-1.9686,-1.968,-1.9541,-1.9535,-1.9541,-1.9547,-1.9669,-1.9652,-1.9153,-1.863,-1.849,-1.8547,-1.907,-1.9206,-1.959,-1.9717,-1.9328,-1.9474,-1.9883,-1.987,-1.9717,-1.9444,-1.9194,-1.9456,-1.9705,-1.9345,-1.9163,-0.5421,-0.5058,-0.4807,-0.4438,-0.4069,-0.3825,-0.3702,-0.3454,-0.3454,-0.3577,-0.3454,-0.3701,-0.3947,-0.4192,-0.4439,-0.481,-0.5179,-0.5792,-0.665,-0.7766,-0.8121,-0.8818,-0.9706,-1.0287,-1.0602,-1.068,-1.0717,-1.0853,-1.085,-1.1251,-1.1527,-1.2094,-1.266,-1.3244,-1.4088,-1.4841,-1.533,-1.6006,-1.6499,-1.7174,-1.7856,-1.8291,-1.8633,-1.8899,-1.9203,-1.9107,-1.8833,-1.8599,-1.8478,-1.8377,-1.8442,-1.8747,-1.9537,-1.9954,-2.0484,-2.1127,-2.1565,-2.2035,-2.2304,-2.231,-2.2592,-2.2729,-2.2866,-2.2866,-2.2859,-2.2585,-2.2461,-2.2205,-2.1641,-2.1075,-2.0382,-2.0243,-2.011,-1.9825,-1.9686,-1.9686,-1.982,-1.982,-1.982,-1.9686,-1.9837,-1.9831,-1.9541,-1.8944,-1.9089,-1.939,-1.9401,-1.9407,-1.9262,-1.8982,-1.8843,-1.8703,-1.8703,-1.8697,-1.8793,-1.8838,-1.8341,-1.7749,-1.7511,-1.74,-1.7916,-1.8296,-1.8425,-1.8553,-1.8425,-1.8699,-1.9114,-1.9261,-1.912,-1.8699,-1.8267,-1.8506,-1.8599,-1.8377,-1.8447,-0.4808,-0.4562,-0.4193,-0.3947,-0.3824,-0.3455,-0.3085,-0.2837,-0.296,-0.296,-0.3083,-0.3208,-0.3454,-0.3701,-0.3947,-0.4193,-0.4808,-0.5548,-0.6407,-0.7398,-0.7825,-0.8493,-0.934,-0.9888,-1.0337,-1.0602,-1.069,-1.0717,-1.0721,-1.0853,-1.1118,-1.1512,-1.2045,-1.262,-1.3253,-1.3987,-1.45,-1.5008,-1.5648,-1.6167,-1.6666,-1.7229,-1.7533,-1.7924,-1.8101,-1.8074,-1.7823,-1.7973,-1.7768,-1.759,-1.7529,-1.8007,-1.8957,-1.934,-1.9864,-2.0551,-2.1081,-2.149,-2.1628,-2.1904,-2.2179,-2.2317,-2.2454,-2.2454,-2.2317,-2.2179,-2.2048,-2.1779,-2.1358,-2.0937,-2.0255,-1.997,-1.9686,-1.9407,-1.9128,-1.8988,-1.8843,-1.9262,-1.9401,-1.9273,-1.9301,-1.901,-1.8703,-1.81,-1.7965,-1.8282,-1.8288,-1.8288,-1.8147,-1.8007,-1.8002,-1.8002,-1.7861,-1.7981,-1.8068,-1.7877,-1.7662,-1.7241,-1.6823,-1.6671,-1.6882,-1.7007,-1.713,-1.7389,-1.7653,-1.7939,-1.8348,-1.8366,-1.822,-1.7378,-1.7065,-1.7301,-1.7485,-1.7615,-1.7627,-0.4316,-0.4192,-0.3702,-0.3579,-0.3577,-0.3076,-0.2703,-0.258,-0.2698,-0.2686,-0.2819,-0.2823,-0.3066,-0.332,-0.3453,-0.3824,-0.4562,-0.5302,-0.6162,-0.6903,-0.7396,-0.8184,-0.9029,-0.9532,-0.9934,-1.0463,-1.0639,-1.0711,-1.0721,-1.0721,-1.0986,-1.1247,-1.1648,-1.2188,-1.2749,-1.3236,-1.372,-1.4152,-1.4791,-1.518,-1.5503,-1.605,-1.6621,-1.6963,-1.7027,-1.7068,-1.7028,-1.706,-1.7075,-1.6888,-1.6872,-1.7402,-1.8117,-1.8693,-1.9157,-1.9924,-2.0388,-2.0804,-2.122,-2.149,-2.1766,-2.1766,-2.1766,-2.1766,-2.1904,-2.1772,-2.1634,-2.1358,-2.0943,-2.0515,-1.9976,-1.9552,-1.9128,-1.8848,-1.8433,-1.8153,-1.8002,-1.8557,-1.8563,-1.8439,-1.8455,-1.8309,-1.7726,-1.7132,-1.7152,-1.7168,-1.7168,-1.7173,-1.7168,-1.7026,-1.7021,-1.688,-1.6739,-1.6987,-1.7189,-1.6838,-1.652,-1.6042,-1.5808,-1.5773,-1.5709,-1.5709,-1.5834,-1.6618,-1.7012,-1.7293,-1.7433,-1.7438,-1.7012,-1.6172,-1.5832,-1.6018,-1.644,-1.685,-1.6836,-0.3702,-0.3579,-0.3208,-0.296,-0.2831,-0.2556,-0.23,-0.2055,-0.2153,-0.2139,-0.2144,-0.2406,-0.254,-0.279,-0.3316,-0.3822,-0.4436,-0.5056,-0.5669,-0.6407,-0.7018,-0.7782,-0.8802,-0.9178,-0.9677,-1.0226,-1.0565,-1.0697,-1.0717,-1.0721,-1.085,-1.1247,-1.1512,-1.2045,-1.2312,-1.274,-1.317,-1.3451,-1.39,-1.4108,-1.4598,-1.5166,-1.5898,-1.64,-1.6439,-1.6348,-1.641,-1.6262,-1.627,-1.6099,-1.6229,-1.6481,-1.7052,-1.7836,-1.8642,-1.941,-1.9825,-2.0249,-2.0659,-2.1081,-2.149,-2.1628,-2.1628,-2.1628,-2.1628,-2.1502,-2.1081,-2.0659,-2.0104,-1.9541,-1.8719,-1.8714,-1.8288,-1.7866,-1.759,-1.7308,-1.7017,-1.7157,-1.7298,-1.7308,-1.746,-1.7465,-1.6734,-1.615,-1.6009,-1.6164,-1.632,-1.632,-1.6174,-1.6037,-1.5895,-1.5612,-1.5332,-1.5817,-1.6289,-1.5769,-1.5376,-1.4695,-1.4553,-1.4702,-1.4534,-1.4272,-1.453,-1.5443,-1.5969,-1.6109,-1.6244,-1.6385,-1.5928,-1.5211,-1.4981,-1.4998,-1.5368,-1.5862,-1.5803,-0.3132,-0.3132,-0.2772,-0.2772,-0.2769,-0.2272,-0.2026,-0.1905,-0.1892,-0.1885,-0.1889,-0.2019,-0.2264,-0.2513,-0.2906,-0.367,-0.4309,-0.4687,-0.5423,-0.6283,-0.6775,-0.7633,-0.8747,-0.8995,-0.9452,-1.0099,-1.0446,-1.0646,-1.0714,-1.0717,-1.085,-1.0982,-1.1247,-1.1648,-1.2048,-1.2448,-1.2704,-1.2972,-1.3244,-1.3541,-1.3759,-1.4289,-1.4888,-1.53,-1.556,-1.5619,-1.5863,-1.606,-1.5979,-1.5974,-1.5974,-1.6166,-1.6527,-1.7027,-1.7922,-1.8727,-1.9128,-1.9552,-1.9965,-2.0243,-2.0382,-2.0515,-2.0653,-2.0653,-2.0659,-2.0527,-2.0243,-1.9669,-1.9267,-1.8708,-1.8288,-1.8012,-1.759,-1.7157,-1.6885,-1.6461,-1.6169,-1.6032,-1.6032,-1.6178,-1.6778,-1.6632,-1.5744,-1.5305,-1.5008,-1.5159,-1.5465,-1.5328,-1.5181,-1.5039,-1.4897,-1.4832,-1.4651,-1.4826,-1.5155,-1.4809,-1.421,-1.3537,-1.3337,-1.3481,-1.3481,-1.335,-1.3613,-1.4268,-1.466,-1.4926,-1.5337,-1.5478,-1.4865,-1.4378,-1.4396,-1.4393,-1.4692,-1.4755,-1.4846,-0.2825,-0.2826,-0.2475,-0.2475,-0.2711,-0.2113,-0.1877,-0.1875,-0.1868,-0.1864,-0.1868,-0.1874,-0.1994,-0.2356,-0.2741,-0.3385,-0.4292,-0.4663,-0.5401,-0.6158,-0.6775,-0.7633,-0.8643,-0.9075,-0.9405,-0.9978,-1.0253,-1.05,-1.0639,-1.07,-1.0717,-1.085,-1.0982,-1.138,-1.1648,-1.2177,-1.2441,-1.2708,-1.3104,-1.3235,-1.3498,-1.3621,-1.4006,-1.4268,-1.4539,-1.481,-1.509,-1.5337,-1.5448,-1.5448,-1.5468,-1.5551,-1.5899,-1.6111,-1.6681,-1.7576,-1.811,-1.8703,-1.8982,-1.9396,-1.9396,-1.9535,-1.9396,-1.9396,-1.9401,-1.9407,-1.9122,-1.8396,-1.8131,-1.7872,-1.7444,-1.7163,-1.6739,-1.6315,-1.6037,-1.5612,-1.5323,-1.4897,-1.4613,-1.5057,-1.6088,-1.5795,-1.4901,-1.4311,-1.4014,-1.4022,-1.4328,-1.4328,-1.4185,-1.4185,-1.416,-1.419,-1.4204,-1.4246,-1.4183,-1.3772,-1.322,-1.2584,-1.2553,-1.2828,-1.2692,-1.2688,-1.2955,-1.3218,-1.3223,-1.3621,-1.4164,-1.452,-1.4137,-1.3895,-1.3806,-1.378,-1.3941,-1.401,-1.3984,-0.2475,-0.2474,-0.212,-0.2003,-0.1997,-0.1856,-0.1845,-0.1842,-0.1821,-0.1806,-0.1815,-0.1834,-0.1846,-0.2087,-0.2581,-0.3097,-0.3733,-0.4484,-0.5234,-0.6008,-0.6646,-0.7633,-0.8735,-0.8864,-0.9325,-0.9891,-1.0093,-1.0263,-1.0466,-1.0622,-1.0704,-1.07,-1.0972,-1.1247,-1.138,-1.1909,-1.2309,-1.2437,-1.2704,-1.3104,-1.3367,-1.3367,-1.3621,-1.3879,-1.401,-1.4141,-1.4272,-1.4399,-1.4399,-1.4268,-1.4268,-1.424,-1.4432,-1.4625,-1.5092,-1.5867,-1.6882,-1.8002,-1.8137,-1.8277,-1.8552,-1.8552,-1.8552,-1.8546,-1.8557,-1.8282,-1.7996,-1.7544,-1.7142,-1.6734,-1.6461,-1.6037,-1.5607,-1.5323,-1.4897,-1.4617,-1.4185,-1.4039,-1.3757,-1.3765,-1.4647,-1.4496,-1.3904,-1.346,-1.3024,-1.3031,-1.3039,-1.3182,-1.3313,-1.344,-1.3302,-1.3304,-1.3327,-1.3254,-1.3255,-1.2849,-1.2386,-1.1762,-1.1901,-1.2041,-1.1909,-1.1905,-1.1909,-1.2173,-1.2173,-1.2541,-1.3299,-1.3622,-1.3384,-1.311,-1.283,-1.2949,-1.3062,-1.3157,-1.3268,-0.2064,-0.2064,-0.1835,-0.1834,-0.1833,-0.182,-0.1814,-0.1812,-0.1801,-0.1795,-0.1797,-0.1808,-0.1937,-0.2184,-0.255,-0.3046,-0.3448,-0.4317,-0.5194,-0.5847,-0.6618,-0.763,-0.8613,-0.8976,-0.9268,-0.9804,-1.0008,-1.01,-1.029,-1.0463,-1.0592,-1.0609,-1.0809,-1.0986,-1.1115,-1.1776,-1.2045,-1.2309,-1.2572,-1.284,-1.2972,-1.3104,-1.3231,-1.3625,-1.3625,-1.3752,-1.3875,-1.3875,-1.3875,-1.3875,-1.3875,-1.3906,-1.4029,-1.4187,-1.4512,-1.484,-1.5593,-1.6453,-1.7127,-1.7288,-1.7575,-1.7715,-1.7721,-1.7726,-1.7731,-1.7163,-1.6588,-1.5995,-1.6013,-1.5749,-1.5328,-1.5044,-1.4613,-1.4185,-1.39,-1.3599,-1.3313,-1.3182,-1.3043,-1.305,-1.3043,-1.3005,-1.2978,-1.2394,-1.2262,-1.2749,-1.2749,-1.2888,-1.2843,-1.2932,-1.2742,-1.2361,-1.2263,-1.2281,-1.2185,-1.2086,-1.1685,-1.1233,-1.1372,-1.1512,-1.1251,-1.1118,-1.1383,-1.1383,-1.1508,-1.1995,-1.271,-1.288,-1.2913,-1.2451,-1.1981,-1.2266,-1.2551,-1.2725,-1.2866,-0.1795,-0.1795,-0.1795,-0.1795,-0.1795,-0.1795,-0.1795,-0.1795,-0.1795,-0.1795,-0.1795,-0.1797,-0.1923,-0.2281,-0.263,-0.2996,-0.3279,-0.4265,-0.5145,-0.5792,-0.6572,-0.7596,-0.8477,-0.8976,-0.9217,-0.9822,-0.992,-0.9988,-1.007,-1.0232,-1.0402,-1.049,-1.0595,-1.0809,-1.1108,-1.1516,-1.178,-1.2305,-1.2572,-1.2704,-1.2836,-1.2836,-1.2972,-1.3104,-1.3235,-1.3363,-1.3617,-1.3617,-1.3617,-1.3617,-1.3486,-1.3498,-1.3405,-1.3557,-1.3608,-1.3925,-1.4254,-1.471,-1.5534,-1.6023,-1.6457,-1.6603,-1.6744,-1.6608,-1.6613,-1.6042,-1.531,-1.457,-1.4738,-1.4608,-1.4328,-1.4047,-1.3611,-1.3178,-1.2892,-1.2584,-1.2412,-1.2098,-1.1903,-1.1843,-1.1843,-1.2023,-1.1864,-1.1447,-1.1636,-1.2298,-1.2463,-1.2441,-1.235,-1.2248,-1.192,-1.1679,-1.1578,-1.1506,-1.1452,-1.1254,-1.0975,-1.084,-1.0979,-1.0982,-1.0853,-1.0853,-1.0986,-1.0982,-1.1101,-1.1232,-1.163,-1.2106,-1.2562,-1.2089,-1.1892,-1.1906,-1.2189,-1.238,-1.2599,-0.1795,-0.1795,-0.1795,-0.1795,-0.1795,-0.1795,-0.1795,-0.1795,-0.1795,-0.1795,-0.1795,-0.1795,-0.1909,-0.2251,-0.2596,-0.2953,-0.3223,-0.4145,-0.504,-0.5843,-0.6515,-0.7656,-0.8436,-0.8958,-0.9217,-0.97,-0.9866,-0.9863,-0.988,-1.0022,-1.0246,-1.0456,-1.0483,-1.0588,-1.0798,-1.1233,-1.1644,-1.2041,-1.2309,-1.2444,-1.2572,-1.2704,-1.2704,-1.284,-1.2836,-1.2836,-1.2836,-1.2836,-1.2836,-1.2836,-1.2836,-1.2832,-1.2728,-1.2704,-1.2863,-1.276,-1.2936,-1.338,-1.394,-1.4595,-1.5044,-1.519,-1.519,-1.5337,-1.5488,-1.491,-1.4169,-1.3282,-1.3448,-1.3464,-1.3182,-1.2896,-1.2459,-1.213,-1.1671,-1.1335,-1.1157,-1.0838,-1.0639,-1.0544,-1.0683,-1.1028,-1.0604,-1.0187,-1.0655,-1.1302,-1.1609,-1.1588,-1.1451,-1.1344,-1.1077,-1.0917,-1.0812,-1.0758,-1.0877,-1.0721,-1.0585,-1.0449,-1.0585,-1.0585,-1.0721,-1.0721,-1.0588,-1.0683,-1.0781,-1.0613,-1.0593,-1.1322,-1.1752,-1.1837,-1.1816,-1.1845,-1.1918,-1.2134,-1.2242,-0.1795,-0.1795,-0.1795,-0.1795,-0.1795,-0.1795,-0.1795,-0.1795,-0.1795,-0.1795,-0.1795,-0.1795,-0.1907,-0.2244,-0.2581,-0.2812,-0.3285,-0.4119,-0.4978,-0.5752,-0.6544,-0.7592,-0.8383,-0.8927,-0.9217,-0.97,-0.9819,-0.9819,-0.9839,-0.99,-1.0015,-1.0181,-1.0304,-1.0443,-1.0675,-1.0923,-1.1501,-1.1776,-1.2045,-1.2045,-1.2177,-1.2177,-1.2177,-1.2177,-1.2177,-1.2177,-1.2177,-1.2173,-1.2177,-1.2177,-1.218,-1.2177,-1.2045,-1.2121,-1.2097,-1.2112,-1.2142,-1.244,-1.2753,-1.3551,-1.4043,-1.4189,-1.4189,-1.4198,-1.4647,-1.4063,-1.2738,-1.2151,-1.2155,-1.2316,-1.189,-1.1599,-1.1432,-1.0938,-1.059,-1.0251,-0.9912,-0.973,-0.9544,-0.9596,-0.9905,-1.024,-0.9663,-0.8807,-0.9556,-1.0314,-1.0467,-1.0595,-1.0474,-1.0362,-1.0257,-1.0187,-1.0098,-1.0475,-1.0465,-1.0329,-1.006,-1.0057,-1.0054,-1.019,-1.0323,-1.0326,-1.0316,-1.0538,-1.0592,-1.0443,-1.0438,-1.0706,-1.1087,-1.1318,-1.1614,-1.1801,-1.1897,-1.1889,-1.201,-0.1795,-0.1795,-0.1795,-0.1795,-0.1795,-0.1795,-0.1795,-0.1795,-0.1795,-0.1795,-0.1795,-0.1795,-0.2019,-0.2356,-0.2581,-0.2917,-0.3376,-0.4194,-0.4909,-0.5662,-0.6448,-0.7501,-0.8298,-0.8852,-0.916,-0.968,-0.9819,-0.9819,-0.9819,-0.9819,-0.9897,-0.9998,-1.0093,-1.0229,-1.0429,-1.083,-1.1197,-1.1505,-1.1648,-1.178,-1.1776,-1.178,-1.178,-1.1912,-1.1912,-1.1912,-1.1912,-1.1912,-1.1912,-1.1912,-1.1912,-1.178,-1.1648,-1.167,-1.1603,-1.1731,-1.1862,-1.2015,-1.2211,-1.2794,-1.3317,-1.3472,-1.3329,-1.363,-1.3789,-1.3201,-1.1879,-1.0999,-1.1155,-1.1312,-1.0587,-1.0413,-1.0078,-0.9726,-0.9363,-0.9027,-0.8943,-0.8751,-0.8716,-0.867,-0.8971,-0.896,-0.8676,-0.811,-0.8745,-0.9339,-0.9622,-0.9745,-0.9677,-0.9579,-0.9493,-0.9442,-0.9534,-0.9933,-1.0209,-1.0066,-0.9791,-0.9519,-0.9519,-0.9924,-0.9927,-1.006,-1.0054,-1.0157,-1.0189,-1.0158,-1.0263,-1.0249,-1.0602,-1.0826,-1.1163,-1.1647,-1.1647,-1.1643,-1.1772,-0.1795,-0.1795,-0.1795,-0.1795,-0.1795,-0.1795,-0.1795,-0.1795,-0.1795,-0.1795,-0.1795,-0.1795,-0.2132,-0.2581,-0.2693,-0.3029,-0.3587,-0.4155,-0.4857,-0.5606,-0.623,-0.7261,-0.819,-0.876,-0.9064,-0.9667,-0.9798,-0.9788,-0.9819,-0.9819,-0.9839,-0.9842,-0.9917,-1.0025,-1.0273,-1.0426,-1.0826,-1.1087,-1.123,-1.1358,-1.1648,-1.1648,-1.1648,-1.1648,-1.1648,-1.1648,-1.1516,-1.1648,-1.1516,-1.1516,-1.1652,-1.1516,-1.1251,-1.1251,-1.1189,-1.1046,-1.1083,-1.1241,-1.1495,-1.2364,-1.258,-1.2749,-1.247,-1.2764,-1.2628,-1.204,-1.1165,-1.0,-1.0138,-1.0003,-0.9686,-0.9198,-0.8855,-0.8638,-0.8281,-0.7939,-0.7724,-0.754,-0.7514,-0.75,-0.7581,-0.7541,-0.7407,-0.743,-0.7932,-0.8389,-0.8665,-0.8777,-0.8739,-0.8696,-0.863,-0.8745,-0.8723,-0.9131,-0.9537,-0.9534,-0.9392,-0.9117,-0.8984,-0.9123,-0.9392,-0.9525,-0.9649,-0.9766,-0.9748,-0.9816,-0.9797,-0.9781,-0.9917,-1.019,-1.0914,-1.1277,-1.1398,-1.1402,-1.1526,-0.1795,-0.1795,-0.1795,-0.1795,-0.1795,-0.1795,-0.1795,-0.1795,-0.1795,-0.1795,-0.1795,-0.1795,-0.2132,-0.2581,-0.2693,-0.303,-0.3587,-0.4257,-0.4847,-0.542,-0.6039,-0.7018,-0.7925,-0.8491,-0.8819,-0.9278,-0.9563,-0.9747,-0.9819,-0.9819,-0.9819,-0.9822,-0.9832,-0.9934,-1.0114,-1.0273,-1.0551,-1.0668,-1.0706,-1.0871,-1.1101,-1.1111,-1.1111,-1.1111,-1.1115,-1.1118,-1.1118,-1.1115,-1.1115,-1.1118,-1.1118,-1.1118,-1.0986,-1.0853,-1.0877,-1.0829,-1.087,-1.0893,-1.0945,-1.1231,-1.1508,-1.1558,-1.1753,-1.176,-1.1917,-1.1038,-1.0014,-0.9258,-0.9066,-0.8913,-0.8596,-0.8086,-0.7736,-0.7511,-0.7168,-0.6714,-0.6529,-0.6236,-0.6084,-0.6217,-0.6323,-0.6185,-0.6049,-0.6451,-0.6918,-0.7208,-0.7481,-0.7742,-0.7848,-0.7838,-0.7801,-0.7932,-0.7925,-0.8331,-0.86,-0.8595,-0.8459,-0.8187,-0.8053,-0.8323,-0.859,-0.8859,-0.9203,-0.9297,-0.9392,-0.9348,-0.9343,-0.9344,-0.9274,-0.9582,-1.0183,-1.0789,-1.0914,-1.1035,-1.1156,-0.1795,-0.1795,-0.1795,-0.1795,-0.1795,-0.1795,-0.1795,-0.1795,-0.1795,-0.1795,-0.1795,-0.1795,-0.2132,-0.2581,-0.2693,-0.303,-0.3587,-0.4257,-0.4704,-0.527,-0.5992,-0.6845,-0.7587,-0.8102,-0.8684,-0.9026,-0.9473,-0.9666,-0.9737,-0.9795,-0.9819,-0.9819,-0.9822,-0.9876,-0.9998,-1.012,-1.0273,-1.0378,-1.0558,-1.049,-1.0713,-1.0639,-1.0666,-1.07,-1.0717,-1.0721,-1.0721,-1.0721,-1.0721,-1.0721,-1.0717,-1.0717,-1.0717,-1.0717,-1.0585,-1.0628,-1.0456,-1.0438,-1.0407,-1.0531,-1.0642,-1.0284,-1.0537,-1.0897,-1.1034,-1.0269,-0.9085,-0.8331,-0.7986,-0.7811,-0.7499,-0.7141,-0.6658,-0.6445,-0.6272,-0.5827,-0.5678,-0.5525,-0.5522,-0.5518,-0.5381,-0.5111,-0.4975,-0.5379,-0.58,-0.6063,-0.6189,-0.6453,-0.6855,-0.6855,-0.6991,-0.6989,-0.6987,-0.7257,-0.7526,-0.7393,-0.7257,-0.7121,-0.7254,-0.7522,-0.7925,-0.8189,-0.8513,-0.8694,-0.8562,-0.8681,-0.8904,-0.8919,-0.8747,-0.8848,-0.9332,-0.994,-1.0308,-1.055,-1.0671,-0.1795,-0.1795,-0.1795,-0.1795,-0.1795,-0.1795,-0.1795,-0.1795,-0.1795,-0.1795,-0.1795,-0.1795,-0.2132,-0.2581,-0.2693,-0.3029,-0.3587,-0.4145,-0.4592,-0.5152,-0.5844,-0.6679,-0.7288,-0.79,-0.8329,-0.8913,-0.9248,-0.9422,-0.9618,-0.9758,-0.9819,-0.9819,-0.9819,-0.9842,-0.99,-0.9981,-1.0127,-1.0226,-1.0276,-1.0354,-1.0456,-1.0517,-1.0585,-1.0646,-1.0697,-1.0714,-1.0721,-1.0721,-1.0721,-1.0717,-1.0717,-1.0717,-1.0717,-1.0717,-1.0455,-1.0228,-1.0053,-0.9955,-0.9863,-0.9838,-0.9625,-0.9279,-0.972,-1.0117,-1.0117,-0.945,-0.8272,-0.738,-0.7049,-0.6877,-0.6563,-0.6091,-0.549,-0.5451,-0.5285,-0.513,-0.5119,-0.5112,-0.5114,-0.5112,-0.4842,-0.4707,-0.4572,-0.4841,-0.4841,-0.4841,-0.4975,-0.5109,-0.5377,-0.5915,-0.5917,-0.5917,-0.6049,-0.6182,-0.6317,-0.6453,-0.6183,-0.6046,-0.6583,-0.6851,-0.7257,-0.7507,-0.7703,-0.7747,-0.7765,-0.7764,-0.8107,-0.8153,-0.8125,-0.8355,-0.8601,-0.9092,-0.9579,-1.0065,-1.0308,-0.1795,-0.1795,-0.1795,-0.1795,-0.1795,-0.1795,-0.1795,-0.1795,-0.1795,-0.1795,-0.1795,-0.1795,-0.2019,-0.2356,-0.2581,-0.2915,-0.3362,-0.381,-0.4482,-0.5043,-0.5599,-0.6289,-0.6868,-0.7567,-0.7975,-0.8397,-0.8836,-0.9182,-0.9476,-0.9741,-0.9812,-0.9819,-0.9819,-0.9819,-0.9836,-0.9866,-0.9985,-1.0073,-1.011,-1.0209,-1.0331,-1.0412,-1.049,-1.0551,-1.066,-1.0683,-1.07,-1.0581,-1.0585,-1.0588,-1.0455,-1.0323,-1.0323,-1.019,-0.993,-0.993,-0.9698,-0.9582,-0.9198,-0.916,-0.8821,-0.8153,-0.8271,-0.8466,-0.8482,-0.8183,-0.731,-0.6725,-0.6121,-0.5948,-0.551,-0.5063,-0.476,-0.4604,-0.4451,-0.4311,-0.4304,-0.4304,-0.4304,-0.444,-0.4304,-0.4034,-0.4034,-0.4034,-0.39,-0.39,-0.39,-0.4034,-0.417,-0.4707,-0.4977,-0.4977,-0.5111,-0.5377,-0.5513,-0.5649,-0.5377,-0.5106,-0.5644,-0.6182,-0.6451,-0.6694,-0.6762,-0.6788,-0.691,-0.7048,-0.7303,-0.7263,-0.7258,-0.7383,-0.7627,-0.8241,-0.8851,-0.9335,-0.9697,-0.1795,-0.1795,-0.1795,-0.1795,-0.1795,-0.1795,-0.1795,-0.1795,-0.1795,-0.1795,-0.1795,-0.1795,-0.1907,-0.2244,-0.2581,-0.2805,-0.3138,-0.3699,-0.426,-0.4706,-0.5373,-0.5938,-0.6606,-0.7163,-0.7653,-0.8051,-0.8464,-0.8918,-0.9228,-0.9646,-0.9744,-0.9819,-0.9819,-0.9819,-0.9825,-0.9836,-0.9869,-0.9927,-0.9978,-1.0056,-1.0171,-1.0283,-1.0331,-1.0429,-1.0424,-1.0353,-1.0383,-1.0399,-1.0316,-1.0323,-1.006,-1.0057,-0.9924,-0.9528,-0.9262,-0.9125,-0.8865,-0.8603,-0.8215,-0.8115,-0.7742,-0.736,-0.6996,-0.6876,-0.7048,-0.6777,-0.6235,-0.5681,-0.5216,-0.4901,-0.4479,-0.406,-0.4048,-0.3902,-0.3632,-0.3228,-0.3228,-0.3228,-0.3497,-0.3632,-0.3631,-0.3362,-0.3227,-0.3228,-0.3227,-0.3362,-0.3497,-0.3497,-0.3631,-0.39,-0.4035,-0.417,-0.4304,-0.4438,-0.4708,-0.4978,-0.4707,-0.457,-0.4973,-0.5377,-0.5646,-0.5886,-0.5965,-0.609,-0.6049,-0.6222,-0.6532,-0.6405,-0.6278,-0.6403,-0.6526,-0.7138,-0.7747,-0.8482,-0.8845,-0.1793,-0.1795,-0.1795,-0.1795,-0.1795,-0.1795,-0.1795,-0.1795,-0.1795,-0.1795,-0.1795,-0.1795,-0.1907,-0.2132,-0.2468,-0.2692,-0.3027,-0.3589,-0.4036,-0.448,-0.5039,-0.5599,-0.6158,-0.6829,-0.7287,-0.7765,-0.8155,-0.8691,-0.8899,-0.9345,-0.9703,-0.9802,-0.9819,-0.9819,-0.9819,-0.9819,-0.9839,-0.9731,-0.9751,-0.9798,-0.9881,-0.9942,-0.9992,-1.0133,-0.9999,-0.9961,-0.9866,-0.9808,-0.9646,-0.9646,-0.9658,-0.9522,-0.9125,-0.8859,-0.859,-0.8323,-0.8058,-0.7658,-0.739,-0.7139,-0.6866,-0.6462,-0.6049,-0.5809,-0.571,-0.5731,-0.534,-0.5068,-0.4754,-0.406,-0.3509,-0.3509,-0.3369,-0.323,-0.3096,-0.296,-0.2826,-0.2826,-0.296,-0.3096,-0.296,-0.2828,-0.2845,-0.2849,-0.2862,-0.298,-0.2983,-0.2985,-0.3107,-0.3242,-0.337,-0.3369,-0.3632,-0.3901,-0.4035,-0.417,-0.4034,-0.4168,-0.4437,-0.4705,-0.4841,-0.508,-0.5306,-0.5431,-0.5541,-0.5596,-0.5671,-0.5546,-0.5419,-0.5172,-0.5418,-0.5908,-0.6521,-0.7258,-0.7991,-0.1996,-0.1795,-0.1795,-0.1795,-0.1795,-0.1795,-0.1795,-0.1795,-0.1795,-0.1795,-0.1795,-0.1795,-0.1795,-0.2019,-0.2244,-0.2468,-0.2805,-0.3251,-0.3589,-0.4148,-0.4706,-0.5264,-0.571,-0.6379,-0.6935,-0.7385,-0.7868,-0.8498,-0.897,-0.9309,-0.9615,-0.9676,-0.9737,-0.9677,-0.97,-0.97,-0.9579,-0.946,-0.9464,-0.9352,-0.94,-0.9506,-0.9718,-0.9526,-0.9348,-0.9419,-0.9472,-0.9426,-0.9356,-0.9121,-0.895,-0.8581,-0.8058,-0.7791,-0.7791,-0.7658,-0.7254,-0.6989,-0.6721,-0.6317,-0.6048,-0.5513,-0.5112,-0.4844,-0.4583,-0.4728,-0.4732,-0.4594,-0.4184,-0.3367,-0.2824,-0.2827,-0.2828,-0.2693,-0.2693,-0.2558,-0.2424,-0.2423,-0.2423,-0.2423,-0.2423,-0.2435,-0.2451,-0.2465,-0.2478,-0.2488,-0.236,-0.2358,-0.2471,-0.2597,-0.2985,-0.2978,-0.3232,-0.3363,-0.3363,-0.3498,-0.3497,-0.3497,-0.363,-0.39,-0.417,-0.4375,-0.4577,-0.5023,-0.5178,-0.4979,-0.4933,-0.5056,-0.4807,-0.4558,-0.4558,-0.5053,-0.5298,-0.591,-0.6771,-0.2075,-0.1997,-0.179,-0.1795,-0.1795,-0.1795,-0.1795,-0.1795,-0.1795,-0.1795,-0.1795,-0.1795,-0.1795,-0.1795,-0.2131,-0.2244,-0.258,-0.2915,-0.3363,-0.3923,-0.426,-0.4817,-0.5373,-0.5931,-0.6487,-0.6935,-0.7499,-0.8124,-0.882,-0.9053,-0.9192,-0.9219,-0.9333,-0.9516,-0.9438,-0.9335,-0.9339,-0.9095,-0.9095,-0.897,-0.8851,-0.9051,-0.9218,-0.9007,-0.8827,-0.877,-0.8701,-0.8654,-0.8353,-0.8298,-0.8132,-0.7912,-0.7388,-0.7123,-0.6987,-0.6719,-0.6449,-0.6183,-0.5915,-0.5513,-0.5109,-0.4708,-0.4305,-0.3902,-0.3768,-0.391,-0.3776,-0.3775,-0.3506,-0.2826,-0.2557,-0.2424,-0.2424,-0.2424,-0.2289,-0.2289,-0.1885,-0.175,-0.175,-0.175,-0.1888,-0.2304,-0.2318,-0.2331,-0.2346,-0.2368,-0.2243,-0.2247,-0.2228,-0.2208,-0.2466,-0.2719,-0.2838,-0.2828,-0.2691,-0.2826,-0.296,-0.2959,-0.2958,-0.3362,-0.3623,-0.3805,-0.399,-0.422,-0.4299,-0.4224,-0.4193,-0.4318,-0.4318,-0.407,-0.4193,-0.4318,-0.4564,-0.4808,-0.5423,-0.2257,-0.219,-0.1889,-0.1792,-0.1795,-0.1795,-0.1795,-0.1795,-0.1795,-0.1795,-0.1795,-0.1795,-0.1795,-0.1907,-0.2019,-0.2132,-0.2356,-0.2691,-0.3139,-0.3475,-0.3813,-0.437,-0.4927,-0.5371,-0.6154,-0.6712,-0.7385,-0.7777,-0.8317,-0.8521,-0.8752,-0.8688,-0.8772,-0.8944,-0.8918,-0.8851,-0.8854,-0.8729,-0.8607,-0.836,-0.836,-0.836,-0.85,-0.8415,-0.8214,-0.8027,-0.7817,-0.7514,-0.7238,-0.7064,-0.7149,-0.6954,-0.6715,-0.6451,-0.6183,-0.5914,-0.5513,-0.5381,-0.5112,-0.4575,-0.4305,-0.4037,-0.3498,-0.3229,-0.3095,-0.2961,-0.2961,-0.2962,-0.2693,-0.2424,-0.2155,-0.202,-0.202,-0.1751,-0.1751,-0.1481,-0.1077,-0.0808,-0.0808,-0.0808,-0.1216,-0.1763,-0.1918,-0.2065,-0.2083,-0.2103,-0.2254,-0.2253,-0.2247,-0.2228,-0.2348,-0.2324,-0.2438,-0.2431,-0.229,-0.2423,-0.2558,-0.2557,-0.2691,-0.296,-0.3215,-0.3292,-0.3375,-0.3342,-0.3425,-0.349,-0.3459,-0.3577,-0.3579,-0.3579,-0.3702,-0.3702,-0.3824,-0.4069,-0.4316,-0.255,-0.2189,-0.1976,-0.1772,-0.1793,-0.1795,-0.1795,-0.1795,-0.1795,-0.1795,-0.1795,-0.1795,-0.1795,-0.1795,-0.1795,-0.1907,-0.2132,-0.2467,-0.2802,-0.3138,-0.3475,-0.3923,-0.4482,-0.5148,-0.604,-0.671,-0.7157,-0.751,-0.7794,-0.8094,-0.8385,-0.8353,-0.8579,-0.8653,-0.8692,-0.8639,-0.8471,-0.8233,-0.7997,-0.7752,-0.7508,-0.7508,-0.763,-0.7523,-0.7163,-0.6927,-0.6829,-0.6779,-0.645,-0.6141,-0.5864,-0.5831,-0.5748,-0.5635,-0.5503,-0.5243,-0.4842,-0.4574,-0.4305,-0.3902,-0.3632,-0.3499,-0.3096,-0.2828,-0.2693,-0.2289,-0.2424,-0.2424,-0.2155,-0.1885,-0.1616,-0.1346,-0.1212,-0.0673,-0.0269,-0.0,0.0404,0.0539,0.0539,0.0269,-0.0,-0.0546,-0.0973,-0.1119,-0.1552,-0.1709,-0.2014,-0.2012,-0.228,-0.2255,-0.2226,-0.2202,-0.2176,-0.2163,-0.2155,-0.2289,-0.2289,-0.2289,-0.2289,-0.2558,-0.2816,-0.3055,-0.3016,-0.2843,-0.2929,-0.3132,-0.2987,-0.2961,-0.2838,-0.2838,-0.3085,-0.3207,-0.333,-0.3453,-0.3701]},{"header":{"parameterUnit":"m.s-1","parameterCategory":1,"la1":31.0,"la2":29.5877,"lo1":-88.7671,"lo2":-86.6584,"dy":0.0162,"dx":0.0185,"nx":115,"ny":88,"refTime":"2023-06-23T00:00:00:Z","depth":0,"parameterNumber":3,"parameterNumberName":"V-component_of_WINDS"},"data":[0.0,0.0,0.0,0.0,0.0,0.0,0.0,0.0,0.0,0.0,0.0,0.0,0.0,0.0,0.0,0.0,0.0,0.0,0.0,0.0,0.0,0.0,0.0,0.0,0.0,0.0,0.0,0.0,0.0,0.0,0.0,0.0,0.0,0.0,0.0,0.0,0.0,0.0,0.0,0.0,0.0,0.0,0.0,0.0,0.0,0.0,0.0,0.0,0.0,0.0,0.0,0.0,0.0,0.0,0.0,0.0,0.0,0.0,0.0,0.0,0.0,0.0,0.0,0.0,0.0,0.0,0.0,0.0,0.0,0.0,0.0,0.0,0.0,0.0,0.0,0.0,0.0,0.0,0.0,0.0,0.0,0.0,0.0,0.0,0.0,0.0,0.0,0.0,0.0,0.0,0.0,0.0,0.0,0.0,0.0,0.0,0.0,0.0,0.0,0.0,0.0,0.0,0.0,0.0,0.0,0.0,0.0,0.0,0.0,0.0,0.0,0.0,0.0,0.0,0.0,0.0,0.0,0.0,0.0,0.0,0.0,0.0,0.0,0.0,0.0,0.0,0.0,0.0,0.0,0.0,0.0,0.0,0.0,0.0,0.0,0.0,0.0,0.0,0.0,0.0,0.0,0.0,0.0,0.0,0.0,0.0,0.0,0.0,0.0,0.0,0.0,0.0,0.0,0.0,0.0,0.0,0.0,0.0,0.0,0.0,0.0,0.0,0.0,0.0,0.0,0.0,0.0,0.0,0.0,0.0,0.0,0.0,0.0,0.0,0.0,0.0,0.0,0.0,0.0,0.0,0.0,0.0,0.0,0.0,0.0,0.0,0.0,0.0,0.0,0.0,0.0,0.0,0.0,0.0,0.0,0.0,0.0,0.0,0.0,0.0,0.0,0.0,0.0,0.0,0.0,0.0,0.0,0.0,0.0,0.0,0.0,0.0,0.0,0.0,0.0,0.0,0.0,0.0,0.0,0.0,0.0,0.0,0.0,0.0,0.0,0.0,0.0,0.0,0.0,0.0,0.0,0.0,0.0,0.0,0.0,0.0,0.0,0.0,0.0,0.0,0.0,0.0,0.0,0.0,0.0,0.0,0.0,0.0,0.0,0.0,0.0,0.0,0.0,0.0,0.0,0.0,0.0,0.0,0.0,0.0,0.0,0.0,0.0,0.0,0.0,0.0,0.0,0.0,0.0,0.0,0.0,0.0,0.0,0.0,0.0,0.0,0.0,0.0,0.0,0.0,0.0,0.0,0.0,0.0,0.0,0.0,0.0,0.0,0.0,0.0,0.0,0.0,0.0,0.0,0.0,0.0,0.0,0.0,0.0,0.0,0.0,0.0,0.0,0.0,0.0,0.0,0.0,0.0,0.0,0.0,0.0,0.0,0.0,0.0,0.0,0.0,0.0,0.0,0.0,0.0,0.0,0.0,0.0,0.0,0.0,0.0,0.0,0.0,0.0,0.0,0.0,0.0,0.0,0.0,0.0,0.0,0.0,0.0,0.0,0.0,0.0,0.0,0.0,0.0,0.0,0.0,0.0,0.0,0.0,0.0,0.0,0.0,0.0,0.0,0.0,0.0,0.0,0.0,0.0,0.0,0.0,0.0,0.0,0.0,0.0,0.0,0.0,0.0,0.0,0.0,0.0,0.0,0.0,0.0,0.0,0.0,0.0,0.0,0.0,0.0,0.0,0.0,0.0,0.0,0.0,0.0,0.0,0.0,0.0,0.0,0.0,0.0,0.0,0.0,0.0,0.0,0.0,0.0,0.0,0.0,0.0,0.0,0.0,0.0,0.0,0.0,0.0,0.0,0.0,0.0,0.0,0.0,0.0,0.0,0.0,0.0,0.0,0.0,0.0,0.0,0.0,0.0,0.0,0.0,0.0,0.0,0.0,0.0,0.0,0.0,0.0,0.0,0.0,0.0,0.0,0.0,0.0,0.0,0.0,0.0,0.0,0.0,0.0,0.0,0.0,0.0,0.0,0.0,0.0,0.0,0.0,0.0,0.0,0.0,0.0,0.0,0.0,0.0,0.0,0.0,0.0,0.0,0.0,0.0,0.0,0.0,0.0,0.0,0.0,0.0,0.0,0.0,0.0,0.0,0.0,0.0,0.0,0.0,0.0,0.0,0.0,0.0,0.0,0.0,0.0,0.0,0.0,0.0,0.0,0.0,0.0,0.0,0.0,0.0,0.0,0.0,0.0,0.0,0.0,0.0,0.0,0.0,0.0,0.0,0.0,0.0,0.0,0.0,0.0,0.0,0.0,0.0,0.0,0.0,0.0,0.0,0.0,0.0,0.0,0.0,0.0,0.0,0.0,0.0,0.0,0.0,0.0,0.0,0.0,0.0,0.0,0.0,0.0,0.0,0.0,0.0,0.0,0.0,0.0,0.0,0.0,0.0,0.0,0.0,0.0,0.0,0.0,0.0,0.0,0.0,0.0,0.0,0.0,0.0,0.0,0.0,0.0,0.0,0.0,0.0,0.0,0.0,0.0,0.0,0.0,0.0,0.0,0.0,0.0,0.0,0.0,0.0,0.0,0.0,0.0,0.0,0.0,0.0,0.0,0.0,0.0,0.0,0.0,0.0,0.0,0.0,0.0,0.0,0.0,0.0,0.0,0.0,0.0,0.0,0.0,0.0,0.0,0.0,0.0,0.0,0.0,0.0,0.0,0.0,0.0,0.0,0.0,0.0,0.0,0.0,0.0,0.0,0.0,0.0,0.0,0.0,0.0,0.0,0.0,0.0,0.0,0.0,0.0,0.0,0.0,0.0,0.0,0.0,0.0,0.0,0.0,0.0,0.0,0.0,0.0,0.0,0.0,0.0,0.0,0.0,0.0,0.0,0.0,0.0,0.0,0.0,0.0,0.0,0.0,0.0,0.0,0.0,0.0,0.0,0.0,0.0,0.0,0.0,0.0,0.0,0.0,0.0,0.0,0.0,0.0,0.0,0.0,0.0,0.0,0.0,0.0,0.0,0.0,0.0,0.0,0.0,0.0,0.0,0.0,0.0,0.0,0.0,0.0,0.0,0.0,0.0,0.0,0.0,0.0,0.0,0.0,0.0,0.0,0.0,0.0,0.0,0.0,0.0,0.0,0.0,0.0,0.0,0.0,0.0,0.0,0.0,0.0,0.0,0.0,0.0,0.0,0.0,0.0,0.0,0.0,0.0,0.0,0.0,0.0,0.0,0.0,0.0,0.0,0.0,0.0,0.0,0.0,0.0,0.0,0.0,0.0,0.0,0.0,0.0,0.0,0.0,0.0,0.0,0.0,0.0,0.0,0.0,0.0,0.0,0.0,0.0,0.0,0.0,0.0,0.0,0.0,0.0,0.0,0.0,0.0,0.0,0.0,0.0,0.0,0.0,0.0,0.0,0.0,0.0,0.0,0.0,0.0,0.0,0.0,0.0,0.0,0.0,0.0,0.0,0.0,0.0,0.0,0.0,0.0,0.0,0.0,0.0,0.0,0.0,0.0,0.0,0.0,0.0,0.0,0.0,0.0,0.0,0.0,0.0,0.0,0.0,0.0,0.0,0.0,0.0,0.0,0.0,0.0,0.0,0.0,0.0,0.0,0.0,0.0,0.0,0.0,0.0,0.0,0.0,0.0,0.0,0.0,0.0,0.0,0.0,0.0,0.0,0.0,0.0,0.0,0.0,0.0,0.0,0.0,0.0,0.0,0.0,0.0,0.0,0.0,0.0,0.0,0.0,0.0,0.0,0.0,0.0,0.0,0.0,0.0,0.0,0.0,0.0,0.0,0.0,0.0,0.0,0.0,0.0,0.0,0.0,0.0,0.0,0.0,0.0,0.0,0.0,0.0,0.0,0.0,0.0,0.0,0.0,0.0,0.0,0.0,0.0,0.0,0.0,0.0,0.0,0.0,0.0,0.0,0.0,0.0,0.0,0.0,0.0,0.0,0.0,0.0,0.0,0.0,0.0,0.0,0.0,0.0,0.0,0.0,0.0,0.0,0.0,0.0,0.0,0.0,0.0,0.0,0.0,0.0,0.0,0.0,0.0,0.0,0.0,0.0,0.0,0.0,0.0,0.0,0.0,0.0,0.0,0.0,0.0,0.0,0.0,0.0,0.0,0.0,0.0,0.0,0.0,0.0,0.0,0.0,0.0,0.0,0.0,0.0,0.0,0.0,0.0,0.0,0.0,0.0,0.0,0.0,0.0,0.0,0.0,0.0,0.0,0.0,0.0,0.0,0.0,0.0,0.0,0.0,0.0,0.0,0.0,0.0,0.0,0.0,0.0,0.0,0.0,0.0,0.0,-5.38,0.0,0.0,0.0,0.0,0.0,0.0,0.0,0.0,0.0,0.0,0.0,0.0,0.0,0.0,0.0,0.0,0.0,0.0,0.0,0.0,0.0,0.0,0.0,0.0,0.0,0.0,0.0,0.0,0.0,0.0,0.0,0.0,0.0,0.0,0.0,0.0,0.0,0.0,0.0,0.0,0.0,0.0,0.0,0.0,0.0,0.0,0.0,0.0,0.0,0.0,0.0,0.0,0.0,0.0,0.0,0.0,0.0,0.0,0.0,0.0,0.0,0.0,0.0,0.0,0.0,0.0,0.0,0.0,0.0,0.0,0.0,0.0,0.0,0.0,0.0,0.0,0.0,0.0,0.0,0.0,0.0,0.0,0.0,0.0,0.0,0.0,0.0,0.0,0.0,0.0,0.0,0.0,0.0,0.0,0.0,0.0,0.0,0.0,0.0,0.0,0.0,0.0,0.0,0.0,0.0,0.0,0.0,0.0,0.0,0.0,-5.4651,-5.5025,-5.428,-5.3816,-5.3816,0.0,0.0,0.0,0.0,0.0,0.0,0.0,0.0,0.0,0.0,0.0,0.0,0.0,0.0,0.0,0.0,0.0,0.0,0.0,0.0,0.0,0.0,0.0,0.0,0.0,0.0,0.0,0.0,0.0,0.0,0.0,0.0,0.0,0.0,0.0,0.0,0.0,0.0,0.0,0.0,0.0,0.0,0.0,0.0,0.0,0.0,0.0,0.0,0.0,0.0,0.0,0.0,0.0,0.0,0.0,0.0,0.0,0.0,0.0,0.0,0.0,0.0,0.0,0.0,0.0,0.0,0.0,0.0,0.0,0.0,0.0,0.0,0.0,0.0,0.0,0.0,0.0,0.0,0.0,0.0,0.0,0.0,0.0,0.0,0.0,0.0,0.0,0.0,0.0,0.0,0.0,0.0,0.0,0.0,0.0,0.0,0.0,0.0,0.0,0.0,0.0,0.0,0.0,0.0,0.0,0.0,0.0,0.0,0.0,0.0,0.0,0.0,-5.449,-5.3802,-5.344,0.0,0.0,0.0,0.0,0.0,0.0,0.0,0.0,0.0,0.0,0.0,0.0,0.0,0.0,0.0,0.0,0.0,0.0,0.0,0.0,0.0,0.0,0.0,0.0,0.0,0.0,0.0,0.0,0.0,0.0,0.0,0.0,0.0,0.0,0.0,0.0,0.0,0.0,0.0,0.0,0.0,0.0,0.0,0.0,0.0,0.0,0.0,0.0,0.0,0.0,0.0,0.0,0.0,0.0,0.0,0.0,0.0,0.0,0.0,0.0,0.0,0.0,0.0,0.0,0.0,0.0,0.0,0.0,0.0,0.0,0.0,0.0,0.0,0.0,0.0,0.0,0.0,0.0,0.0,0.0,0.0,0.0,0.0,0.0,0.0,0.0,0.0,0.0,0.0,0.0,0.0,0.0,0.0,0.0,0.0,0.0,0.0,0.0,0.0,0.0,0.0,0.0,0.0,0.0,0.0,0.0,0.0,0.0,0.0,0.0,-5.6247,-5.6953,-5.554,0.0,-5.2715,0.0,0.0,0.0,0.0,0.0,0.0,0.0,0.0,0.0,0.0,0.0,0.0,0.0,0.0,0.0,0.0,0.0,0.0,0.0,0.0,0.0,0.0,0.0,0.0,0.0,0.0,0.0,0.0,0.0,0.0,0.0,0.0,0.0,0.0,0.0,0.0,0.0,0.0,0.0,0.0,0.0,0.0,0.0,0.0,0.0,0.0,0.0,0.0,0.0,0.0,0.0,0.0,0.0,0.0,0.0,0.0,0.0,0.0,0.0,0.0,0.0,0.0,0.0,0.0,0.0,0.0,0.0,0.0,0.0,0.0,0.0,0.0,0.0,0.0,0.0,0.0,0.0,0.0,0.0,0.0,0.0,0.0,0.0,0.0,0.0,0.0,0.0,0.0,0.0,0.0,0.0,0.0,0.0,0.0,0.0,0.0,0.0,0.0,0.0,0.0,0.0,0.0,0.0,0.0,0.0,0.0,0.0,0.0,0.0,0.0,-5.6156,-5.6482,-5.4997,-5.3657,0.0,0.0,0.0,0.0,0.0,0.0,0.0,0.0,0.0,0.0,0.0,0.0,0.0,0.0,0.0,0.0,0.0,0.0,0.0,0.0,0.0,0.0,0.0,0.0,0.0,0.0,0.0,0.0,0.0,0.0,0.0,0.0,0.0,0.0,0.0,0.0,0.0,0.0,0.0,0.0,0.0,0.0,0.0,0.0,0.0,0.0,0.0,0.0,0.0,0.0,0.0,0.0,0.0,0.0,0.0,0.0,0.0,0.0,0.0,0.0,0.0,0.0,0.0,0.0,0.0,0.0,0.0,0.0,0.0,0.0,0.0,0.0,0.0,0.0,0.0,0.0,0.0,0.0,0.0,0.0,0.0,0.0,0.0,0.0,0.0,0.0,0.0,0.0,0.0,0.0,0.0,0.0,0.0,0.0,0.0,0.0,0.0,0.0,0.0,0.0,0.0,0.0,0.0,0.0,0.0,0.0,0.0,0.0,0.0,0.0,-5.5993,-5.5776,-5.5341,-5.4291,-5.3331,-5.2516,0.0,0.0,0.0,0.0,0.0,0.0,0.0,0.0,0.0,0.0,0.0,0.0,0.0,0.0,0.0,0.0,0.0,0.0,0.0,0.0,0.0,0.0,0.0,0.0,0.0,0.0,0.0,0.0,0.0,0.0,0.0,0.0,0.0,0.0,0.0,0.0,0.0,0.0,0.0,0.0,0.0,0.0,0.0,0.0,0.0,0.0,0.0,0.0,0.0,0.0,0.0,0.0,0.0,0.0,0.0,0.0,0.0,0.0,0.0,0.0,0.0,0.0,0.0,0.0,0.0,0.0,0.0,0.0,0.0,0.0,0.0,0.0,0.0,0.0,0.0,0.0,0.0,0.0,0.0,0.0,0.0,0.0,0.0,0.0,0.0,0.0,0.0,0.0,0.0,0.0,0.0,0.0,0.0,0.0,0.0,0.0,0.0,0.0,0.0,0.0,0.0,0.0,0.0,0.0,0.0,0.0,0.0,0.0,-5.5957,-5.5975,-5.5269,-5.3856,-5.3748,-5.3331,0.0,0.0,0.0,0.0,0.0,0.0,0.0,0.0,0.0,0.0,0.0,0.0,0.0,0.0,0.0,0.0,0.0,0.0,0.0,0.0,0.0,0.0,0.0,0.0,0.0,0.0,0.0,0.0,0.0,0.0,0.0,0.0,0.0,0.0,0.0,0.0,0.0,0.0,0.0,0.0,0.0,0.0,0.0,0.0,0.0,0.0,0.0,0.0,0.0,0.0,0.0,0.0,0.0,0.0,0.0,0.0,0.0,0.0,0.0,0.0,0.0,0.0,0.0,0.0,0.0,0.0,0.0,0.0,0.0,0.0,0.0,0.0,0.0,0.0,0.0,0.0,0.0,0.0,0.0,0.0,0.0,0.0,0.0,0.0,0.0,0.0,0.0,0.0,0.0,0.0,0.0,0.0,0.0,0.0,0.0,0.0,0.0,0.0,0.0,0.0,0.0,0.0,0.0,0.0,0.0,0.0,0.0,0.0,0.0,-5.5884,-5.5033,-5.4019,-5.2987,-5.2915,-5.2788,0.0,0.0,0.0,0.0,0.0,0.0,0.0,0.0,0.0,0.0,0.0,0.0,0.0,0.0,0.0,0.0,0.0,0.0,0.0,0.0,0.0,0.0,0.0,0.0,0.0,0.0,0.0,0.0,0.0,0.0,0.0,0.0,0.0,0.0,0.0,0.0,0.0,0.0,0.0,0.0,0.0,0.0,0.0,0.0,0.0,0.0,0.0,0.0,0.0,0.0,0.0,0.0,0.0,0.0,0.0,0.0,0.0,0.0,0.0,0.0,0.0,0.0,0.0,0.0,0.0,0.0,0.0,0.0,0.0,0.0,0.0,0.0,0.0,0.0,0.0,0.0,0.0,0.0,0.0,0.0,0.0,0.0,0.0,0.0,0.0,0.0,0.0,0.0,0.0,0.0,0.0,0.0,0.0,0.0,0.0,0.0,0.0,0.0,0.0,0.0,0.0,0.0,0.0,0.0,0.0,0.0,0.0,0.0,0.0,-5.516,0.0,-5.3041,-5.2534,-5.2498,-5.2498,0.0,0.0,0.0,0.0,0.0,0.0,0.0,0.0,0.0,0.0,0.0,0.0,0.0,0.0,0.0,0.0,0.0,0.0,0.0,0.0,0.0,0.0,0.0,0.0,0.0,0.0,0.0,0.0,0.0,0.0,0.0,0.0,0.0,0.0,0.0,0.0,0.0,0.0,0.0,0.0,0.0,0.0,0.0,0.0,0.0,0.0,0.0,0.0,0.0,0.0,0.0,0.0,0.0,0.0,0.0,0.0,0.0,0.0,0.0,0.0,0.0,0.0,0.0,0.0,0.0,0.0,0.0,0.0,0.0,0.0,0.0,0.0,0.0,0.0,0.0,0.0,0.0,0.0,0.0,0.0,0.0,0.0,0.0,0.0,0.0,0.0,0.0,0.0,0.0,0.0,0.0,0.0,0.0,0.0,0.0,0.0,0.0,0.0,0.0,0.0,0.0,0.0,0.0,0.0,0.0,0.0,0.0,0.0,-5.3675,-5.3657,-5.2933,-5.2516,-5.248,-5.2462,-5.2498,0.0,0.0,0.0,0.0,0.0,0.0,0.0,0.0,0.0,0.0,0.0,0.0,0.0,0.0,0.0,0.0,0.0,0.0,0.0,0.0,0.0,0.0,0.0,0.0,0.0,0.0,0.0,0.0,0.0,0.0,0.0,0.0,0.0,0.0,0.0,0.0,0.0,0.0,0.0,0.0,0.0,0.0,0.0,0.0,0.0,0.0,0.0,0.0,0.0,0.0,0.0,0.0,0.0,0.0,0.0,0.0,0.0,0.0,0.0,0.0,0.0,0.0,0.0,0.0,0.0,0.0,0.0,0.0,0.0,0.0,0.0,0.0,0.0,0.0,0.0,0.0,0.0,0.0,0.0,0.0,0.0,0.0,0.0,0.0,0.0,0.0,0.0,0.0,0.0,0.0,0.0,0.0,0.0,0.0,0.0,0.0,0.0,0.0,0.0,0.0,0.0,0.0,0.0,0.0,0.0,0.0,0.0,0.0,0.0,-5.2063,-5.2335,-5.2226,-5.1719,-5.219,-5.2498,0.0,0.0,0.0,0.0,0.0,0.0,0.0,0.0,0.0,0.0,0.0,0.0,0.0,0.0,0.0,0.0,0.0,0.0,0.0,0.0,0.0,0.0,0.0,0.0,0.0,0.0,0.0,0.0,0.0,0.0,0.0,0.0,0.0,0.0,0.0,0.0,0.0,0.0,0.0,0.0,0.0,0.0,0.0,0.0,0.0,0.0,0.0,0.0,0.0,0.0,0.0,0.0,0.0,0.0,0.0,0.0,0.0,0.0,0.0,0.0,0.0,0.0,0.0,0.0,0.0,0.0,0.0,0.0,0.0,0.0,0.0,0.0,0.0,0.0,0.0,0.0,0.0,0.0,0.0,0.0,0.0,0.0,0.0,0.0,0.0,0.0,0.0,0.0,0.0,0.0,0.0,0.0,0.0,0.0,0.0,0.0,0.0,0.0,0.0,0.0,0.0,0.0,0.0,0.0,0.0,0.0,0.0,0.0,0.0,-5.0841,-5.1629,-5.181,-5.1303,-5.1774,-5.219,-5.248,0.0,0.0,0.0,0.0,0.0,0.0,0.0,0.0,0.0,0.0,0.0,0.0,0.0,0.0,0.0,0.0,0.0,0.0,0.0,0.0,0.0,0.0,0.0,0.0,0.0,0.0,0.0,0.0,0.0,0.0,0.0,0.0,0.0,0.0,0.0,0.0,0.0,0.0,0.0,0.0,0.0,0.0,0.0,0.0,0.0,0.0,0.0,0.0,0.0,0.0,0.0,0.0,0.0,0.0,0.0,0.0,0.0,0.0,0.0,0.0,0.0,0.0,0.0,0.0,0.0,0.0,0.0,0.0,0.0,0.0,0.0,0.0,0.0,0.0,0.0,0.0,0.0,0.0,0.0,0.0,0.0,0.0,0.0,0.0,0.0,0.0,0.0,0.0,0.0,0.0,0.0,0.0,0.0,0.0,0.0,0.0,0.0,0.0,0.0,0.0,0.0,0.0,0.0,0.0,0.0,0.0,0.0,0.0,-4.9893,-5.0733,-5.114,-5.1122,-5.123,-5.1647,0.0,0.0,0.0,0.0,0.0,0.0,0.0,0.0,0.0,0.0,0.0,0.0,0.0,0.0,0.0,0.0,0.0,0.0,0.0,0.0,0.0,0.0,0.0,0.0,0.0,0.0,0.0,0.0,0.0,0.0,0.0,0.0,0.0,0.0,0.0,0.0,0.0,0.0,0.0,0.0,0.0,0.0,0.0,0.0,0.0,0.0,0.0,0.0,0.0,0.0,0.0,0.0,0.0,0.0,0.0,0.0,0.0,0.0,0.0,0.0,0.0,0.0,0.0,0.0,0.0,0.0,0.0,0.0,0.0,0.0,0.0,0.0,0.0,0.0,0.0,0.0,0.0,0.0,0.0,0.0,0.0,0.0,0.0,0.0,0.0,0.0,0.0,0.0,0.0,0.0,0.0,0.0,0.0,0.0,0.0,0.0,0.0,0.0,0.0,0.0,0.0,0.0,0.0,0.0,0.0,0.0,0.0,0.0,0.0,-4.9775,-4.9424,-4.9271,-4.9414,-5.0516,-5.1284,0.0,0.0,0.0,0.0,0.0,0.0,0.0,0.0,0.0,0.0,0.0,0.0,0.0,0.0,0.0,0.0,0.0,0.0,0.0,0.0,0.0,0.0,0.0,0.0,0.0,0.0,0.0,0.0,0.0,0.0,0.0,0.0,0.0,0.0,0.0,0.0,0.0,0.0,0.0,0.0,0.0,0.0,0.0,0.0,0.0,0.0,0.0,0.0,0.0,0.0,0.0,0.0,0.0,0.0,0.0,0.0,0.0,0.0,0.0,0.0,0.0,0.0,0.0,0.0,0.0,0.0,0.0,0.0,0.0,0.0,0.0,0.0,0.0,0.0,0.0,0.0,0.0,0.0,0.0,0.0,0.0,0.0,0.0,0.0,0.0,0.0,0.0,0.0,0.0,0.0,0.0,0.0,0.0,0.0,0.0,0.0,0.0,0.0,0.0,0.0,0.0,0.0,0.0,0.0,0.0,0.0,0.0,0.0,-5.0207,-4.9647,-4.8506,-4.7976,-4.8083,-4.9704,-5.0787,0.0,0.0,0.0,0.0,0.0,0.0,0.0,0.0,0.0,0.0,0.0,0.0,0.0,0.0,0.0,0.0,0.0,0.0,0.0,0.0,0.0,0.0,0.0,0.0,0.0,0.0,0.0,0.0,0.0,0.0,0.0,0.0,0.0,0.0,0.0,0.0,0.0,0.0,0.0,0.0,0.0,0.0,0.0,0.0,0.0,0.0,0.0,0.0,0.0,0.0,0.0,0.0,0.0,0.0,0.0,0.0,0.0,0.0,0.0,0.0,0.0,0.0,0.0,0.0,0.0,0.0,0.0,0.0,0.0,0.0,0.0,0.0,0.0,0.0,0.0,0.0,0.0,0.0,0.0,0.0,0.0,0.0,0.0,0.0,0.0,0.0,0.0,0.0,0.0,0.0,0.0,0.0,0.0,0.0,0.0,0.0,0.0,0.0,0.0,0.0,0.0,0.0,0.0,0.0,0.0,0.0,0.0,0.0,-4.9564,-4.9364,-4.7949,-4.7196,-4.7232,-4.8929,-5.0218,0.0,0.0,0.0,0.0,0.0,0.0,0.0,0.0,0.0,0.0,0.0,0.0,0.0,0.0,0.0,0.0,0.0,0.0,0.0,0.0,0.0,0.0,0.0,0.0,0.0,0.0,0.0,0.0,0.0,0.0,0.0,0.0,0.0,0.0,0.0,0.0,0.0,0.0,0.0,0.0,0.0,0.0,0.0,0.0,0.0,0.0,0.0,0.0,0.0,0.0,0.0,0.0,0.0,0.0,0.0,0.0,0.0,0.0,0.0,0.0,0.0,0.0,0.0,0.0,0.0,0.0,0.0,0.0,0.0,0.0,0.0,0.0,0.0,0.0,0.0,0.0,0.0,0.0,0.0,0.0,0.0,0.0,0.0,0.0,0.0,0.0,0.0,0.0,0.0,0.0,0.0,0.0,0.0,0.0,0.0,0.0,0.0,0.0,0.0,0.0,0.0,0.0,0.0,0.0,0.0,0.0,0.0,0.0,-4.9202,-4.8454,-4.7525,-4.7043,-4.7061,-4.8793,-4.9874,0.0,0.0,0.0,0.0,0.0,0.0,0.0,0.0,0.0,0.0,0.0,0.0,0.0,0.0,0.0,0.0,0.0,0.0,0.0,0.0,0.0,0.0,0.0,0.0,0.0,0.0,0.0,0.0,0.0,0.0,0.0,0.0,0.0,0.0,0.0,0.0,0.0,0.0,0.0,0.0,0.0,0.0,0.0,0.0,0.0,0.0,0.0,0.0,-5.7379,0.0,0.0,0.0,0.0,0.0,0.0,0.0,0.0,0.0,0.0,0.0,0.0,0.0,0.0,0.0,0.0,0.0,0.0,0.0,0.0,0.0,0.0,0.0,0.0,0.0,0.0,0.0,0.0,0.0,0.0,0.0,0.0,0.0,0.0,0.0,0.0,0.0,0.0,0.0,0.0,0.0,0.0,0.0,0.0,0.0,0.0,0.0,0.0,0.0,0.0,0.0,0.0,0.0,0.0,0.0,0.0,0.0,0.0,0.0,-4.9037,-4.8175,-4.7408,-4.7043,-4.7142,-4.8793,-4.9757,0.0,0.0,0.0,0.0,0.0,0.0,0.0,0.0,0.0,0.0,0.0,0.0,0.0,0.0,0.0,0.0,0.0,0.0,0.0,0.0,0.0,0.0,0.0,0.0,0.0,0.0,0.0,0.0,0.0,0.0,0.0,0.0,0.0,0.0,0.0,0.0,0.0,0.0,0.0,0.0,0.0,0.0,0.0,0.0,0.0,0.0,0.0,0.0,0.0,0.0,0.0,0.0,0.0,0.0,0.0,0.0,0.0,0.0,0.0,0.0,0.0,0.0,0.0,0.0,0.0,0.0,0.0,0.0,0.0,0.0,0.0,0.0,0.0,0.0,0.0,0.0,0.0,0.0,0.0,0.0,0.0,0.0,0.0,0.0,0.0,0.0,0.0,0.0,0.0,0.0,0.0,0.0,0.0,0.0,0.0,0.0,0.0,0.0,0.0,0.0,0.0,0.0,0.0,0.0,0.0,0.0,0.0,-4.9704,-4.8889,-4.8015,-4.7337,-4.7097,-4.7393,-4.8892,-4.9747,-4.9955,0.0,0.0,0.0,0.0,0.0,0.0,0.0,0.0,0.0,0.0,0.0,0.0,0.0,0.0,0.0,0.0,0.0,0.0,0.0,0.0,0.0,0.0,0.0,0.0,0.0,0.0,0.0,0.0,0.0,0.0,0.0,0.0,0.0,0.0,0.0,0.0,0.0,0.0,-5.9234,-5.8642,0.0,0.0,0.0,0.0,0.0,0.0,0.0,0.0,-5.7188,0.0,0.0,0.0,0.0,0.0,0.0,0.0,0.0,0.0,0.0,0.0,0.0,0.0,0.0,0.0,0.0,0.0,0.0,0.0,0.0,0.0,0.0,0.0,0.0,0.0,0.0,0.0,0.0,0.0,0.0,0.0,0.0,0.0,0.0,0.0,0.0,0.0,0.0,0.0,0.0,0.0,0.0,0.0,0.0,0.0,0.0,0.0,0.0,0.0,0.0,0.0,0.0,0.0,0.0,0.0,0.0,-4.9704,-4.9418,-4.8639,-4.7229,-4.7051,-4.7365,-4.8181,-4.918,-5.0063,-5.0903,0.0,0.0,0.0,0.0,0.0,0.0,0.0,0.0,0.0,0.0,0.0,0.0,0.0,0.0,0.0,0.0,0.0,0.0,0.0,0.0,0.0,0.0,0.0,0.0,0.0,0.0,0.0,0.0,0.0,0.0,0.0,0.0,0.0,0.0,0.0,0.0,0.0,0.0,0.0,-5.8381,-5.8088,0.0,0.0,0.0,0.0,0.0,0.0,0.0,0.0,-5.7409,0.0,0.0,0.0,0.0,0.0,0.0,0.0,0.0,0.0,0.0,0.0,0.0,0.0,0.0,0.0,0.0,0.0,0.0,0.0,0.0,0.0,0.0,0.0,0.0,0.0,0.0,0.0,0.0,0.0,0.0,0.0,0.0,0.0,0.0,0.0,0.0,0.0,0.0,0.0,0.0,0.0,0.0,0.0,0.0,0.0,0.0,0.0,0.0,0.0,0.0,0.0,0.0,0.0,0.0,0.0,-4.969,-4.946,-4.869,-4.7232,-4.7527,-4.7984,-4.856,-4.9784,-5.0669,0.0,0.0,0.0,0.0,0.0,0.0,0.0,0.0,0.0,0.0,0.0,0.0,0.0,0.0,0.0,0.0,0.0,0.0,0.0,0.0,0.0,0.0,0.0,0.0,0.0,0.0,0.0,0.0,0.0,0.0,0.0,0.0,0.0,0.0,0.0,0.0,0.0,0.0,0.0,0.0,-5.8051,-5.781,-5.7553,0.0,0.0,0.0,0.0,0.0,0.0,-5.7188,-5.7478,0.0,0.0,0.0,0.0,0.0,0.0,0.0,0.0,0.0,0.0,0.0,0.0,0.0,0.0,0.0,0.0,0.0,0.0,0.0,0.0,0.0,0.0,0.0,0.0,0.0,0.0,0.0,0.0,0.0,0.0,0.0,0.0,0.0,0.0,0.0,0.0,0.0,0.0,0.0,0.0,0.0,0.0,0.0,0.0,0.0,0.0,0.0,0.0,0.0,0.0,0.0,0.0,0.0,0.0,0.0,-5.0045,-4.9672,-4.8972,-4.7877,-4.8201,-4.8659,-4.9207,-5.0416,-5.1248,0.0,0.0,0.0,0.0,0.0,0.0,0.0,0.0,0.0,0.0,0.0,0.0,0.0,0.0,0.0,0.0,0.0,0.0,0.0,0.0,0.0,0.0,0.0,0.0,0.0,0.0,0.0,0.0,0.0,0.0,0.0,0.0,0.0,0.0,0.0,0.0,0.0,0.0,0.0,0.0,0.0,-5.7504,-5.7388,-5.78,0.0,0.0,0.0,0.0,-5.7047,-5.6971,0.0,0.0,0.0,0.0,0.0,0.0,0.0,0.0,0.0,0.0,0.0,0.0,0.0,0.0,0.0,0.0,0.0,0.0,0.0,0.0,0.0,0.0,0.0,0.0,0.0,0.0,0.0,0.0,0.0,0.0,0.0,0.0,0.0,0.0,0.0,0.0,0.0,0.0,0.0,0.0,0.0,0.0,0.0,0.0,0.0,0.0,0.0,0.0,0.0,0.0,0.0,0.0,0.0,0.0,0.0,0.0,-5.0958,-5.0099,-4.9621,-4.9405,-4.883,-4.9217,-5.0759,-5.104,-5.1519,0.0,0.0,0.0,0.0,0.0,0.0,0.0,0.0,0.0,0.0,0.0,0.0,0.0,0.0,0.0,0.0,0.0,0.0,0.0,0.0,0.0,0.0,0.0,0.0,0.0,0.0,0.0,0.0,0.0,0.0,0.0,0.0,0.0,0.0,0.0,0.0,0.0,0.0,0.0,0.0,0.0,-5.7406,-5.7257,-5.7279,-5.7297,0.0,0.0,-5.6233,-5.6115,-5.6143,0.0,0.0,0.0,0.0,0.0,0.0,0.0,0.0,0.0,0.0,0.0,0.0,0.0,0.0,0.0,0.0,0.0,0.0,0.0,0.0,0.0,0.0,0.0,0.0,0.0,0.0,0.0,0.0,0.0,0.0,0.0,0.0,0.0,0.0,0.0,0.0,0.0,0.0,0.0,0.0,0.0,0.0,0.0,0.0,0.0,0.0,0.0,0.0,0.0,0.0,0.0,0.0,0.0,0.0,0.0,-5.1989,-5.1212,-5.0741,-5.0298,-4.9956,-4.9938,-5.0362,-5.1158,-5.1674,-5.2072,0.0,0.0,0.0,0.0,0.0,0.0,0.0,0.0,0.0,0.0,0.0,0.0,0.0,0.0,0.0,0.0,0.0,0.0,0.0,0.0,0.0,0.0,0.0,0.0,0.0,0.0,0.0,0.0,0.0,0.0,0.0,0.0,0.0,0.0,0.0,0.0,0.0,0.0,0.0,0.0,0.0,0.0,-5.6591,-5.6518,0.0,0.0,0.0,-5.5377,-5.5383,0.0,0.0,0.0,0.0,0.0,0.0,0.0,0.0,0.0,0.0,0.0,0.0,0.0,0.0,0.0,0.0,0.0,0.0,0.0,0.0,0.0,0.0,0.0,0.0,0.0,0.0,0.0,0.0,0.0,0.0,0.0,0.0,0.0,0.0,0.0,0.0,0.0,0.0,0.0,0.0,0.0,0.0,0.0,0.0,0.0,0.0,0.0,0.0,0.0,0.0,0.0,0.0,0.0,0.0,0.0,0.0,0.0,-5.1611,-5.1302,-5.0995,-5.0705,-5.1022,-5.1284,-5.1593,-5.219,0.0,0.0,0.0,0.0,0.0,0.0,0.0,0.0,0.0,0.0,0.0,0.0,0.0,0.0,0.0,0.0,0.0,0.0,0.0,0.0,0.0,0.0,0.0,0.0,0.0,0.0,0.0,-6.133,0.0,0.0,0.0,0.0,0.0,0.0,0.0,0.0,0.0,0.0,0.0,0.0,0.0,0.0,-5.6663,-5.6066,-5.5848,-5.5522,0.0,0.0,-5.4635,-5.4605,-5.5233,-5.574,0.0,0.0,0.0,0.0,0.0,0.0,0.0,0.0,0.0,0.0,0.0,0.0,0.0,0.0,0.0,0.0,0.0,0.0,0.0,0.0,0.0,0.0,0.0,0.0,0.0,0.0,0.0,0.0,0.0,0.0,0.0,0.0,0.0,0.0,0.0,0.0,0.0,0.0,0.0,0.0,0.0,0.0,0.0,0.0,0.0,0.0,0.0,0.0,0.0,0.0,0.0,0.0,0.0,0.0,0.0,-5.2426,-5.1665,-5.1629,-5.2263,-5.1647,-5.1647,-5.2389,-5.2462,-5.2498,0.0,0.0,0.0,0.0,0.0,0.0,0.0,0.0,0.0,0.0,0.0,0.0,0.0,0.0,0.0,0.0,0.0,0.0,0.0,0.0,0.0,0.0,0.0,0.0,0.0,0.0,0.0,0.0,0.0,0.0,0.0,0.0,0.0,0.0,0.0,0.0,0.0,0.0,0.0,0.0,0.0,-5.6047,-5.5993,-5.5414,-5.4961,0.0,0.0,-5.3791,-5.3785,-5.4454,-5.4943,-5.5004,0.0,0.0,0.0,0.0,0.0,0.0,0.0,0.0,0.0,0.0,0.0,0.0,0.0,0.0,0.0,0.0,0.0,0.0,0.0,0.0,0.0,0.0,0.0,0.0,0.0,0.0,0.0,0.0,0.0,0.0,0.0,0.0,0.0,0.0,0.0,0.0,0.0,0.0,0.0,0.0,0.0,0.0,0.0,0.0,0.0,0.0,0.0,0.0,0.0,0.0,0.0,0.0,0.0,-5.3313,-5.2516,-5.2208,-5.219,-5.248,-5.219,-5.219,-5.248,-5.2498,-5.2498,0.0,0.0,0.0,0.0,0.0,0.0,0.0,0.0,0.0,0.0,0.0,0.0,0.0,0.0,0.0,0.0,0.0,0.0,0.0,0.0,0.0,0.0,0.0,0.0,0.0,0.0,0.0,0.0,-6.0513,-5.975,-5.9985,0.0,0.0,0.0,0.0,0.0,0.0,0.0,0.0,0.0,0.0,-5.5649,-5.4707,-5.4327,0.0,0.0,-5.3168,-5.294,-5.2976,-5.4055,-5.4907,-5.4923,-5.6165,0.0,0.0,0.0,0.0,0.0,0.0,0.0,0.0,0.0,0.0,0.0,0.0,0.0,0.0,0.0,0.0,0.0,0.0,0.0,0.0,0.0,0.0,0.0,0.0,0.0,0.0,0.0,0.0,0.0,0.0,0.0,0.0,0.0,0.0,0.0,0.0,0.0,0.0,0.0,0.0,0.0,0.0,0.0,0.0,0.0,0.0,0.0,0.0,0.0,0.0,0.0,0.0,-5.3548,-5.2498,-5.2498,-5.2498,-5.2498,-5.2498,-5.2498,-5.2498,-5.2498,-5.2498,0.0,0.0,0.0,0.0,0.0,0.0,0.0,0.0,0.0,0.0,0.0,0.0,0.0,0.0,0.0,0.0,0.0,0.0,0.0,0.0,0.0,0.0,0.0,0.0,0.0,0.0,0.0,0.0,-6.0417,-5.987,-6.0416,0.0,0.0,0.0,0.0,0.0,0.0,0.0,0.0,0.0,0.0,-5.4907,-5.3856,-5.3494,-5.3132,-5.2589,-5.2498,-5.2589,-5.2824,-5.4001,-5.4948,-5.5207,0.0,0.0,0.0,0.0,0.0,0.0,0.0,0.0,0.0,0.0,0.0,0.0,0.0,0.0,0.0,0.0,0.0,0.0,0.0,0.0,0.0,0.0,0.0,0.0,0.0,0.0,0.0,0.0,0.0,0.0,-5.3622,0.0,0.0,0.0,0.0,0.0,0.0,0.0,0.0,0.0,0.0,0.0,0.0,0.0,0.0,0.0,0.0,0.0,0.0,0.0,0.0,0.0,0.0,-5.4092,-5.2534,-5.2498,-5.2498,-5.2498,-5.2498,-5.2498,-5.2498,-5.2498,-5.2498,-5.2498,0.0,0.0,0.0,0.0,0.0,0.0,0.0,0.0,0.0,0.0,0.0,0.0,0.0,0.0,0.0,0.0,0.0,0.0,0.0,0.0,0.0,0.0,0.0,0.0,0.0,0.0,-6.0698,-6.0257,-6.0273,0.0,0.0,0.0,0.0,0.0,0.0,0.0,0.0,0.0,0.0,-5.4689,-5.3748,-5.3693,-5.3023,-5.2534,-5.2498,-5.2498,-5.277,-5.3483,-5.4345,-5.5129,0.0,0.0,0.0,0.0,0.0,0.0,0.0,0.0,0.0,0.0,0.0,0.0,0.0,0.0,0.0,0.0,0.0,0.0,0.0,0.0,0.0,0.0,0.0,0.0,0.0,0.0,0.0,-5.2293,-5.2376,0.0,0.0,0.0,0.0,0.0,0.0,0.0,0.0,0.0,0.0,0.0,-5.6355,-5.6355,0.0,0.0,0.0,0.0,0.0,0.0,0.0,0.0,0.0,0.0,0.0,0.0,-5.4381,-5.3313,-5.2752,-5.2498,-5.2498,-5.2498,-5.2498,-5.2498,-5.2498,-5.2498,-5.2498,0.0,0.0,0.0,0.0,0.0,0.0,0.0,0.0,0.0,0.0,0.0,0.0,0.0,0.0,0.0,0.0,0.0,0.0,0.0,0.0,0.0,0.0,0.0,0.0,0.0,-6.0208,0.0,0.0,0.0,0.0,0.0,0.0,0.0,0.0,0.0,0.0,0.0,-5.6146,-5.5359,-5.4363,-5.3494,-5.2969,-5.2679,-5.2498,0.0,0.0,0.0,0.0,0.0,0.0,0.0,0.0,0.0,0.0,0.0,0.0,0.0,0.0,-5.6808,-5.7822,-5.8021,-5.7822,-5.7333,0.0,0.0,0.0,0.0,0.0,0.0,0.0,0.0,0.0,0.0,0.0,0.0,0.0,0.0,-5.2554,0.0,-5.277,0.0,0.0,0.0,0.0,0.0,0.0,0.0,0.0,-5.6374,-5.6016,-5.5592,-5.5592,-5.5592,0.0,-5.6124,-5.6612,0.0,0.0,0.0,0.0,0.0,0.0,0.0,0.0,-5.4411,-5.3313,-5.277,-5.2498,-5.2498,-5.2498,-5.2498,-5.2498,-5.2498,-5.2498,-5.2498,-5.2498,-5.286,0.0,0.0,0.0,0.0,0.0,0.0,0.0,0.0,0.0,0.0,0.0,0.0,0.0,0.0,0.0,0.0,0.0,0.0,0.0,0.0,0.0,0.0,0.0,-5.9486,0.0,0.0,0.0,0.0,0.0,0.0,0.0,0.0,0.0,-5.7899,-5.6606,-5.5384,-5.4581,-5.3784,-5.3096,-5.257,0.0,0.0,0.0,0.0,0.0,0.0,0.0,-5.3831,-5.4074,-5.4526,-5.4919,-5.4907,-5.4907,-5.4907,-5.4907,0.0,0.0,-5.6201,-5.64,-5.6269,-5.5698,-5.5595,-5.545,-5.4979,-5.4907,-5.4816,0.0,0.0,0.0,0.0,0.0,0.0,0.0,0.0,-5.2999,-5.2809,0.0,-5.3345,0.0,0.0,0.0,0.0,0.0,-5.6867,0.0,0.0,-5.586,-5.5537,-5.5482,-5.5464,-5.55,-5.5519,-5.5519,-5.5556,-5.5647,-5.6997,0.0,0.0,0.0,0.0,0.0,0.0,-5.4197,-5.2671,-5.2516,-5.2498,-5.248,-5.248,-5.2498,-5.248,-5.2498,-5.2498,-5.2498,-5.2498,-5.2842,-5.3621,-5.4506,0.0,0.0,0.0,0.0,0.0,0.0,0.0,0.0,0.0,0.0,0.0,0.0,0.0,0.0,0.0,0.0,0.0,0.0,0.0,0.0,-5.8799,0.0,0.0,0.0,0.0,0.0,0.0,0.0,0.0,0.0,0.0,-5.6164,-5.5438,-5.4635,-5.382,0.0,0.0,0.0,0.0,-5.2498,-5.2498,-5.2498,-5.277,-5.3512,-5.3642,-5.3907,-5.4635,0.0,0.0,-5.4828,-5.4816,-5.478,-5.4816,-5.4744,-5.484,-5.4824,-5.4918,-5.4914,-5.4858,-5.4862,-5.4854,-5.481,-5.4653,-5.4508,-5.137,0.0,0.0,0.0,0.0,-5.2103,-5.2011,-5.1861,-5.1648,-5.1467,-5.1357,-5.206,0.0,0.0,0.0,0.0,0.0,0.0,-5.5585,-5.5053,-5.484,-5.4436,-5.3904,-5.3904,-5.3885,-5.3904,-5.4473,-5.473,-5.4803,-5.5713,-5.652,-5.7088,0.0,0.0,0.0,0.0,-5.461,-5.3581,-5.2917,-5.2563,-5.2581,-5.2526,-5.2526,-5.2563,-5.2672,-5.2717,-5.2735,-5.2735,-5.2799,-5.3035,-5.3845,0.0,0.0,0.0,0.0,0.0,0.0,0.0,0.0,0.0,0.0,0.0,0.0,0.0,0.0,0.0,0.0,0.0,0.0,0.0,-5.8474,-5.8731,-5.9154,0.0,0.0,0.0,0.0,0.0,0.0,0.0,0.0,0.0,-5.4957,-5.451,-5.4164,0.0,0.0,-5.2536,-5.248,-5.2498,-5.2498,-5.2498,-5.2498,0.0,-5.2806,-5.2852,-5.2943,-5.315,-5.3179,-5.3207,-5.3168,-5.3186,-5.3186,-5.3204,-5.3186,-5.3204,-5.3218,-5.414,-5.4623,-5.4223,-5.4044,-5.3862,-5.3342,-5.3186,-5.315,-5.0305,-5.0844,-5.1432,-5.1694,-5.1728,-5.1644,-5.1575,-5.1537,-5.125,-5.1025,-5.0943,-5.1568,-5.2212,-5.2992,-5.4125,0.0,0.0,0.0,-5.4858,-5.4381,-5.4069,-5.3683,-5.3225,-5.3206,-5.3206,-5.3225,-5.3702,-5.3922,-5.3959,-5.473,-5.5372,-5.5868,0.0,0.0,-5.567,-5.5085,-5.4383,-5.3553,-5.2953,-5.2698,-5.2654,-5.2645,-5.2645,-5.2717,-5.2761,-5.2806,-5.2806,-5.2806,-5.2806,-5.2824,-5.3616,-5.4117,0.0,0.0,0.0,0.0,0.0,0.0,0.0,0.0,0.0,0.0,0.0,-6.1629,-6.1135,0.0,0.0,0.0,-5.9208,-5.8547,-5.8052,-5.8437,0.0,0.0,0.0,0.0,0.0,0.0,0.0,-5.6914,-5.652,-5.5925,-5.4917,-5.4653,-5.4308,-5.3499,-5.3008,-5.2672,-5.2554,0.0,-5.2635,-5.2915,-5.2969,-5.3096,-5.3403,-5.3461,-5.338,-5.3044,-5.2979,-5.2824,-5.2534,-5.2498,-5.2498,-5.2498,-5.2498,-5.2498,-5.2498,-5.3313,-5.382,-5.3334,-5.3225,-5.3062,-5.257,-5.2498,-5.2498,-4.9452,-4.9706,-5.1072,-5.1659,-5.1705,-5.1645,-5.1659,-5.1692,-5.1297,-5.112,-5.1176,-5.1661,-5.2307,-5.3206,-5.4755,0.0,-5.5416,-5.462,-5.4308,-5.4252,-5.3537,-5.3206,-5.3206,-5.3206,-5.3206,-5.3206,-5.328,-5.3298,-5.3371,-5.4142,-5.4473,-5.4436,-5.5133,-5.5089,-5.4261,-5.4224,-5.376,-5.2868,-5.2806,-5.2824,-5.2806,-5.2806,-5.2824,-5.2806,-5.2824,-5.2806,-5.2806,-5.2806,-5.2824,-5.2868,-5.3668,-5.4115,-5.417,0.0,0.0,0.0,0.0,0.0,0.0,0.0,0.0,0.0,0.0,0.0,0.0,0.0,0.0,0.0,-5.8437,0.0,-5.7978,-5.7978,0.0,0.0,0.0,-5.8309,-5.9043,-5.7813,-5.6877,-5.6822,0.0,0.0,-5.5592,-5.5611,-5.4954,-5.3251,-5.3006,-5.2943,-5.2835,-5.2845,-5.3035,-5.3722,-5.3802,-5.4055,-5.4599,-5.476,-5.4517,-5.3896,-5.3795,-5.3548,-5.2951,-5.277,-5.2715,-5.2788,-5.2697,-5.2715,-5.2725,-5.2816,-5.2589,-5.2707,-5.2589,-5.2516,-5.2498,-5.2498,-5.2498,-4.9544,-4.9642,-5.0037,-5.0225,-5.0214,-5.0225,-5.0127,-4.9997,-4.9902,-5.0094,-5.0559,-5.1176,-5.2192,-5.3418,-5.3806,-5.399,-5.399,-5.3705,-5.3553,-5.3553,-5.3322,-5.3206,-5.3206,-5.3206,-5.3206,-5.3243,-5.3812,-5.4124,-5.4161,-5.4913,-5.4987,-5.4436,-5.4583,-5.4583,-5.4356,-5.4356,-5.3952,-5.3121,-5.2999,-5.2893,-5.2806,-5.2893,-5.2955,-5.2937,-5.306,-5.3121,-5.3121,-5.3121,-5.3103,-5.3121,-5.3305,-5.3439,-5.3457,-5.5005,0.0,0.0,0.0,0.0,0.0,0.0,0.0,0.0,0.0,-5.9703,-5.9501,0.0,-5.851,0.0,-5.8107,-5.7978,-5.7978,-5.7978,0.0,0.0,-5.8107,-5.807,-5.8253,-5.7941,-5.7483,-5.6877,-5.661,-5.6268,-5.5647,-5.5587,-5.545,-5.499,-5.4828,-5.472,-5.4629,-5.449,-5.4498,-5.4633,-5.4629,-5.4653,-5.493,-5.4919,-5.4876,-5.4621,-5.461,-5.4544,-5.4345,-5.4327,-5.4327,-5.4327,-5.4327,-5.432,-5.4309,-5.3844,-5.3453,-5.3398,-5.2925,-5.2498,-5.2498,-5.2498,-5.2498,-4.9634,-4.973,-5.0118,-5.0326,-5.0307,-4.9891,-4.9852,-5.0105,-5.0052,-5.0416,-5.1058,-5.1653,-5.2549,-5.3621,-5.3561,-5.3764,-5.4097,-5.3976,-5.4119,-5.4469,-5.4381,-5.4356,-5.4375,-5.4314,-5.4271,-5.4289,-5.4711,-5.4932,-5.4968,-5.5372,-5.5372,-5.4932,-5.4932,-5.4932,-5.4913,-5.4583,-5.4014,-5.3225,-5.3121,-5.3042,-5.2974,-5.306,-5.3268,-5.3598,-5.3347,-5.3371,-5.372,-5.3408,-5.3206,-5.3206,-5.3206,-5.3371,-5.3739,-5.4913,-5.5757,0.0,0.0,0.0,0.0,0.0,0.0,0.0,0.0,0.0,0.0,0.0,-5.7978,-5.7978,-5.7978,-5.7978,-5.7978,-5.7978,-5.7978,-5.7978,-5.7978,-5.7978,-5.7978,-5.7685,-5.7299,-5.6859,-5.6801,-5.6599,-5.6198,-5.6456,-5.6649,-5.6657,-5.6612,-5.6246,-5.5432,-5.5212,-5.5257,-5.5556,-5.56,-5.5686,-5.5946,-5.6006,-5.5853,-5.5487,-5.5406,-5.5287,-5.4979,-5.4907,-5.4907,-5.4907,-5.4907,-5.4919,-5.4869,-5.4578,-5.4241,-5.4186,-5.3885,-5.3331,-5.2643,-5.2498,-5.2498,-5.0032,-5.0185,-5.0884,-5.1272,-5.128,-5.0412,-5.0487,-5.115,-5.1051,-5.1419,-5.2132,-5.2669,-5.3292,-5.387,-5.3849,-5.4237,-5.496,-5.4933,-5.5277,-5.5923,-5.5834,-5.581,-5.5828,-5.568,-5.5618,-5.5636,-5.5746,-5.5802,-5.5783,-5.5831,-5.5831,-5.5757,-5.5757,-5.5702,-5.5574,-5.5005,-5.4326,-5.3537,-5.3427,-5.3408,-5.3518,-5.3408,-5.3739,-5.4473,-5.3867,-5.3849,-5.4491,-5.3885,-5.3518,-5.3518,-5.35,-5.383,-5.4528,-5.5299,-5.6069,0.0,-5.7556,0.0,0.0,0.0,0.0,0.0,0.0,0.0,0.0,-5.7978,-5.7978,-5.7978,-5.7978,-5.7978,-5.7978,-5.7978,-5.7978,-5.7978,-5.7978,-5.7978,-5.796,-5.7373,-5.6969,-5.6969,-5.6967,-5.6948,-5.6969,-5.7574,-5.7978,-5.7886,-5.785,-5.7363,-5.6099,-5.5816,-5.6008,-5.6499,-5.6572,-5.6715,-5.7139,-5.737,-5.7066,-5.641,-5.6228,-5.597,-5.5444,-5.5317,-5.5281,-5.5299,-5.5305,-5.5269,-5.5196,-5.516,-5.5051,-5.5033,-5.4858,-5.4315,-5.3114,-5.2715,-5.2625,-5.1782,-5.1849,-5.2039,-5.2191,-5.2257,-5.2049,-5.2011,-5.2049,-5.2038,-5.2409,-5.308,-5.3837,-5.4221,-5.4343,-5.4873,-5.5211,-5.5416,-5.5804,-5.6076,-5.6225,-5.6002,-5.59,-5.59,-5.5858,-5.5839,-5.5895,-5.6429,-5.6735,-5.6735,-5.7271,-5.7207,-5.6602,-5.6583,-5.6253,-5.5647,0.0,0.0,0.0,-5.4509,-5.4473,-5.5078,-5.4509,-5.4546,-5.5335,-5.5225,0.0,-5.5354,-5.5225,-5.5133,-5.5133,-5.5133,0.0,0.0,0.0,0.0,0.0,0.0,0.0,0.0,0.0,0.0,0.0,-5.8217,-5.8162,-5.7997,-5.7978,-5.7978,-5.7978,-5.7978,-5.7978,-5.7978,-5.7978,-5.7978,-5.7978,-5.7978,-5.7978,-5.7978,-5.7831,-5.7776,-5.7776,-5.7758,-5.7785,-5.774,-5.7923,-5.7978,-5.7978,-5.7978,-5.7886,-5.751,-5.7336,-5.7371,-5.7507,-5.7416,-5.7394,-5.7534,-5.7565,-5.751,-5.7286,-5.7286,-5.7176,-5.7013,-5.6946,-5.6884,-5.6848,-5.6822,-5.6736,-5.6736,-5.6269,-5.5785,-5.5794,-5.5352,-5.4621,-5.3664,-5.3476,-5.3277,-5.2313,0.0,-5.2883,-5.3101,0.0,-5.3603,-5.3745,-5.366,-5.3262,-5.3499,-5.4156,-5.451,-5.4861,-5.5211,-5.5525,-5.6115,-5.6797,-5.7005,-5.7301,-5.7614,-5.7412,-5.727,-5.7288,-5.7162,-5.7119,-5.7137,-5.7519,-5.7652,-5.7626,-5.7949,-5.7859,-5.7391,-5.7391,-5.7189,-5.6804,-5.7189,-5.6987,-5.6198,-5.539,-5.5188,-5.5556,-5.5188,-5.5372,-5.6143,-5.5794,0.0,0.0,0.0,0.0,0.0,0.0,0.0,0.0,0.0,0.0,-5.7373,-5.7776,-5.7978,-5.7978,-5.7978,-5.7978,-5.7978,-5.7978,-5.7978,-5.7978,-5.7978,-5.7978,-5.7978,-5.7978,-5.7978,-5.7978,-5.7978,-5.7978,-5.7978,-5.7978,-5.7978,-5.7978,-5.7978,-5.7978,-5.7978,-5.7978,-5.7978,-5.7978,-5.7978,-5.7978,-5.7978,-5.7978,-5.8015,-5.7978,-5.7932,-5.7904,-5.7886,-5.7867,-5.7784,-5.7719,-5.769,-5.7653,-5.7617,-5.7606,-5.7583,-5.7583,-5.7553,-5.7486,-5.7504,-5.7437,-5.7406,-5.7375,-5.7075,-5.6772,-5.669,-5.6391,-5.5858,-5.5051,-5.4562,-5.4055,-5.2807,-5.294,-5.3708,-5.4049,-5.4096,-5.4808,-5.5149,-5.5099,0.0,0.0,0.0,-5.4941,-5.5356,-5.6052,-5.616,-5.6918,-5.8178,-5.822,-5.8522,-5.9024,-5.8843,-5.8799,-5.8739,-5.8566,-5.848,-5.848,-5.8418,-5.8375,-5.8223,-5.8242,-5.8152,-5.8042,-5.7997,-5.7978,-5.7978,-5.7978,-5.7666,-5.7005,-5.6216,-5.5868,-5.6014,-5.5868,-5.6198,-5.6987,-5.6363,-5.6326,-5.6987,-5.6381,-5.6014,-5.6014,-5.6014,-5.6326,-5.6969,-5.7024,-5.7299,-5.7923,-5.7978,-5.7978,-5.7978,-5.7978,-5.7978,-5.7978,-5.7978,-5.7978,-5.7978,-5.7978,-5.7978,-5.7978,-5.7978,-5.7978,-5.7978,-5.7978,-5.7978,-5.7978,-5.7978,-5.7978,-5.7978,-5.7978,-5.7978,-5.7997,-5.8153,-5.8244,-5.8253,-5.84,-5.8419,-5.8437,-5.8547,-5.8419,-5.8382,-5.8217,-5.7978,-5.7978,-5.7978,-5.796,-5.7859,-5.7831,-5.7812,-5.7702,-5.77,-5.7679,-5.7649,-5.7649,-5.7649,-5.7631,-5.7601,-5.7571,-5.7595,-5.7533,-5.7556,-5.7455,-5.746,-5.7216,-5.6472,-5.5789,-5.51,-5.461,-5.4677,-5.4829,-5.4969,-5.4996,-5.5119,-5.5229,-5.5339,-5.5034,-5.4998,-5.5094,-5.5085,-5.5541,-5.6368,-5.7013,-5.7737,-5.8538,-5.9122,-5.9342,-5.9253,-5.9177,-5.9061,-5.8945,-5.8881,-5.8818,-5.8836,-5.8572,-5.8468,-5.8425,-5.8268,-5.8197,-5.8152,-5.8042,-5.7978,-5.7978,-5.7978,-5.7941,-5.7813,-5.7042,-5.695,-5.7629,-5.6987,-5.7024,-5.7776,-5.7703,-5.7703,-5.7813,-5.7685,-5.7666,-5.7648,-5.7666,-5.7721,-5.7813,-5.7813,-5.7886,-5.7978,-5.7978,-5.7978,-5.7978,-5.7978,-5.7978,-5.7978,-5.7978,-5.7978,-5.7978,-5.7978,-5.7978,-5.7978,-5.7978,-5.7978,-5.7978,-5.7978,-5.7978,-5.7978,-5.7978,-5.7978,-5.8033,-5.8033,-5.8052,-5.8107,-5.864,-5.9044,-5.9079,-5.9575,-5.9924,-5.9997,-5.9813,-5.9979,-5.9722,-5.8859,-5.807,-5.7978,-5.7978,-5.7978,-5.796,-5.796,-5.7932,-5.7941,-5.7914,-5.7886,-5.7886,-5.7839,-5.7792,-5.7792,-5.7697,-5.7601,-5.7619,-5.7571,-5.7589,-5.7583,-5.7571,-5.7462,-5.7279,-5.7104,-5.6582,-5.5057,-5.5085,-5.5121,-5.5176,-5.5203,-5.5262,-5.5352,-5.5396,-5.5333,-5.5288,-5.532,-5.5785,-5.6427,-5.7186,-5.8016,-5.8718,-5.9362,-5.963,-5.9647,-5.9508,-5.9327,-5.9253,-5.914,-5.9022,-5.8921,-5.8918,-5.8758,-5.8656,-5.8511,-5.8381,-5.8312,-5.8197,-5.8042,-5.7978,-5.7978,-5.7978,-5.7978,-5.7978,-5.7629,-5.7629,-5.7978,-5.7629,-5.7629,-5.7978,-5.7978,-5.7978,-5.7978,-5.7978,-5.7978,-5.7978,-5.7978,-5.7978,-5.7978,-5.7978,-5.7978,-5.7978,-5.7978,-5.7978,-5.7978,-5.7978,-5.7978,-5.7978,-5.7978,-5.7978,-5.7978,-5.7978,-5.7978,-5.7978,-5.7978,-5.7978,-5.7978,-5.7978,-5.7978,-5.7978,-5.7978,-5.818,-5.8565,-5.8657,-5.8822,-5.9226,-5.9585,-5.9853,-5.9832,-6.0169,-6.0389,-6.0419,-6.0419,-6.0419,-6.0438,-5.9832,-5.9134,-5.8767,-5.8657,-5.8437,-5.8107,-5.7978,-5.7978,-5.7978,-5.7978,-5.7978,-5.7978,-5.795,-5.7886,-5.7904,-5.7857,-5.7839,-5.7792,-5.7792,-5.7792,-5.7745,-5.769,-5.7671,-5.7613,-5.7583,-5.7115,-5.5121,-5.5121,-5.5222,-5.5229,-5.5255,-5.5383,-5.5413,-5.5413,-5.5504,-5.5504,-5.5571,-5.6405,-5.72,-5.792,-5.8754,-5.9464,-6.003,-6.0013,-5.9899,-5.9734,-5.9508,-5.9419,-5.9346,-5.914,-5.9042,-5.8961,-5.894,-5.8799,-5.8614,-5.8511,-5.84,-5.8215,-5.8272,-5.8226,-5.7978,-5.7978,-5.7978,-5.7978,-5.7978,-5.7978,-5.7978,-5.7978,-5.7978,-5.7978,-5.7978,-5.7978,-5.7978,-5.7978,-5.7978,-5.7978,-5.7978,-5.7978,-5.7978,-5.7978,-5.7978,-5.7978,-5.7978,-5.7978,-5.7978,-5.7978,-5.7978,-5.7978,-5.7978,-5.7978,-5.7978,-5.7978,-5.7978,-5.7978,-5.7978,-5.7978,-5.7978,-5.7978,-5.8052,-5.8217,-5.8272,-5.8639,-5.9336,-5.9483,-5.9685,-6.0291,-6.054,-6.0669,-6.0694,-6.083,-6.1013,-6.1062,-6.0951,-6.0951,-6.0951,-6.0951,-6.0621,-5.9924,-5.9483,-5.8969,-5.8373,-5.807,-5.7997,-5.7978,-5.7978,-5.7978,-5.7978,-5.7978,-5.7978,-5.7997,-5.7997,-5.7978,-5.7978,-5.7978,-5.7932,-5.7839,-5.7831,-5.7794,-5.7726,-5.7697,-5.7419,-5.5203,-5.5203,-5.5339,-5.5377,-5.5384,-5.5451,-5.5485,-5.5512,-5.5554,-5.5596,-5.5669,-5.6448,-5.7268,-5.8106,-5.8879,-5.966,-6.0323,-6.0294,-6.0125,-5.9918,-5.9853,-5.9734,-5.9562,-5.9383,-5.9253,-5.9234,-5.904,-5.8937,-5.8933,-5.8688,-5.8437,-5.8334,-5.8915,-5.8888,-5.8125,-5.8033,-5.8015,-5.7997,-5.7978,-5.7978,-5.7978,-5.7978,-5.7978,-5.7978,-5.7978,-5.7978,-5.7978,-5.7978,-5.7978,-5.7978,-5.7978,-5.7978,-5.7978,-5.7978,-5.7978,-5.7978,-5.7978,-5.7978,-5.7978,-5.7978,-5.7978,-5.7978,-5.7978,-5.7978,-5.7978,-5.7978,-5.7978,-5.8015,-5.7997,-5.7978,-5.7978,-5.8033,-5.8364,-5.9024,-5.9098,-5.941,-6.0126,-6.0309,-6.0327,-6.0382,-6.108,-6.1496,-6.1539,-6.1998,-6.2456,-6.2346,-6.2291,-6.2291,-6.2328,-6.2328,-6.2108,-6.1282,-6.0236,-5.9365,-5.9044,-5.8447,-5.8162,-5.8052,-5.7997,-5.7997,-5.7978,-5.7978,-5.7978,-5.7978,-5.7978,-5.7978,-5.7978,-5.7978,-5.7978,-5.7932,-5.796,-5.796,-5.7932,-5.7857,-5.7653,-5.532,-5.5333,-5.5377,-5.544,-5.5465,-5.5523,-5.557,-5.5573,-5.5638,-5.566,-5.5756,-5.6541,-5.7382,-5.8218,-5.9523,-6.0233,-6.0499,-6.0408,-6.0323,-6.0186,-5.9982,-5.9853,-5.9753,-5.9562,-5.9419,-5.929,-5.9215,-5.9323,-5.9707,-5.9966,-6.0036,-5.9878,-6.0056,-5.9909,-5.9522,-5.9457,-5.9189,-5.8731,-5.8712,-5.8492,-5.8052,-5.7978,-5.7978,-5.7978,-5.7978,-5.7978,-5.7978,-5.7978,-5.7978,-5.7978,-5.7978,-5.7978,-5.7978,-5.7978,-5.7978,-5.7978,-5.7978,-5.7978,-5.7978,-5.7978,-5.7978,-5.7978,-5.7978,-5.7978,-5.7978,-5.7978,-5.8189,-5.8584,-5.83,-5.8162,-5.8657,-5.8731,-5.9043,-5.9722,-5.9905,-6.0236,-6.1006,-6.1117,-6.1263,-6.1741,-6.2089,-6.2291,-6.2346,-6.2603,-6.2805,-6.2823,-6.2823,-6.2823,-6.2823,-6.2823,-6.2695,-6.2273,-6.1337,-6.0485,-5.9955,-5.9246,-5.8814,-5.8612,-5.83,-5.7997,-5.7997,-5.7978,-5.7978,-5.7978,-5.7978,-5.7978,-5.7978,-5.7978,-5.7978,-5.7978,-5.7978,-5.7978,-5.7978,-5.7932,-5.7886,-5.5396,-5.5432,-5.5456,-5.5476,-5.5538,-5.5593,-5.5638,-5.5634,-5.5682,-5.5684,-5.578,-5.6607,-5.7297,-5.8039,-5.9614,-6.043,-6.061,-6.0499,-6.0444,-6.0389,-6.0137,-6.0032,-5.995,-5.9767,-5.9597,-5.9491,-5.9327,-5.9627,-6.0329,-6.1209,-6.141,-6.1093,-6.1043,-6.0905,-6.059,-6.0496,-6.0173,-5.9612,-5.9538,-5.9245,-5.8731,-5.8455,-5.8235,-5.8015,-5.7978,-5.7978,-5.7978,-5.7978,-5.7978,-5.7978,-5.7978,-5.7978,-5.7978,-5.7978,-5.7978,-5.7978,-5.7978,-5.7978,-5.7978,-5.7978,-5.7978,-5.7978,-5.7978,-5.7978,-5.8033,-5.8198,-5.8593,-5.9072,-5.8869,-5.8988,-5.9381,-5.9509,-5.9887,-6.0603,-6.0731,-6.1062,-6.1796,-6.1942,-6.2144,-6.2713,-6.2695,-6.2823,-6.2805,-6.2805,-6.2823,-6.2823,-6.2823,-6.2823,-6.2823,-6.2823,-6.2805,-6.2805,-6.2273,-6.1643,-6.0856,-6.0073,-5.9585,-5.9136,-5.8649,-5.8327,-5.8107,-5.7997,-5.7978,-5.7978,-5.7978,-5.7978,-5.7978,-5.7978,-5.7978,-5.7978,-5.7978,-5.7978,-5.7978,-5.7978,-5.7978,-5.5432,-5.5504,-5.5573,-5.5589,-5.56,-5.5679,-5.5703,-5.5722,-5.5703,-5.5684,-5.5818,-5.6571,-5.7011,-5.7223,-5.8769,-5.9917,-6.0589,-6.061,-6.0525,-6.0417,-6.037,-6.0256,-6.0087,-5.995,-5.9885,-5.9786,-5.9526,-5.9703,-6.0425,-6.1834,-6.2079,-6.128,-6.1834,-6.1615,-6.0923,-6.0756,-6.0543,-6.0382,-6.0364,-6.0291,-6.0144,-5.9501,-5.8804,-5.8198,-5.7997,-5.7978,-5.7978,-5.7978,-5.7978,-5.7978,-5.7978,-5.7978,-5.7978,-5.7978,-5.7978,-5.7978,-5.7978,-5.7978,-5.7978,-5.7978,-5.7978,-5.7997,-5.8052,-5.8015,-5.8162,-5.8767,-5.9236,-5.9256,-5.9898,-6.0272,-6.0419,-6.0401,-6.0694,-6.141,-6.1539,-6.1906,-6.2622,-6.264,-6.275,-6.2805,-6.2823,-6.2823,-6.2823,-6.2823,-6.2823,-6.2823,-6.2823,-6.2823,-6.2823,-6.2823,-6.2823,-6.2823,-6.2695,-6.2425,-6.166,-6.0866,-6.01,-5.9559,-5.92,-5.8822,-5.8345,-5.7978,-5.7978,-5.7978,-5.7978,-5.7978,-5.7978,-5.7978,-5.7978,-5.7978,-5.7978,-5.7978,-5.7978,-5.7978,-5.7978,-5.5504,-5.5593,-5.566,-5.5679,-5.5737,-5.5744,-5.5787,-5.5826,-5.5845,-5.5806,-5.5805,-5.6094,-5.6515,-5.7049,-5.8181,-5.9162,-5.9926,-6.0416,-6.0655,-6.0578,-6.0472,-6.0361,-6.0285,-6.0118,-5.9982,-5.9885,-5.9753,-6.0207,-6.1372,-6.2885,-6.3439,-6.3022,-6.3052,-6.2853,-6.2521,-6.228,-6.1898,-6.1323,-6.122,-6.0915,-6.0474,-6.0126,-5.9832,-5.952,-5.8529,-5.7978,-5.7978,-5.7978,-5.7978,-5.7978,-5.7978,-5.7978,-5.7978,-5.7978,-5.7978,-5.7978,-5.7978,-5.7978,-5.7978,-5.7978,-5.7978,-5.8015,-5.851,-5.8767,-5.8914,-5.952,-6.0191,-6.0625,-6.0926,-6.1337,-6.1722,-6.1484,-6.1484,-6.2199,-6.2383,-6.2456,-6.2713,-6.2823,-6.2823,-6.2823,-6.2823,-6.2823,-6.2823,-6.2823,-6.2823,-6.2823,-6.2823,-6.2823,-6.2823,-6.2823,-6.2823,-6.2823,-6.2805,-6.2732,-6.248,-6.1673,-6.0896,-6.0126,-5.9575,-5.8877,-5.8327,-5.8033,-5.7978,-5.7978,-5.7978,-5.7978,-5.7978,-5.7978,-5.7978,-5.7978,-5.7978,-5.7978,-5.7978,-5.7978,-5.7978,-5.5596,-5.5662,-5.5724,-5.5784,-5.5803,-5.5825,-5.5866,-5.5905,-5.5905,-5.5885,-5.5846,-5.5826,-5.6133,-5.6729,-5.7536,-5.8383,-5.9188,-6.0219,-6.071,-6.0685,-6.0559,-6.0499,-6.0444,-6.0285,-6.0148,-6.0102,-6.0202,-6.0853,-6.1939,-6.3274,-6.3944,-6.3981,-6.3848,-6.3691,-6.3557,-6.3307,-6.2852,-6.2332,-6.2144,-6.1753,-6.1257,-6.0933,-6.0786,-6.0603,-5.9465,-5.8639,-5.84,-5.8143,-5.7978,-5.7978,-5.7978,-5.7978,-5.7978,-5.7978,-5.7978,-5.7978,-5.7978,-5.7978,-5.8033,-5.8253,-5.84,-5.8419,-5.9134,-5.9612,-5.9648,-6.0309,-6.1018,-6.1507,-6.1881,-6.2254,-6.253,-6.2341,-6.2267,-6.2713,-6.2823,-6.2823,-6.2823,-6.2823,-6.2823,-6.2823,-6.2823,-6.2823,-6.2823,-6.2823,-6.2823,-6.2823,-6.2823,-6.2823,-6.2823,-6.2823,-6.2823,-6.2823,-6.2823,-6.2805,-6.2713,-6.2236,-6.13,-6.0529,-6.0034,-5.9226,-5.8345,-5.8088,-5.7978,-5.7978,-5.7978,-5.7978,-5.7978,-5.7978,-5.7978,-5.7978,-5.7978,-5.7978,-5.7978,-5.7978,-5.7978,-5.5745,-5.5787,-5.5787,-5.5845,-5.5904,-5.5885,-5.5904,-5.5923,-5.5943,-5.5924,-5.5924,-5.5885,-5.5943,-5.6117,-5.6946,-5.7658,-5.8484,-5.9919,-6.07,-6.069,-6.0685,-6.0655,-6.0578,-6.0453,-6.0389,-6.039,-6.0862,-6.1425,-6.2116,-6.2937,-6.3632,-6.4096,-6.4125,-6.3934,-6.3647,-6.3602,-6.3447,-6.3149,-6.297,-6.2892,-6.2892,-6.2059,-6.1643,-6.1569,-6.0798,-6.0045,-5.93,-5.851,-5.807,-5.7997,-5.7978,-5.7978,-5.7978,-5.7978,-5.7978,-5.7997,-5.8015,-5.8033,-5.8143,-5.8804,-5.9226,-5.9318,-5.9942,-6.0401,-6.0511,-6.1135,-6.1661,-6.1838,-6.2304,-6.2787,-6.28,-6.2861,-6.2861,-6.2805,-6.2805,-6.2873,-6.2823,-6.2823,-6.2823,-6.2823,-6.2873,-6.2805,-6.2805,-6.2855,-6.2855,-6.2855,-6.2873,-6.2873,-6.2873,-6.2873,-6.2823,-6.2823,-6.2855,-6.2855,-6.2805,-6.2695,-6.1722,-6.0841,-6.0456,-5.9832,-5.8547,-5.7978,-5.7978,-5.7978,-5.7978,-5.7978,-5.7978,-5.7978,-5.7978,-5.7978,-5.7978,-5.7978,-5.7978,-5.7978,-5.7978,-5.5806,-5.5866,-5.5866,-5.5904,-5.596,-5.5979,-5.6012,-5.6094,-5.6117,-5.6065,-5.6031,-5.5977,-5.5922,-5.6097,-5.6811,-5.7293,-5.762,-5.9196,-6.0246,-6.0661,-6.071,-6.0704,-6.0635,-6.0559,-6.0499,-6.0523,-6.1024,-6.1362,-6.1738,-6.2795,-6.3631,-6.3747,-6.4082,-6.4184,-6.4037,-6.378,-6.3557,-6.3465,-6.326,-6.3147,-6.3147,-6.2859,-6.2682,-6.2609,-6.1937,-6.1384,-6.1107,-5.9651,-5.8602,-5.8052,-5.7978,-5.7978,-5.7978,-5.7978,-5.7978,-5.8052,-5.8547,-5.8841,-5.8933,-5.9557,-6.0034,-6.0181,-6.0768,-6.1172,-6.13,-6.1942,-6.2365,-6.2432,-6.2757,-6.2935,-6.2977,-6.3062,-6.3099,-6.2972,-6.3002,-6.3069,-6.3069,-6.3069,-6.3051,-6.3069,-6.3069,-6.3069,-6.3051,-6.3069,-6.3051,-6.3051,-6.3069,-6.3069,-6.3069,-6.3069,-6.3021,-6.2972,-6.2953,-6.2904,-6.291,-6.2726,-6.1992,-6.1055,-6.0559,-5.9832,-5.8657,-5.7978,-5.7978,-5.7978,-5.7978,-5.7978,-5.7978,-5.7978,-5.7978,-5.7978,-5.7978,-5.7978,-5.7978,-5.7978,-5.7978,-5.5866,-5.5961,-5.5942,-5.5996,-5.6062,-5.6082,-5.6094,-5.6194,-5.6199,-5.6184,-5.6114,-5.6098,-5.6046,-5.6128,-5.6578,-5.6926,-5.7275,-5.8297,-5.9141,-5.9942,-6.0584,-6.0714,-6.071,-6.066,-6.0578,-6.0548,-6.0838,-6.1149,-6.1393,-6.2273,-6.3027,-6.3532,-6.3879,-6.4142,-6.4228,-6.4037,-6.3823,-6.3647,-6.3465,-6.3307,-6.326,-6.3213,-6.3213,-6.3139,-6.2696,-6.2308,-6.1939,-6.0582,-5.9421,-5.8704,-5.829,-5.8061,-5.8015,-5.8272,-5.8455,-5.8602,-5.9171,-5.9667,-5.974,-6.0401,-6.0841,-6.097,-6.1594,-6.2034,-6.2126,-6.2585,-6.2787,-6.2823,-6.2904,-6.3007,-6.302,-6.3196,-6.3242,-6.3165,-6.3147,-6.3213,-6.3213,-6.3213,-6.3213,-6.3165,-6.3213,-6.3213,-6.3213,-6.3213,-6.3213,-6.3213,-6.3213,-6.3213,-6.3213,-6.3213,-6.3165,-6.3117,-6.3099,-6.3039,-6.2965,-6.2634,-6.2254,-6.136,-6.0485,-5.9567,-5.8437,-5.8088,-5.7978,-5.7978,-5.7978,-5.7978,-5.7978,-5.7978,-5.7978,-5.7978,-5.8024,-5.7997,-5.7997,-5.7978,-5.7978,-5.5942,-5.6012,-5.6012,-5.6098,-5.6199,-5.6214,-5.6209,-5.6209,-5.6228,-5.6209,-5.6228,-5.6194,-5.6214,-5.6199,-5.623,-5.6566,-5.7153,-5.735,-5.7815,-5.8701,-5.9714,-6.0473,-6.0719,-6.071,-6.0635,-6.0597,-6.0529,-6.0837,-6.1382,-6.1599,-6.2091,-6.3232,-6.3394,-6.3782,-6.4085,-6.4212,-6.4009,-6.3867,-6.3691,-6.3538,-6.3447,-6.3289,-6.326,-6.326,-6.3186,-6.2854,-6.2207,-6.1246,-6.0314,-5.9538,-5.8555,-5.8189,-5.8263,-5.8822,-5.9116,-5.9263,-6.0034,-6.0401,-6.0621,-6.1227,-6.1649,-6.1722,-6.2273,-6.2805,-6.2732,-6.275,-6.2823,-6.2842,-6.2953,-6.3018,-6.3086,-6.3261,-6.3363,-6.3382,-6.3307,-6.326,-6.3213,-6.326,-6.326,-6.326,-6.3213,-6.3213,-6.326,-6.326,-6.326,-6.326,-6.326,-6.326,-6.326,-6.3307,-6.326,-6.3213,-6.3242,-6.3147,-6.3106,-6.3014,-6.249,-6.131,-6.0508,-5.9605,-5.8584,-5.8235,-5.8088,-5.8088,-5.8042,-5.8024,-5.8061,-5.8079,-5.8106,-5.8088,-5.8088,-5.8061,-5.8042,-5.8088,-5.8051,-5.6048,-5.6149,-5.6141,-5.6204,-5.6265,-5.6272,-5.6297,-5.6341,-5.6341,-5.6329,-5.6329,-5.6297,-5.6272,-5.6265,-5.6204,-5.6296,-5.6579,-5.7035,-5.733,-5.768,-5.8487,-5.9691,-6.0569,-6.0734,-6.0685,-6.066,-6.0604,-6.0648,-6.0889,-6.1287,-6.1754,-6.2094,-6.2615,-6.3091,-6.365,-6.352,-6.3662,-6.4087,-6.3953,-6.3761,-6.3691,-6.3647,-6.3602,-6.3511,-6.3511,-6.3381,-6.3047,-6.1842,-6.0326,-5.8836,-5.8522,-5.8644,-5.9079,-5.9302,-5.9642,-6.0249,-6.0853,-6.1282,-6.1429,-6.1998,-6.2438,-6.2493,-6.2658,-6.2805,-6.2823,-6.2823,-6.286,-6.2965,-6.3076,-6.3186,-6.3307,-6.3445,-6.3538,-6.3557,-6.3511,-6.3465,-6.3465,-6.3511,-6.3511,-6.353,-6.3511,-6.3465,-6.3511,-6.3511,-6.3511,-6.3492,-6.3492,-6.3511,-6.3492,-6.3492,-6.3492,-6.3382,-6.3363,-6.3299,-6.3252,-6.3186,-6.2642,-6.1291,-6.0488,-5.9918,-5.8987,-5.836,-5.8305,-5.8305,-5.8242,-5.8197,-5.8262,-5.8336,-5.8307,-5.8242,-5.826,-5.8215,-5.826,-5.8305,-5.8231,-5.616,-5.6257,-5.6226,-5.6285,-5.6341,-5.6333,-5.6375,-5.6406,-5.6406,-5.6406,-5.6386,-5.6375,-5.6333,-5.6329,-5.6285,-5.6246,-5.6301,-5.6649,-5.6795,-5.6902,-5.7525,-5.8715,-5.9935,-6.0503,-6.0734,-6.0734,-6.068,-6.0655,-6.0706,-6.1023,-6.1286,-6.164,-6.1911,-6.2406,-6.3072,-6.3273,-6.3408,-6.3819,-6.3937,-6.4037,-6.3953,-6.3848,-6.3805,-6.3717,-6.3698,-6.3531,-6.2712,-6.1781,-6.0407,-5.8894,-5.8499,-5.8788,-5.952,-5.9881,-6.0333,-6.1144,-6.1794,-6.2187,-6.223,-6.2616,-6.2787,-6.2805,-6.2823,-6.2823,-6.2823,-6.2823,-6.286,-6.302,-6.3124,-6.3252,-6.3363,-6.3527,-6.3602,-6.3665,-6.371,-6.3647,-6.3602,-6.3602,-6.3602,-6.3665,-6.3684,-6.3702,-6.3691,-6.3736,-6.3736,-6.3736,-6.3717,-6.3717,-6.3717,-6.3717,-6.3717,-6.3636,-6.3591,-6.3591,-6.3509,-6.349,-6.268,-6.136,-6.0184,-5.9684,-5.9227,-5.848,-5.8437,-5.8437,-5.8411,-5.843,-5.8478,-5.8452,-5.8386,-5.8356,-5.8411,-5.8411,-5.8455,-5.8314,-5.8277,-5.6259,-5.6304,-5.6302,-5.6356,-5.6397,-5.6397,-5.6407,-5.6407,-5.6417,-5.6417,-5.6437,-5.6407,-5.6407,-5.6397,-5.6345,-5.6302,-5.6324,-5.6329,-5.6238,-5.6413,-5.6946,-5.7986,-5.9072,-6.0108,-6.0589,-6.0719,-6.0753,-6.0729,-6.0724,-6.0668,-6.0935,-6.1267,-6.144,-6.1759,-6.2279,-6.2899,-6.3194,-6.3239,-6.3557,-6.3815,-6.3825,-6.3738,-6.3752,-6.3897,-6.363,-6.2958,-6.1987,-6.1259,-6.045,-5.8651,-5.8553,-5.9011,-5.9701,-6.0488,-6.1246,-6.1976,-6.2601,-6.2892,-6.2947,-6.2849,-6.2805,-6.2805,-6.2823,-6.2823,-6.2823,-6.2823,-6.291,-6.302,-6.3124,-6.3317,-6.3445,-6.3565,-6.3691,-6.378,-6.378,-6.3736,-6.3647,-6.3647,-6.3691,-6.3798,-6.3784,-6.3854,-6.3885,-6.3891,-6.391,-6.3805,-6.3848,-6.3848,-6.3891,-6.3873,-6.3915,-6.3897,-6.3915,-6.3934,-6.3835,-6.3779,-6.2645,-6.1416,-6.0009,-5.9275,-5.913,-5.8675,-5.8548,-5.8505,-5.8614,-5.8627,-5.8573,-5.8536,-5.8505,-5.8535,-5.8638,-5.8572,-5.8468,-5.8238,-5.8113,-5.6302,-5.6395,-5.6358,-5.6388,-5.6416,-5.6472,-5.648,-5.6476,-5.6476,-5.6469,-5.6476,-5.6461,-5.6444,-5.6407,-5.6407,-5.6397,-5.6364,-5.6285,-5.619,-5.6145,-5.6884,-5.7294,-5.8002,-5.9092,-6.0127,-6.0569,-6.0781,-6.0777,-6.0757,-6.0704,-6.0712,-6.0801,-6.0865,-6.1,-6.1633,-6.1818,-6.206,-6.2454,-6.2669,-6.2994,-6.3311,-6.3268,-6.3413,-6.3803,-6.3304,-6.2496,-6.1599,-6.0834,-5.9972,-5.9185,-5.894,-5.9458,-6.058,-6.0958,-6.1667,-6.2688,-6.3075,-6.3099,-6.2984,-6.3002,-6.2923,-6.2873,-6.2823,-6.2823,-6.2805,-6.2904,-6.299,-6.3143,-6.3297,-6.3447,-6.3673,-6.3717,-6.378,-6.3848,-6.3891,-6.3891,-6.383,-6.383,-6.383,-6.3891,-6.3885,-6.3867,-6.3915,-6.3952,-6.393,-6.392,-6.3958,-6.3977,-6.4,-6.4083,-6.4125,-6.4166,-6.4166,-6.4147,-6.3956,-6.3597,-6.2419,-6.1392,-6.0078,-5.9215,-5.9061,-5.8924,-5.8884,-5.8843,-5.8884,-5.8859,-5.8828,-5.8842,-5.8846,-5.8859,-5.8831,-5.8694,-5.8542,-5.8285,-5.7627,-5.6377,-5.6398,-5.6426,-5.6444,-5.6453,-5.6496,-5.6498,-5.6491,-5.6485,-5.6485,-5.6478,-5.6491,-5.6476,-5.6461,-5.6444,-5.6426,-5.6377,-5.6329,-5.6238,-5.6195,-5.6571,-5.683,-5.735,-5.8308,-5.938,-6.0127,-6.0627,-6.0781,-6.08,-6.0777,-6.0729,-6.0635,-6.0552,-6.0674,-6.1039,-6.1195,-6.1577,-6.1918,-6.2182,-6.2513,-6.2746,-6.2655,-6.2692,-6.3028,-6.2611,-6.2009,-6.1147,-6.0675,-5.9982,-5.9383,-5.9177,-5.9829,-6.105,-6.134,-6.2054,-6.3249,-6.3465,-6.3307,-6.326,-6.3165,-6.3069,-6.3021,-6.2972,-6.2972,-6.3021,-6.3069,-6.3136,-6.325,-6.3373,-6.3492,-6.3754,-6.3823,-6.3891,-6.3977,-6.4061,-6.4102,-6.4125,-6.4,-6.3958,-6.4037,-6.4131,-6.4177,-6.4166,-6.4176,-6.4234,-6.4287,-6.4306,-6.4306,-6.4345,-6.4385,-6.4366,-6.4366,-6.4405,-6.4291,-6.4063,-6.3387,-6.2108,-6.1131,-6.0153,-5.9607,-5.9365,-5.9309,-5.9253,-5.9178,-5.912,-5.9136,-5.9092,-5.9148,-5.9132,-5.914,-5.9028,-5.8878,-5.8558,-5.807,-5.7209,-5.6417,-5.6407,-5.648,-5.6488,-5.6469,-5.6342,-5.6263,-5.6269,-5.6166,-5.5912,-5.614,-5.6218,-5.6166,-5.6289,-5.6457,-5.6453,-5.6398,-5.6353,-5.6265,-5.6218,-5.6175,-5.6441,-5.7004,-5.7734,-5.8578,-5.9338,-6.0339,-6.0742,-6.08,-6.08,-6.0753,-6.0685,-6.0629,-6.0583,-6.0627,-6.0962,-6.1256,-6.1298,-6.1609,-6.2037,-6.2178,-6.206,-6.203,-6.2221,-6.192,-6.1544,-6.0886,-6.0492,-6.0041,-5.9383,-5.9327,-6.0191,-6.1162,-6.1622,-6.2174,-6.3674,-6.3691,-6.3557,-6.3419,-6.3307,-6.3213,-6.3213,-6.3213,-6.3213,-6.3165,-6.3231,-6.3279,-6.3373,-6.3511,-6.361,-6.3842,-6.3953,-6.4061,-6.4143,-6.4284,-6.4364,-6.4366,-6.4188,-6.4206,-6.4303,-6.4359,-6.4381,-6.4463,-6.4502,-6.4577,-6.4634,-6.4634,-6.4653,-6.4634,-6.4671,-6.4652,-6.4689,-6.4726,-6.3954,-6.3597,-6.2842,-6.1653,-6.0931,-6.0044,-5.9911,-5.9666,-5.9666,-5.9613,-5.9419,-5.9328,-5.9328,-5.9328,-5.9346,-5.9328,-5.9319,-5.9087,-5.8754,-5.8292,-5.7809,-5.6836,-5.648,-5.6488,-5.6491,-5.6485,-5.6374,-5.5742,-5.546,-5.5372,-5.4801,-5.4431,-5.4567,-5.5104,-5.541,-5.5555,-5.623,-5.6433,-5.6369,-5.6375,-5.6297,-5.6238,-5.6145,-5.6261,-5.6368,-5.7139,-5.7829,-5.8745,-5.9915,-6.0666,-6.0781,-6.08,-6.0757,-6.0685,-6.0635,-6.0552,-6.0518,-6.0589,-6.0657,-6.0675,-6.0814,-6.1107,-6.1394,-6.1397,-6.1473,-6.1746,-6.1351,-6.1012,-6.0712,-6.0165,-5.9677,-5.9562,-5.9526,-6.045,-6.1488,-6.1692,-6.2432,-6.3486,-6.3848,-6.3736,-6.3583,-6.3465,-6.3307,-6.326,-6.326,-6.326,-6.326,-6.3344,-6.3465,-6.3583,-6.3761,-6.3915,-6.4222,-6.4203,-6.4306,-6.4424,-6.452,-6.4596,-6.4633,-6.4596,-6.4558,-6.4596,-6.4596,-6.4615,-6.4707,-6.4775,-6.481,-6.4832,-6.4853,-6.4853,-6.4869,-6.4924,-6.4958,-6.5027,-6.5114,-6.4032,-6.2986,-6.2091,-6.1103,-6.0627,-6.0039,-6.0083,-5.9963,-6.0026,-5.9944,-5.9715,-5.9597,-5.9599,-5.9583,-5.9585,-5.9446,-5.9351,-5.8987,-5.8519,-5.7857,-5.7197,-5.6504,-5.5165,-5.5165,-5.5204,-5.5204,-5.5145,-5.4777,-5.4591,-5.4556,-5.4186,-5.399,-5.4108,-5.4416,-5.4582,-5.4806,-5.5451,-5.5993,-5.632,-5.6407,-5.6321,-5.6232,-5.6194,-5.6084,-5.602,-5.6792,-5.7252,-5.8014,-5.9242,-6.0377,-6.0762,-6.0781,-6.0757,-6.0734,-6.0685,-6.0629,-6.0571,-6.051,-6.0417,-6.038,-6.0361,-6.0455,-6.0806,-6.0684,-6.0842,-6.08,-6.0713,-6.0396,-6.0251,-5.9936,-5.9634,-5.9616,-5.9616,-6.0332,-6.1146,-6.192,-6.2501,-6.3731,-6.4061,-6.3953,-6.3805,-6.3717,-6.3673,-6.361,-6.3565,-6.3565,-6.3583,-6.3647,-6.3717,-6.3835,-6.4019,-6.4184,-6.4306,-6.4403,-6.452,-6.4596,-6.4708,-6.4817,-6.485,-6.4905,-6.4905,-6.4888,-6.4877,-6.4895,-6.4955,-6.5,-6.5009,-6.5014,-6.5042,-6.5095,-6.5109,-6.5142,-6.5174,-6.4889,-6.475,-6.3587,-6.2525,-6.1685,-6.0943,-6.0436,-6.016,-6.0188,-6.0188,-6.0217,-6.0159,-6.0007,-5.9912,-5.9866,-5.9843,-5.9847,-5.962,-5.9317,-5.8831,-5.8268,-5.7327,-5.6544,-5.5894,-5.391,-5.393,-5.3986,-5.3986,-5.3975,-5.3787,-5.3737,-5.3698,-5.3502,-5.3366,-5.3502,-5.3659,-5.3732,-5.3952,-5.458,-5.5346,-5.6105,-5.6115,-5.6088,-5.6226,-5.6194,-5.6084,-5.6155,-5.6502,-5.6963,-5.7321,-5.8146,-5.955,-6.0339,-6.0685,-6.0781,-6.0757,-6.0734,-6.066,-6.0629,-6.0525,-6.0472,-6.0436,-6.0352,-6.0323,-6.0264,-6.0197,-6.0068,-6.0007,-5.9982,-5.9956,-5.9966,-5.9843,-5.9734,-5.9734,-5.9809,-6.0131,-6.0928,-6.1741,-6.2803,-6.3917,-6.4214,-6.4166,-6.4083,-6.3939,-6.3939,-6.3897,-6.3939,-6.3939,-6.3958,-6.3977,-6.4042,-6.4153,-6.4289,-6.4443,-6.4539,-6.4615,-6.4726,-6.4834,-6.4924,-6.5027,-6.5076,-6.5174,-6.5239,-6.5218,-6.5132,-6.5164,-6.5194,-6.5226,-6.523,-6.5268,-6.5302,-6.5302,-6.5333,-6.5333,-6.5219,-6.4672,-6.4069,-6.2959,-6.2052,-6.1484,-6.0886,-6.0502,-6.0349,-6.0351,-6.036,-6.034,-6.0304,-6.0246,-6.0266,-6.0197,-6.0152,-5.9906,-5.9456,-5.9011,-5.8631,-5.7954,-5.6971,-5.619,-5.5572,-5.3986,-5.3967,-5.3962,-5.3986,-5.3811,-5.3151,-5.2839,-5.2761,-5.2136,-5.1707,-5.198,-5.2526,-5.2858,-5.3123,-5.3727,-5.4541,-5.5108,-5.5424,-5.5633,-5.5987,-5.6151,-5.6084,-5.5943,-5.5962,-5.6481,-5.6821,-5.7242,-5.8204,-5.9358,-6.0242,-6.0704,-6.0685,-6.0676,-6.0685,-6.066,-6.0559,-6.0499,-6.0453,-6.0417,-6.0352,-6.0294,-6.0294,-6.0197,-6.0118,-6.0087,-6.0057,-6.0026,-5.9975,-5.9975,-6.0007,-6.0007,-6.0475,-6.1292,-6.211,-6.2862,-6.3638,-6.4123,-6.4366,-6.4308,-6.4268,-6.4169,-6.4169,-6.4169,-6.415,-6.4188,-6.4287,-6.4347,-6.435,-6.4539,-6.4707,-6.4817,-6.4924,-6.5008,-6.5076,-6.5174,-6.5258,-6.5333,-6.5345,-6.5425,-6.5463,-6.5391,-6.5385,-6.5413,-6.5427,-6.5475,-6.5513,-6.5552,-6.5523,-6.5437,-6.5331,-6.4661,-6.3963,-6.3379,-6.2357,-6.1698,-6.1105,-6.0882,-6.0508,-6.052,-6.0533,-6.0559,-6.054,-6.0559,-6.0506,-6.0506,-6.0291,-5.9989,-5.9596,-5.9149,-5.853,-5.7872,-5.7225,-5.6578,-5.5874,-5.5265,-5.2537,-5.2537,-5.2546,-5.2526,-5.2487,-5.2117,-5.196,-5.1882,-5.157,-5.1394,-5.1453,-5.1765,-5.221,-5.2669,-5.3083,-5.3644,-5.4422,-5.485,-5.5205,-5.5631,-5.5918,-5.6065,-5.5962,-5.5885,-5.6134,-5.6321,-5.6761,-5.728,-5.8357,-5.9338,-6.0069,-6.0165,-6.0527,-6.0753,-6.071,-6.0585,-6.0552,-6.0499,-6.0444,-6.0408,-6.038,-6.0352,-6.0304,-6.0216,-6.0216,-6.0167,-6.0099,-6.0099,-6.0099,-6.0099,-6.0099,-6.0232,-6.0765,-6.145,-6.2237,-6.3022,-6.3725,-6.4195,-6.4483,-6.4521,-6.4463,-6.4425,-6.4444,-6.4463,-6.4481,-6.4615,-6.4724,-6.4753,-6.4829,-6.4974,-6.5095,-6.5161,-6.5239,-6.5333,-6.5394,-6.5378,-6.5437,-6.5523,-6.5571,-6.5609,-6.5571,-6.5379,-6.5245,-6.5279,-6.5364,-6.5589,-6.5589,-6.5542,-6.5312,-6.5015,-6.4057,-6.2859,-6.236,-6.174,-6.1261,-6.0763,-6.0821,-6.0608,-6.0622,-6.0635,-6.0704,-6.0729,-6.068,-6.068,-6.0616,-6.0303,-5.9797,-5.9321,-5.8854,-5.7955,-5.6976,-5.6496,-5.6033,-5.5673,-5.518,-5.1394,-5.1394,-5.1394,-5.1394,-5.1394,-5.1394,-5.1414,-5.1414,-5.1394,-5.1394,-5.1394,-5.1453,-5.182,-5.2235,-5.2375,-5.2766,-5.3611,-5.4188,-5.468,-5.5106,-5.553,-5.5813,-5.5884,-5.5885,-5.5826,-5.5703,-5.6261,-5.6646,-5.7107,-5.803,-5.8992,-5.9492,-6.0089,-6.0527,-6.0671,-6.0655,-6.0604,-6.048,-6.0444,-6.0417,-6.0389,-6.0389,-6.038,-6.0352,-6.0323,-6.0275,-6.0178,-6.0178,-6.0178,-6.0178,-6.0207,-6.0264,-6.0465,-6.1152,-6.2021,-6.2811,-6.3638,-6.4356,-6.4704,-6.4867,-6.4798,-6.4781,-6.4745,-6.48,-6.4819,-6.4942,-6.5019,-6.5048,-6.5131,-6.522,-6.5302,-6.5383,-6.5435,-6.5504,-6.5561,-6.5501,-6.5375,-6.5275,-6.5013,-6.4686,-6.4686,-6.4872,-6.4802,-6.4916,-6.516,-6.5556,-6.5644,-6.5529,-6.5049,-6.4512,-6.354,-6.2254,-6.1716,-6.1332,-6.1044,-6.0724,-6.0695,-6.07,-6.0714,-6.0734,-6.0777,-6.0777,-6.0753,-6.0734,-6.0633,-5.9873,-5.9141,-5.8846,-5.847,-5.7493,-5.6556,-5.6014,-5.5553,-5.5271,-5.5121,-5.1394,-5.1394,-5.1394,-5.1394,-5.1394,-5.1394,-5.1394,-5.1394,-5.1394,-5.1394,-5.1394,-5.1414,-5.1449,-5.1552,-5.1693,-5.2006,-5.2694,-5.2669,-5.3572,-5.4453,-5.5045,-5.5352,-5.5614,-5.5769,-5.5826,-5.5724,-5.5953,-5.5934,-5.603,-5.6838,-5.8107,-5.93,-5.9454,-6.005,-6.0469,-6.0608,-6.061,-6.0533,-6.0499,-6.0491,-6.0444,-6.0417,-6.0417,-6.0408,-6.0389,-6.0389,-6.0389,-6.0389,-6.0389,-6.0389,-6.0389,-6.037,-6.0532,-6.1075,-6.184,-6.2719,-6.358,-6.4326,-6.4886,-6.5163,-6.5161,-6.5147,-6.5147,-6.5133,-6.5137,-6.5232,-6.5257,-6.5284,-6.5369,-6.5446,-6.5523,-6.558,-6.5624,-6.5448,-6.5353,-6.5114,-6.4927,-6.4763,-6.444,-6.3862,-6.3839,-6.4176,-6.4228,-6.4315,-6.4536,-6.4922,-6.5007,-6.4891,-6.4122,-6.3526,-6.282,-6.1916,-6.132,-6.1012,-6.0911,-6.08,-6.0804,-6.0808,-6.0804,-6.0804,-6.08,-6.08,-6.0823,-6.0589,-6.0373,-5.9431,-5.8581,-5.8246,-5.7762,-5.6907,-5.6193,-5.5728,-5.5472,-5.5305,-5.5222,-5.1394,-5.1394,-5.1394,-5.1394,-5.1394,-5.1394,-5.1394,-5.1394,-5.1394,-5.1394,-5.1394,-5.1394,-5.139,-5.1396,-5.14,-5.1505,-5.1849,-5.2338,-5.2911,-5.3598,-5.4275,-5.4887,-5.5266,-5.5577,-5.5826,-5.5724,-5.5684,-5.5684,-5.5799,-5.6145,-5.6799,-5.7742,-5.8434,-5.9223,-5.9777,-6.0407,-6.0578,-6.0585,-6.0552,-6.0552,-6.0525,-6.0525,-6.0525,-6.0525,-6.0525,-6.0525,-6.0525,-6.0506,-6.0525,-6.0525,-6.0545,-6.0525,-6.0552,-6.0935,-6.1517,-6.231,-6.32,-6.3997,-6.4852,-6.5148,-6.5364,-6.5352,-6.5352,-6.539,-6.5391,-6.5459,-6.5531,-6.5563,-6.5582,-6.5651,-6.575,-6.5782,-6.5672,-6.5361,-6.5022,-6.472,-6.4398,-6.4149,-6.3861,-6.3261,-6.343,-6.3753,-6.3705,-6.3671,-6.3938,-6.4216,-6.427,-6.417,-6.3438,-6.2763,-6.2128,-6.1704,-6.1164,-6.0962,-6.0904,-6.0908,-6.0933,-6.0914,-6.0894,-6.0891,-6.0869,-6.0888,-6.0831,-6.0535,-6.0069,-5.9223,-5.845,-5.7766,-5.7038,-5.6256,-5.5836,-5.5517,-5.5377,-5.5339,-5.5313,-5.1394,-5.1394,-5.1394,-5.1394,-5.1394,-5.1394,-5.1394,-5.1394,-5.1394,-5.1394,-5.1394,-5.1394,-5.1386,-5.1391,-5.14,-5.1362,-5.151,-5.1842,-5.2172,-5.2763,-5.348,-5.423,-5.4706,-5.5114,-5.5479,-5.5609,-5.5684,-5.5684,-5.5684,-5.5684,-5.6126,-5.6703,-5.7242,-5.8011,-5.9146,-5.9888,-6.0416,-6.0597,-6.0629,-6.0604,-6.0585,-6.0604,-6.0604,-6.0578,-6.0578,-6.0578,-6.0578,-6.0578,-6.0578,-6.0578,-6.0578,-6.0604,-6.0629,-6.0744,-6.1115,-6.1787,-6.2478,-6.3283,-6.432,-6.5062,-6.5456,-6.5484,-6.5513,-6.5531,-6.5577,-6.5619,-6.5692,-6.5727,-6.5779,-6.5832,-6.5913,-6.5743,-6.5479,-6.5078,-6.4578,-6.4232,-6.3632,-6.3265,-6.3013,-6.2684,-6.2839,-6.2762,-6.2723,-6.2661,-6.3226,-6.3437,-6.3434,-6.3317,-6.2873,-6.2236,-6.1676,-6.1348,-6.1057,-6.0993,-6.1007,-6.0971,-6.0957,-6.096,-6.096,-6.0935,-6.0955,-6.0933,-6.0894,-6.0699,-6.008,-5.9114,-5.8204,-5.7393,-5.6514,-5.5696,-5.549,-5.539,-5.539,-5.5371,-5.5384,-5.1394,-5.1394,-5.1394,-5.1394,-5.1394,-5.1394,-5.1394,-5.1394,-5.1394,-5.1394,-5.1394,-5.1394,-5.1401,-5.14,-5.1394,-5.1356,-5.13,-5.1356,-5.1627,-5.2239,-5.264,-5.3356,-5.3992,-5.4535,-5.4901,-5.5532,-5.5568,-5.5511,-5.5684,-5.5684,-5.5799,-5.5818,-5.6242,-5.6857,-5.8261,-5.9127,-5.9869,-6.0556,-6.0589,-6.0545,-6.0629,-6.0629,-6.0629,-6.0629,-6.0629,-6.0629,-6.0655,-6.0629,-6.0655,-6.0655,-6.0649,-6.0655,-6.0704,-6.0704,-6.1113,-6.1853,-6.2065,-6.2949,-6.4372,-6.5126,-6.5482,-6.5589,-6.5682,-6.5665,-6.5731,-6.5762,-6.5837,-6.5925,-6.5865,-6.5945,-6.5795,-6.545,-6.5064,-6.4522,-6.3978,-6.351,-6.2906,-6.2535,-6.2322,-6.2206,-6.1743,-6.1414,-6.143,-6.1624,-6.2349,-6.2663,-6.2646,-6.2453,-6.2182,-6.1872,-6.1408,-6.1254,-6.1099,-6.1099,-6.1076,-6.1057,-6.102,-6.1002,-6.1022,-6.1041,-6.102,-6.0999,-6.092,-6.0803,-5.9856,-5.8657,-5.7769,-5.692,-5.6242,-5.5657,-5.5499,-5.5427,-5.5402,-5.5421,-5.5415,-5.1394,-5.1394,-5.1394,-5.1394,-5.1394,-5.1394,-5.1394,-5.1394,-5.1394,-5.1394,-5.1394,-5.1394,-5.1401,-5.14,-5.1394,-5.1375,-5.13,-5.123,-5.1511,-5.1571,-5.1994,-5.2423,-5.3024,-5.3609,-5.415,-5.4707,-5.4935,-5.528,-5.5684,-5.5684,-5.5684,-5.5703,-5.5761,-5.6338,-5.7357,-5.8261,-5.9085,-5.9738,-5.995,-6.0119,-6.0633,-6.069,-6.069,-6.069,-6.071,-6.0729,-6.0729,-6.071,-6.071,-6.0729,-6.0729,-6.0729,-6.0753,-6.0777,-6.0911,-6.1416,-6.1647,-6.2574,-6.3695,-6.4518,-6.5263,-6.5551,-6.5814,-6.5853,-6.5904,-6.5958,-6.6022,-6.5876,-6.5548,-6.549,-6.5296,-6.4692,-6.4164,-6.3463,-6.2913,-6.257,-6.2119,-6.1933,-6.1771,-6.1738,-6.1453,-6.1428,-6.1421,-6.1381,-6.1919,-6.2063,-6.205,-6.194,-6.169,-6.1613,-6.1322,-6.1286,-6.1227,-6.1213,-6.1195,-6.1157,-6.1156,-6.1154,-6.1171,-6.1155,-6.1118,-6.1099,-6.0673,-6.0402,-5.93,-5.8199,-5.7369,-5.6597,-5.6173,-5.5765,-5.5618,-5.5504,-5.5499,-5.5476,-5.5451,-5.1394,-5.1394,-5.1394,-5.1394,-5.1394,-5.1394,-5.1394,-5.1394,-5.1394,-5.1394,-5.1394,-5.1394,-5.1401,-5.14,-5.1394,-5.1375,-5.13,-5.123,-5.119,-5.1214,-5.1587,-5.1993,-5.2324,-5.2642,-5.3321,-5.3937,-5.4416,-5.4818,-5.5222,-5.5549,-5.5684,-5.5684,-5.5703,-5.6011,-5.6703,-5.7396,-5.8261,-5.8858,-5.9123,-5.9492,-5.9988,-6.0339,-6.0492,-6.0685,-6.0781,-6.08,-6.08,-6.08,-6.08,-6.08,-6.0781,-6.0781,-6.0781,-6.0781,-6.0804,-6.1054,-6.1659,-6.2375,-6.3033,-6.3785,-6.4459,-6.4933,-6.5604,-6.6001,-6.5938,-6.5765,-6.5683,-6.5488,-6.5039,-6.4785,-6.4566,-6.3919,-6.3342,-6.2638,-6.2283,-6.1933,-6.179,-6.1608,-6.1569,-6.153,-6.1503,-6.1507,-6.1498,-6.1484,-6.1642,-6.1557,-6.1466,-6.14,-6.1356,-6.1356,-6.1361,-6.1341,-6.1322,-6.131,-6.1297,-6.1314,-6.131,-6.1306,-6.1291,-6.1259,-6.1227,-6.1173,-6.0576,-5.9959,-5.905,-5.8085,-5.7024,-5.631,-5.602,-5.5866,-5.5767,-5.5662,-5.5615,-5.557,-5.5547,-5.1394,-5.1394,-5.1394,-5.1394,-5.1394,-5.1394,-5.1394,-5.1394,-5.1394,-5.1394,-5.1394,-5.1394,-5.1401,-5.14,-5.1394,-5.1356,-5.13,-5.1239,-5.1201,-5.1167,-5.1289,-5.1601,-5.1854,-5.208,-5.2587,-5.3263,-5.382,-5.4127,-5.4549,-5.5338,-5.5684,-5.5684,-5.5684,-5.5818,-5.6145,-5.6607,-5.7434,-5.7992,-5.828,-5.8723,-5.93,-5.9646,-6.0031,-6.0377,-6.0666,-6.0762,-6.08,-6.08,-6.08,-6.0781,-6.0781,-6.0781,-6.0781,-6.0781,-6.0846,-6.1123,-6.1726,-6.1979,-6.2271,-6.3006,-6.3454,-6.3999,-6.5039,-6.573,-6.573,-6.5178,-6.5023,-6.4776,-6.4361,-6.4085,-6.3784,-6.3262,-6.2748,-6.2301,-6.1962,-6.174,-6.1604,-6.1526,-6.1546,-6.1526,-6.1528,-6.1519,-6.1529,-6.1509,-6.1509,-6.1509,-6.1498,-6.1487,-6.1464,-6.1434,-6.1454,-6.1454,-6.1421,-6.1389,-6.1394,-6.14,-6.1408,-6.1383,-6.1347,-6.1318,-6.131,-6.1142,-6.0547,-5.9852,-5.8983,-5.7998,-5.6787,-5.6228,-5.6035,-5.5902,-5.5885,-5.5827,-5.5745,-5.566,-5.5615,-5.1394,-5.1394,-5.1394,-5.1394,-5.1394,-5.1394,-5.1394,-5.1394,-5.1394,-5.1394,-5.1394,-5.1394,-5.1386,-5.1391,-5.14,-5.1343,-5.1296,-5.1265,-5.123,-5.1197,-5.112,-5.1217,-5.13,-5.1399,-5.1812,-5.2279,-5.2801,-5.3435,-5.4435,-5.5241,-5.5645,-5.5684,-5.5684,-5.5684,-5.578,-5.5953,-5.6626,-5.7126,-5.7338,-5.7896,-5.8588,-5.905,-5.9492,-5.9838,-6.0454,-6.0589,-6.0685,-6.0785,-6.0804,-6.0823,-6.0846,-6.0869,-6.0869,-6.0891,-6.0974,-6.0974,-6.1229,-6.1366,-6.1543,-6.222,-6.2762,-6.299,-6.39,-6.4308,-6.4424,-6.4325,-6.4155,-6.3983,-6.3573,-6.3217,-6.2982,-6.2588,-6.222,-6.1958,-6.1715,-6.1646,-6.1549,-6.1549,-6.1549,-6.1559,-6.1549,-6.1547,-6.1547,-6.1547,-6.1556,-6.1556,-6.1556,-6.1547,-6.1558,-6.1519,-6.1518,-6.1518,-6.1507,-6.1464,-6.1472,-6.1479,-6.1464,-6.1448,-6.1421,-6.1389,-6.1381,-6.1119,-6.0522,-5.9575,-5.8381,-5.7401,-5.6424,-5.6114,-5.6075,-5.6078,-5.6046,-5.5979,-5.5885,-5.5787,-5.5705,-5.1394,-5.1394,-5.1394,-5.1394,-5.1394,-5.1394,-5.1394,-5.1394,-5.1394,-5.1394,-5.1394,-5.1394,-5.139,-5.1396,-5.14,-5.1369,-5.131,-5.1292,-5.1269,-5.121,-5.1125,-5.1121,-5.1039,-5.0964,-5.1208,-5.1563,-5.1971,-5.2589,-5.3705,-5.4703,-5.5261,-5.5684,-5.5684,-5.5684,-5.5722,-5.578,-5.5972,-5.6299,-5.6588,-5.703,-5.7684,-5.8319,-5.8588,-5.9146,-5.9881,-6.025,-6.0423,-6.0519,-6.0831,-6.0869,-6.0933,-6.0914,-6.0935,-6.1018,-6.1059,-6.106,-6.1138,-6.1215,-6.1366,-6.1636,-6.194,-6.2183,-6.2618,-6.2788,-6.3084,-6.3153,-6.3307,-6.3339,-6.2772,-6.2268,-6.2104,-6.1937,-6.1762,-6.1595,-6.1592,-6.1595,-6.1595,-6.1595,-6.158,-6.1592,-6.1573,-6.1588,-6.1576,-6.1595,-6.1576,-6.1588,-6.158,-6.158,-6.1573,-6.1556,-6.1567,-6.1558,-6.1549,-6.1539,-6.1539,-6.1537,-6.1519,-6.149,-6.1479,-6.1464,-6.144,-6.1123,-6.0566,-5.918,-5.7554,-5.6809,-5.6243,-5.6218,-5.6193,-5.6199,-5.6185,-5.611,-5.601,-5.5923,-5.5847,-5.1336,-5.1394,-5.1394,-5.1394,-5.1394,-5.1394,-5.1394,-5.1394,-5.1394,-5.1394,-5.1394,-5.1394,-5.139,-5.1401,-5.1386,-5.1375,-5.1336,-5.132,-5.1287,-5.1211,-5.1159,-5.112,-5.1075,-5.101,-5.1045,-5.1192,-5.1487,-5.1934,-5.2473,-5.3685,-5.503,-5.5588,-5.5684,-5.5684,-5.5684,-5.5684,-5.5799,-5.5898,-5.6013,-5.6282,-5.6763,-5.711,-5.7398,-5.8207,-5.8963,-5.9524,-5.9757,-6.0222,-6.0901,-6.0901,-6.0978,-6.098,-6.106,-6.1099,-6.1118,-6.1155,-6.121,-6.1261,-6.1294,-6.1462,-6.1453,-6.1478,-6.1421,-6.1739,-6.214,-6.2374,-6.2605,-6.2647,-6.2142,-6.1937,-6.1795,-6.1795,-6.1705,-6.1634,-6.1641,-6.1628,-6.1634,-6.1634,-6.1628,-6.1641,-6.1628,-6.1673,-6.2064,-6.2142,-6.2415,-6.2038,-6.2096,-6.2135,-6.1875,-6.1868,-6.1724,-6.1705,-6.1592,-6.1576,-6.1567,-6.1558,-6.1547,-6.1539,-6.152,-6.15,-6.1509,-6.1137,-6.0647,-5.9106,-5.7546,-5.6815,-5.6317,-5.6309,-5.6283,-5.6286,-5.6263,-5.6214,-5.6146,-5.6075,-5.5975,-5.0801,-5.1394,-5.1394,-5.1394,-5.1394,-5.1394,-5.1394,-5.1394,-5.1394,-5.1394,-5.1394,-5.1394,-5.1394,-5.1386,-5.1396,-5.1386,-5.1369,-5.1323,-5.132,-5.1278,-5.121,-5.1156,-5.1108,-5.1029,-5.0956,-5.0932,-5.1117,-5.1471,-5.2204,-5.3473,-5.453,-5.4876,-5.5222,-5.559,-5.5724,-5.5724,-5.5745,-5.5785,-5.5805,-5.5883,-5.6172,-5.6808,-5.7307,-5.7695,-5.8199,-5.8643,-5.8971,-5.9512,-5.9918,-6.0132,-6.079,-6.106,-6.121,-6.1245,-6.1245,-6.1261,-6.1291,-6.1341,-6.1371,-6.1394,-6.1402,-6.1472,-6.1526,-6.1548,-6.1666,-6.1792,-6.185,-6.1822,-6.1772,-6.1666,-6.1595,-6.1654,-6.1673,-6.1679,-6.1679,-6.1685,-6.1691,-6.1671,-6.1671,-6.1671,-6.1671,-6.1983,-6.2393,-6.2744,-6.3076,-6.333,-6.3608,-6.355,-6.2881,-6.2622,-6.2135,-6.1999,-6.1673,-6.1607,-6.1607,-6.16,-6.158,-6.158,-6.1553,-6.1556,-6.1558,-6.0663,-5.9825,-5.8888,-5.7737,-5.6911,-5.6386,-5.6375,-5.6358,-5.6339,-5.6339,-5.6336,-5.6314,-5.6233,-5.6156,-5.0035,-5.084,-5.1258,-5.1394,-5.1394,-5.1394,-5.1394,-5.1394,-5.1394,-5.1394,-5.1394,-5.1394,-5.1394,-5.1394,-5.1381,-5.1396,-5.138,-5.1343,-5.1316,-5.1276,-5.1269,-5.12,-5.1125,-5.1063,-5.0995,-5.0956,-5.0935,-5.1294,-5.2011,-5.2685,-5.3493,-5.436,-5.5034,-5.538,-5.5651,-5.5787,-5.5806,-5.5846,-5.5846,-5.5847,-5.5885,-5.6348,-5.6598,-5.6869,-5.7352,-5.7815,-5.822,-5.878,-5.9435,-5.9995,-6.0747,-6.1131,-6.1275,-6.1326,-6.1322,-6.1352,-6.1361,-6.1408,-6.1434,-6.1472,-6.1487,-6.1539,-6.1568,-6.1595,-6.1603,-6.1712,-6.174,-6.172,-6.1736,-6.1634,-6.1646,-6.1691,-6.1691,-6.1691,-6.1696,-6.1696,-6.169,-6.1694,-6.1694,-6.1694,-6.1807,-6.2086,-6.2476,-6.2828,-6.3218,-6.3823,-6.4238,-6.4336,-6.3789,-6.3223,-6.2764,-6.2265,-6.1907,-6.1673,-6.164,-6.1634,-6.1628,-6.1609,-6.1589,-6.1588,-6.1436,-6.0055,-5.8908,-5.852,-5.7848,-5.6835,-5.6426,-5.6437,-5.6437,-5.6435,-5.6426,-5.6437,-5.6417,-5.6377,-5.6321,-4.9226,-5.0167,-5.0902,-5.1316,-5.1394,-5.1394,-5.1394,-5.1394,-5.1394,-5.1394,-5.1394,-5.1394,-5.1394,-5.139,-5.1386,-5.1401,-5.1391,-5.1355,-5.133,-5.1308,-5.1304,-5.124,-5.1169,-5.1105,-5.1037,-5.0986,-5.0932,-5.1269,-5.1778,-5.2318,-5.3013,-5.4092,-5.4612,-5.4921,-5.5519,-5.5885,-5.5905,-5.5904,-5.5923,-5.5941,-5.5941,-5.5941,-5.6039,-5.6308,-5.6654,-5.7114,-5.7439,-5.8051,-5.8952,-5.9681,-6.0399,-6.1031,-6.1313,-6.1381,-6.1408,-6.1415,-6.1472,-6.1503,-6.1526,-6.1568,-6.1568,-6.1586,-6.16,-6.1615,-6.1621,-6.1648,-6.1648,-6.1667,-6.1679,-6.1691,-6.1701,-6.1705,-6.1705,-6.1713,-6.1713,-6.1701,-6.1709,-6.1713,-6.1713,-6.1713,-6.1902,-6.2162,-6.2764,-6.3091,-6.3638,-6.4243,-6.455,-6.4531,-6.4355,-6.3789,-6.3277,-6.2633,-6.2061,-6.1886,-6.1715,-6.1671,-6.1666,-6.1646,-6.164,-6.1628,-6.1341,-6.0301,-5.9435,-5.885,-5.8083,-5.7061,-5.6554,-5.6469,-5.6488,-5.6488,-5.648,-5.648,-5.6453,-5.6416,-5.6417,-4.8664,-5.0128,-5.0293,-5.075,-5.1336,-5.1394,-5.1394,-5.1394,-5.1394,-5.1394,-5.1394,-5.1394,-5.1394,-5.1394,-5.1394,-5.139,-5.1401,-5.1366,-5.133,-5.131,-5.1308,-5.1276,-5.123,-5.1128,-5.103,-5.0966,-5.0925,-5.1013,-5.1385,-5.1833,-5.2202,-5.2741,-5.4168,-5.4631,-5.4882,-5.5326,-5.5845,-5.5921,-5.6014,-5.6048,-5.6082,-5.6082,-5.6065,-5.6198,-5.6304,-5.6412,-5.664,-5.7276,-5.7727,-5.8428,-5.9536,-6.056,-6.1097,-6.1324,-6.1355,-6.1476,-6.1528,-6.1549,-6.1568,-6.1595,-6.1592,-6.1619,-6.1641,-6.1673,-6.1679,-6.1676,-6.1691,-6.1691,-6.1701,-6.169,-6.1717,-6.1704,-6.1707,-6.1715,-6.1698,-6.1699,-6.1717,-6.1716,-6.1716,-6.1698,-6.1758,-6.2595,-6.3723,-6.4131,-6.4649,-6.527,-6.5926,-6.5848,-6.5292,-6.457,-6.3731,-6.3047,-6.2325,-6.1935,-6.1701,-6.1696,-6.1696,-6.1676,-6.1676,-6.1666,-6.142,-6.0841,-6.0061,-5.9189,-5.8325,-5.7375,-5.6992,-5.6504,-5.6511,-5.6511,-5.6498,-5.6471,-5.6464,-5.6457,-5.6461]}]]